Wetterdaten: Sonntag, 11.12.2016
Datum Zeit Temp. A. Temp. A. max Feuchte A. Luftdruck Regen Wind Richtung Richtung Sonnenschein ET UV Solar Taupunkt Windböen
11.12.2016 00:00 -2,4 °C -2,4 °C 86 % 1024,6 hPa 0,0 mm 4,5 km/h (1 Bft) S 172 ° 0 min 0,000 mm 0,0 UV-I 0 W/m² -4,4 °C 4,8 km/h (1 Bft)
11.12.2016 00:01 -2,4 °C -2,4 °C 86 % 1024,6 hPa 0,0 mm 0,9 km/h (0 Bft) S 173 ° 0 min 0,000 mm 0,0 UV-I 0 W/m² -4,4 °C 3,2 km/h (1 Bft)
11.12.2016 00:02 -2,4 °C -2,3 °C 86 % 1024,6 hPa 0,0 mm 0,3 km/h (0 Bft) S 173 ° 0 min 0,000 mm 0,0 UV-I 0 W/m² -4,4 °C 1,6 km/h (1 Bft)
11.12.2016 00:03 -2,3 °C -2,3 °C 85 % 1024,6 hPa 0,0 mm 0,2 km/h (0 Bft) S 173 ° 0 min 0,000 mm 0,0 UV-I 0 W/m² -4,5 °C 1,6 km/h (1 Bft)
11.12.2016 00:04 -2,3 °C -2,3 °C 85 % 1024,6 hPa 0,0 mm 0,0 km/h (0 Bft) S 173 ° 0 min 0,000 mm 0,0 UV-I 0 W/m² -4,5 °C 0,0 km/h (0 Bft)
11.12.2016 00:05 -2,2 °C -2,2 °C 85 % 1024,4 hPa 0,0 mm 0,0 km/h (0 Bft) S 173 ° 0 min 0,000 mm 0,0 UV-I 0 W/m² -4,4 °C 0,0 km/h (0 Bft)
11.12.2016 00:06 -2,2 °C -2,2 °C 85 % 1024,4 hPa 0,0 mm 1,5 km/h (1 Bft) S 173 ° 0 min 0,000 mm 0,0 UV-I 0 W/m² -4,4 °C 3,2 km/h (1 Bft)
11.12.2016 00:07 -2,2 °C -2,2 °C 85 % 1024,4 hPa 0,0 mm 3,5 km/h (1 Bft) S 173 ° 0 min 0,000 mm 0,0 UV-I 0 W/m² -4,4 °C 4,8 km/h (1 Bft)
11.12.2016 00:08 -2,1 °C -2,1 °C 85 % 1024,4 hPa 0,0 mm 2,3 km/h (1 Bft) S 173 ° 0 min 0,000 mm 0,0 UV-I 0 W/m² -4,3 °C 3,2 km/h (1 Bft)
11.12.2016 00:09 -2,0 °C -2,0 °C 85 % 1024,4 hPa 0,0 mm 1,8 km/h (1 Bft) S 173 ° 0 min 0,000 mm 0,0 UV-I 0 W/m² -4,2 °C 4,8 km/h (1 Bft)
11.12.2016 00:10 -1,9 °C -1,9 °C 84 % 1024,4 hPa 0,0 mm 0,6 km/h (0 Bft) S 173 ° 0 min 0,000 mm 0,0 UV-I 0 W/m² -4,2 °C 1,6 km/h (1 Bft)
11.12.2016 00:11 -1,8 °C -1,8 °C 84 % 1024,4 hPa 0,0 mm 1,3 km/h (1 Bft) S 173 ° 0 min 0,000 mm 0,0 UV-I 0 W/m² -4,1 °C 1,6 km/h (1 Bft)
11.12.2016 00:12 -1,8 °C -1,8 °C 83 % 1024,4 hPa 0,0 mm 0,1 km/h (0 Bft) S 173 ° 0 min 0,000 mm 0,0 UV-I 0 W/m² -4,3 °C 1,6 km/h (1 Bft)
11.12.2016 00:13 -1,8 °C -1,8 °C 83 % 1024,4 hPa 0,0 mm 0,1 km/h (0 Bft) S 173 ° 0 min 0,000 mm 0,0 UV-I 0 W/m² -4,3 °C 1,6 km/h (1 Bft)
11.12.2016 00:14 -1,8 °C -1,8 °C 83 % 1024,4 hPa 0,0 mm 0,1 km/h (0 Bft) S 173 ° 0 min 0,000 mm 0,0 UV-I 0 W/m² -4,3 °C 1,6 km/h (1 Bft)
11.12.2016 00:15 -1,8 °C -1,8 °C 83 % 1024,4 hPa 0,0 mm 0,0 km/h (0 Bft) S 173 ° 0 min 0,000 mm 0,0 UV-I 0 W/m² -4,3 °C 0,0 km/h (0 Bft)
11.12.2016 00:16 -1,7 °C -1,7 °C 83 % 1024,3 hPa 0,0 mm 0,0 km/h (0 Bft) S 173 ° 0 min 0,000 mm 0,0 UV-I 0 W/m² -4,2 °C 0,0 km/h (0 Bft)
11.12.2016 00:17 -1,7 °C -1,7 °C 82 % 1024,3 hPa 0,0 mm 0,0 km/h (0 Bft) S 173 ° 0 min 0,000 mm 0,0 UV-I 0 W/m² -4,4 °C 0,0 km/h (0 Bft)
11.12.2016 00:18 -1,7 °C -1,7 °C 83 % 1024,3 hPa 0,0 mm 0,1 km/h (0 Bft) S 173 ° 0 min 0,000 mm 0,0 UV-I 0 W/m² -4,2 °C 1,6 km/h (1 Bft)
11.12.2016 00:19 -1,7 °C -1,7 °C 83 % 1024,3 hPa 0,0 mm 0,0 km/h (0 Bft) S 173 ° 0 min 0,000 mm 0,0 UV-I 0 W/m² -4,2 °C 0,0 km/h (0 Bft)
11.12.2016 00:20 -1,7 °C -1,7 °C 83 % 1024,2 hPa 0,0 mm 0,2 km/h (0 Bft) S 173 ° 0 min 0,000 mm 0,0 UV-I 0 W/m² -4,2 °C 1,6 km/h (1 Bft)
11.12.2016 00:21 -1,6 °C -1,6 °C 83 % 1024,3 hPa 0,0 mm 0,3 km/h (0 Bft) S 173 ° 0 min 0,000 mm 0,0 UV-I 0 W/m² -4,1 °C 1,6 km/h (1 Bft)
11.12.2016 00:22 -1,6 °C -1,6 °C 82 % 1024,3 hPa 0,0 mm 0,4 km/h (0 Bft) S 173 ° 0 min 0,000 mm 0,0 UV-I 0 W/m² -4,3 °C 1,6 km/h (1 Bft)
11.12.2016 00:23 -1,6 °C -1,6 °C 81 % 1024,2 hPa 0,0 mm 0,0 km/h (0 Bft) S 173 ° 0 min 0,000 mm 0,0 UV-I 0 W/m² -4,4 °C 0,0 km/h (0 Bft)
11.12.2016 00:24 -1,6 °C -1,6 °C 81 % 1024,3 hPa 0,0 mm 0,0 km/h (0 Bft) S 173 ° 0 min 0,000 mm 0,0 UV-I 0 W/m² -4,4 °C 0,0 km/h (0 Bft)
11.12.2016 00:25 -1,6 °C -1,6 °C 81 % 1024,2 hPa 0,0 mm 0,0 km/h (0 Bft) S 173 ° 0 min 0,000 mm 0,0 UV-I 0 W/m² -4,4 °C 0,0 km/h (0 Bft)
11.12.2016 00:26 -1,6 °C -1,6 °C 81 % 1024,2 hPa 0,0 mm 0,0 km/h (0 Bft) S 173 ° 0 min 0,000 mm 0,0 UV-I 0 W/m² -4,4 °C 0,0 km/h (0 Bft)
11.12.2016 00:27 -1,6 °C -1,6 °C 81 % 1024,2 hPa 0,0 mm 0,1 km/h (0 Bft) S 173 ° 0 min 0,000 mm 0,0 UV-I 0 W/m² -4,4 °C 1,6 km/h (1 Bft)
11.12.2016 00:28 -1,6 °C -1,6 °C 81 % 1024,2 hPa 0,0 mm 0,0 km/h (0 Bft) S 173 ° 0 min 0,000 mm 0,0 UV-I 0 W/m² -4,4 °C 0,0 km/h (0 Bft)
11.12.2016 00:29 -1,6 °C -1,6 °C 81 % 1024,2 hPa 0,0 mm 0,2 km/h (0 Bft) S 173 ° 0 min 0,000 mm 0,0 UV-I 0 W/m² -4,4 °C 1,6 km/h (1 Bft)
11.12.2016 00:30 -1,6 °C -1,6 °C 80 % 1024,2 hPa 0,0 mm 0,1 km/h (0 Bft) S 173 ° 0 min 0,000 mm 0,0 UV-I 0 W/m² -4,6 °C 1,6 km/h (1 Bft)
11.12.2016 00:31 -1,6 °C -1,6 °C 80 % 1024,2 hPa 0,0 mm 1,0 km/h (0 Bft) S 173 ° 0 min 0,000 mm 0,0 UV-I 0 W/m² -4,6 °C 1,6 km/h (1 Bft)
11.12.2016 00:32 -1,6 °C -1,6 °C 80 % 1024,1 hPa 0,0 mm 1,2 km/h (1 Bft) S 173 ° 0 min 0,000 mm 0,0 UV-I 0 W/m² -4,6 °C 1,6 km/h (1 Bft)
11.12.2016 00:33 -1,6 °C -1,6 °C 81 % 1024,1 hPa 0,0 mm 1,6 km/h (1 Bft) S 173 ° 0 min 0,000 mm 0,0 UV-I 0 W/m² -4,4 °C 4,8 km/h (1 Bft)
11.12.2016 00:34 -1,6 °C -1,6 °C 81 % 1024,1 hPa 0,0 mm 0,5 km/h (0 Bft) S 173 ° 0 min 0,000 mm 0,0 UV-I 0 W/m² -4,4 °C 1,6 km/h (1 Bft)
11.12.2016 00:35 -1,6 °C -1,6 °C 81 % 1024,1 hPa 0,0 mm 0,3 km/h (0 Bft) S 173 ° 0 min 0,000 mm 0,0 UV-I 0 W/m² -4,4 °C 1,6 km/h (1 Bft)
11.12.2016 00:36 -1,6 °C -1,6 °C 81 % 1024,2 hPa 0,0 mm 0,1 km/h (0 Bft) S 173 ° 0 min 0,000 mm 0,0 UV-I 0 W/m² -4,4 °C 1,6 km/h (1 Bft)
11.12.2016 00:37 -1,6 °C -1,6 °C 80 % 1024,2 hPa 0,0 mm 0,0 km/h (0 Bft) S 173 ° 0 min 0,000 mm 0,0 UV-I 0 W/m² -4,6 °C 0,0 km/h (0 Bft)
11.12.2016 00:38 -1,6 °C -1,5 °C 80 % 1024,1 hPa 0,0 mm 0,0 km/h (0 Bft) S 173 ° 0 min 0,000 mm 0,0 UV-I 0 W/m² -4,6 °C 0,0 km/h (0 Bft)
11.12.2016 00:39 -1,6 °C -1,5 °C 80 % 1024,1 hPa 0,0 mm 0,0 km/h (0 Bft) S 173 ° 0 min 0,000 mm 0,0 UV-I 0 W/m² -4,6 °C 0,0 km/h (0 Bft)
11.12.2016 00:40 -1,6 °C -1,6 °C 81 % 1024,1 hPa 0,0 mm 0,0 km/h (0 Bft) S 173 ° 0 min 0,000 mm 0,0 UV-I 0 W/m² -4,4 °C 0,0 km/h (0 Bft)
11.12.2016 00:41 -1,6 °C -1,6 °C 81 % 1024,0 hPa 0,0 mm 0,0 km/h (0 Bft) S 173 ° 0 min 0,000 mm 0,0 UV-I 0 W/m² -4,4 °C 0,0 km/h (0 Bft)
11.12.2016 00:42 -1,5 °C -1,5 °C 81 % 1024,1 hPa 0,0 mm 0,0 km/h (0 Bft) S 173 ° 0 min 0,000 mm 0,0 UV-I 0 W/m² -4,3 °C 0,0 km/h (0 Bft)
11.12.2016 00:43 -1,6 °C -1,5 °C 81 % 1024,1 hPa 0,0 mm 0,0 km/h (0 Bft) S 173 ° 0 min 0,000 mm 0,0 UV-I 0 W/m² -4,4 °C 0,0 km/h (0 Bft)
11.12.2016 00:44 -1,5 °C -1,5 °C 81 % 1024,1 hPa 0,0 mm 0,3 km/h (0 Bft) S 173 ° 0 min 0,000 mm 0,0 UV-I 0 W/m² -4,3 °C 1,6 km/h (1 Bft)
11.12.2016 00:45 -1,5 °C -1,5 °C 81 % 1024,1 hPa 0,0 mm 1,1 km/h (1 Bft) S 173 ° 0 min 0,000 mm 0,0 UV-I 0 W/m² -4,3 °C 1,6 km/h (1 Bft)
11.12.2016 00:46 -1,4 °C -1,4 °C 81 % 1024,1 hPa 0,0 mm 2,3 km/h (1 Bft) S-SO 162 ° 0 min 0,000 mm 0,0 UV-I 0 W/m² -4,2 °C 6,4 km/h (2 Bft)
11.12.2016 00:47 -1,4 °C -1,4 °C 81 % 1024,1 hPa 0,0 mm 3,0 km/h (1 Bft) S-SO 161 ° 0 min 0,000 mm 0,0 UV-I 0 W/m² -4,2 °C 6,4 km/h (2 Bft)
11.12.2016 00:48 -1,4 °C -1,4 °C 80 % 1024,1 hPa 0,0 mm 1,1 km/h (1 Bft) S-SO 161 ° 0 min 0,000 mm 0,0 UV-I 0 W/m² -4,4 °C 3,2 km/h (1 Bft)
11.12.2016 00:49 -1,3 °C -1,3 °C 80 % 1024,0 hPa 0,0 mm 2,0 km/h (1 Bft) S-SO 161 ° 0 min 0,000 mm 0,0 UV-I 0 W/m² -4,3 °C 6,4 km/h (2 Bft)
11.12.2016 00:50 -1,2 °C -1,2 °C 80 % 1024,0 hPa 0,0 mm 3,4 km/h (1 Bft) S-SO 165 ° 0 min 0,000 mm 0,0 UV-I 0 W/m² -4,2 °C 6,4 km/h (2 Bft)
11.12.2016 00:51 -1,1 °C -1,1 °C 80 % 1024,0 hPa 0,0 mm 2,9 km/h (1 Bft) S-SO 165 ° 0 min 0,000 mm 0,0 UV-I 0 W/m² -4,1 °C 3,2 km/h (1 Bft)
11.12.2016 00:52 -1,0 °C -1,0 °C 79 % 1024,0 hPa 0,0 mm 1,7 km/h (1 Bft) S-SO 165 ° 0 min 0,000 mm 0,0 UV-I 0 W/m² -4,2 °C 3,2 km/h (1 Bft)
11.12.2016 00:53 -0,8 °C -0,8 °C 78 % 1024,1 hPa 0,0 mm 0,7 km/h (0 Bft) S-SO 165 ° 0 min 0,000 mm 0,0 UV-I 0 W/m² -4,1 °C 3,2 km/h (1 Bft)
11.12.2016 00:54 -0,8 °C -0,8 °C 78 % 1024,0 hPa 0,0 mm 0,5 km/h (0 Bft) S-SO 166 ° 0 min 0,000 mm 0,0 UV-I 0 W/m² -4,1 °C 1,6 km/h (1 Bft)
11.12.2016 00:55 -0,7 °C -0,7 °C 77 % 1024,0 hPa 0,0 mm 1,4 km/h (1 Bft) S-SO 166 ° 0 min 0,000 mm 0,0 UV-I 0 W/m² -4,2 °C 4,8 km/h (1 Bft)
11.12.2016 00:56 -0,6 °C -0,6 °C 77 % 1024,0 hPa 0,0 mm 4,1 km/h (1 Bft) S 169 ° 0 min 0,000 mm 0,0 UV-I 0 W/m² -4,1 °C 6,4 km/h (2 Bft)
11.12.2016 00:57 -0,5 °C -0,5 °C 77 % 1024,0 hPa 0,0 mm 2,3 km/h (1 Bft) S 169 ° 0 min 0,000 mm 0,0 UV-I 0 W/m² -4,0 °C 6,4 km/h (2 Bft)
11.12.2016 00:58 -0,5 °C -0,4 °C 77 % 1024,0 hPa 0,0 mm 1,1 km/h (1 Bft) S 169 ° 0 min 0,000 mm 0,0 UV-I 0 W/m² -4,0 °C 3,2 km/h (1 Bft)
11.12.2016 00:59 -0,4 °C -0,4 °C 77 % 1024,0 hPa 0,0 mm 3,0 km/h (1 Bft) S 169 ° 0 min 0,000 mm 0,0 UV-I 0 W/m² -3,9 °C 6,4 km/h (2 Bft)
11.12.2016 01:00 -0,4 °C -0,4 °C 76 % 1024,0 hPa 0,0 mm 2,2 km/h (1 Bft) S 169 ° 0 min 0,000 mm 0,0 UV-I 0 W/m² -4,1 °C 6,4 km/h (2 Bft)
11.12.2016 01:01 -0,3 °C -0,3 °C 76 % 1024,0 hPa 0,0 mm 3,8 km/h (1 Bft) S 169 ° 0 min 0,000 mm 0,0 UV-I 0 W/m² -4,0 °C 6,4 km/h (2 Bft)
11.12.2016 01:02 -0,3 °C -0,3 °C 76 % 1024,0 hPa 0,0 mm 4,4 km/h (1 Bft) S 169 ° 0 min 0,000 mm 0,0 UV-I 0 W/m² -4,0 °C 6,4 km/h (2 Bft)
11.12.2016 01:03 -0,3 °C -0,2 °C 75 % 1023,9 hPa 0,0 mm 5,8 km/h (2 Bft) S-SO 163 ° 0 min 0,000 mm 0,0 UV-I 0 W/m² -4,2 °C 8,0 km/h (2 Bft)
11.12.2016 01:04 -0,2 °C -0,2 °C 75 % 1023,9 hPa 0,0 mm 3,6 km/h (1 Bft) S-SO 163 ° 0 min 0,000 mm 0,0 UV-I 0 W/m² -4,1 °C 8,0 km/h (2 Bft)
11.12.2016 01:05 -0,2 °C -0,2 °C 75 % 1023,9 hPa 0,0 mm 2,3 km/h (1 Bft) S-SO 163 ° 0 min 0,000 mm 0,0 UV-I 0 W/m² -4,1 °C 3,2 km/h (1 Bft)
11.12.2016 01:06 -0,1 °C -0,1 °C 75 % 1023,9 hPa 0,0 mm 0,3 km/h (0 Bft) S-SO 163 ° 0 min 0,000 mm 0,0 UV-I 0 W/m² -4,0 °C 1,6 km/h (1 Bft)
11.12.2016 01:07 -0,1 °C -0,1 °C 75 % 1023,9 hPa 0,0 mm 0,2 km/h (0 Bft) S-SO 163 ° 0 min 0,000 mm 0,0 UV-I 0 W/m² -4,0 °C 1,6 km/h (1 Bft)
11.12.2016 01:08 -0,1 °C -0,1 °C 75 % 1023,9 hPa 0,0 mm 0,2 km/h (0 Bft) S-SO 163 ° 0 min 0,000 mm 0,0 UV-I 0 W/m² -4,0 °C 1,6 km/h (1 Bft)
11.12.2016 01:09 -0,1 °C -0,1 °C 74 % 1023,9 hPa 0,0 mm 0,5 km/h (0 Bft) S-SO 163 ° 0 min 0,000 mm 0,0 UV-I 0 W/m² -4,2 °C 1,6 km/h (1 Bft)
11.12.2016 01:10 -0,1 °C -0,1 °C 74 % 1023,8 hPa 0,0 mm 0,4 km/h (0 Bft) S-SO 163 ° 0 min 0,000 mm 0,0 UV-I 0 W/m² -4,2 °C 1,6 km/h (1 Bft)
11.12.2016 01:11 -0,2 °C -0,1 °C 75 % 1023,8 hPa 0,0 mm 1,6 km/h (1 Bft) S-SO 163 ° 0 min 0,000 mm 0,0 UV-I 0 W/m² -4,1 °C 3,2 km/h (1 Bft)
11.12.2016 01:12 -0,2 °C -0,2 °C 74 % 1023,8 hPa 0,0 mm 3,9 km/h (1 Bft) S-SO 164 ° 0 min 0,000 mm 0,0 UV-I 0 W/m² -4,3 °C 6,4 km/h (2 Bft)
11.12.2016 01:13 -0,1 °C -0,1 °C 74 % 1023,8 hPa 0,0 mm 3,0 km/h (1 Bft) S-SO 164 ° 0 min 0,000 mm 0,0 UV-I 0 W/m² -4,2 °C 3,2 km/h (1 Bft)
11.12.2016 01:14 0,0 °C 0,0 °C 74 % 1023,7 hPa 0,0 mm 1,3 km/h (1 Bft) S-SO 164 ° 0 min 0,000 mm 0,0 UV-I 0 W/m² -4,1 °C 3,2 km/h (1 Bft)
11.12.2016 01:15 0,1 °C 0,1 °C 74 % 1023,7 hPa 0,0 mm 0,2 km/h (0 Bft) S-SO 164 ° 0 min 0,000 mm 0,0 UV-I 0 W/m² -4,0 °C 1,6 km/h (1 Bft)
11.12.2016 01:16 0,2 °C 0,2 °C 73 % 1023,7 hPa 0,0 mm 0,3 km/h (0 Bft) S-SO 164 ° 0 min 0,000 mm 0,0 UV-I 0 W/m² -4,1 °C 1,6 km/h (1 Bft)
11.12.2016 01:17 0,1 °C 0,2 °C 73 % 1023,7 hPa 0,0 mm 1,5 km/h (1 Bft) S-SO 164 ° 0 min 0,000 mm 0,0 UV-I 0 W/m² -4,2 °C 1,6 km/h (1 Bft)
11.12.2016 01:18 0,1 °C 0,1 °C 72 % 1023,7 hPa 0,0 mm 0,1 km/h (0 Bft) S-SO 164 ° 0 min 0,000 mm 0,0 UV-I 0 W/m² -4,3 °C 1,6 km/h (1 Bft)
11.12.2016 01:19 0,0 °C 0,1 °C 72 % 1023,7 hPa 0,0 mm 0,1 km/h (0 Bft) S-SO 164 ° 0 min 0,000 mm 0,0 UV-I 0 W/m² -4,4 °C 1,6 km/h (1 Bft)
11.12.2016 01:20 -0,1 °C 0,0 °C 72 % 1023,8 hPa 0,0 mm 1,3 km/h (1 Bft) S-SO 164 ° 0 min 0,000 mm 0,0 UV-I 0 W/m² -4,5 °C 3,2 km/h (1 Bft)
11.12.2016 01:21 -0,1 °C -0,1 °C 72 % 1023,8 hPa 0,0 mm 2,2 km/h (1 Bft) S-SO 164 ° 0 min 0,000 mm 0,0 UV-I 0 W/m² -4,5 °C 3,2 km/h (1 Bft)
11.12.2016 01:22 -0,1 °C -0,1 °C 72 % 1023,7 hPa 0,0 mm 0,2 km/h (0 Bft) S-SO 164 ° 0 min 0,000 mm 0,0 UV-I 0 W/m² -4,5 °C 1,6 km/h (1 Bft)
11.12.2016 01:23 -0,1 °C -0,1 °C 72 % 1023,7 hPa 0,0 mm 1,6 km/h (1 Bft) S-SO 164 ° 0 min 0,000 mm 0,0 UV-I 0 W/m² -4,5 °C 3,2 km/h (1 Bft)
11.12.2016 01:24 -0,2 °C -0,1 °C 71 % 1023,7 hPa 0,0 mm 4,4 km/h (1 Bft) S-SO 164 ° 0 min 0,000 mm 0,0 UV-I 0 W/m² -4,8 °C 6,4 km/h (2 Bft)
11.12.2016 01:25 -0,2 °C -0,1 °C 71 % 1023,6 hPa 0,0 mm 4,0 km/h (1 Bft) S-SO 163 ° 0 min 0,000 mm 0,0 UV-I 0 W/m² -4,8 °C 6,4 km/h (2 Bft)
11.12.2016 01:26 -0,2 °C -0,2 °C 72 % 1023,6 hPa 0,0 mm 2,2 km/h (1 Bft) S-SO 163 ° 0 min 0,000 mm 0,0 UV-I 0 W/m² -4,6 °C 3,2 km/h (1 Bft)
11.12.2016 01:27 -0,2 °C -0,2 °C 73 % 1023,7 hPa 0,0 mm 2,1 km/h (1 Bft) S-SO 163 ° 0 min 0,000 mm 0,0 UV-I 0 W/m² -4,4 °C 3,2 km/h (1 Bft)
11.12.2016 01:28 -0,2 °C -0,2 °C 74 % 1023,7 hPa 0,0 mm 0,9 km/h (0 Bft) S-SO 163 ° 0 min 0,000 mm 0,0 UV-I 0 W/m² -4,3 °C 1,6 km/h (1 Bft)
11.12.2016 01:29 -0,3 °C -0,2 °C 74 % 1023,7 hPa 0,0 mm 1,5 km/h (1 Bft) S-SO 163 ° 0 min 0,000 mm 0,0 UV-I 0 W/m² -4,4 °C 3,2 km/h (1 Bft)
11.12.2016 01:30 -0,3 °C -0,3 °C 73 % 1023,7 hPa 0,0 mm 1,9 km/h (1 Bft) S-SO 163 ° 0 min 0,000 mm 0,0 UV-I 0 W/m² -4,5 °C 3,2 km/h (1 Bft)
11.12.2016 01:31 -0,3 °C -0,3 °C 72 % 1023,7 hPa 0,0 mm 0,3 km/h (0 Bft) S-SO 163 ° 0 min 0,000 mm 0,0 UV-I 0 W/m² -4,7 °C 1,6 km/h (1 Bft)
11.12.2016 01:32 -0,3 °C -0,3 °C 72 % 1023,7 hPa 0,0 mm 0,0 km/h (0 Bft) S-SO 163 ° 0 min 0,000 mm 0,0 UV-I 0 W/m² -4,7 °C 0,0 km/h (0 Bft)
11.12.2016 01:33 -0,3 °C -0,3 °C 72 % 1023,7 hPa 0,0 mm 0,0 km/h (0 Bft) S-SO 163 ° 0 min 0,000 mm 0,0 UV-I 0 W/m² -4,7 °C 0,0 km/h (0 Bft)
11.12.2016 01:34 -0,4 °C -0,3 °C 72 % 1023,7 hPa 0,0 mm 0,3 km/h (0 Bft) S-SO 163 ° 0 min 0,000 mm 0,0 UV-I 0 W/m² -4,8 °C 1,6 km/h (1 Bft)
11.12.2016 01:35 -0,4 °C -0,4 °C 72 % 1023,7 hPa 0,0 mm 0,7 km/h (0 Bft) S-SO 163 ° 0 min 0,000 mm 0,0 UV-I 0 W/m² -4,8 °C 1,6 km/h (1 Bft)
11.12.2016 01:36 -0,4 °C -0,4 °C 72 % 1023,7 hPa 0,0 mm 1,8 km/h (1 Bft) S-SO 163 ° 0 min 0,000 mm 0,0 UV-I 0 W/m² -4,8 °C 3,2 km/h (1 Bft)
11.12.2016 01:37 -0,4 °C -0,4 °C 72 % 1023,7 hPa 0,0 mm 2,4 km/h (1 Bft) S-SO 163 ° 0 min 0,000 mm 0,0 UV-I 0 W/m² -4,8 °C 3,2 km/h (1 Bft)
11.12.2016 01:38 -0,5 °C -0,4 °C 72 % 1023,7 hPa 0,0 mm 1,0 km/h (0 Bft) S-SO 163 ° 0 min 0,000 mm 0,0 UV-I 0 W/m² -4,9 °C 1,6 km/h (1 Bft)
11.12.2016 01:39 -0,6 °C -0,5 °C 72 % 1023,7 hPa 0,0 mm 0,3 km/h (0 Bft) S-SO 163 ° 0 min 0,000 mm 0,0 UV-I 0 W/m² -5,0 °C 1,6 km/h (1 Bft)
11.12.2016 01:40 -0,6 °C -0,6 °C 72 % 1023,7 hPa 0,0 mm 1,1 km/h (1 Bft) S-SO 163 ° 0 min 0,000 mm 0,0 UV-I 0 W/m² -5,0 °C 1,6 km/h (1 Bft)
11.12.2016 01:41 -0,6 °C -0,6 °C 72 % 1023,7 hPa 0,0 mm 0,5 km/h (0 Bft) S-SO 163 ° 0 min 0,000 mm 0,0 UV-I 0 W/m² -5,0 °C 1,6 km/h (1 Bft)
11.12.2016 01:42 -0,6 °C -0,6 °C 73 % 1023,7 hPa 0,0 mm 0,2 km/h (0 Bft) S-SO 163 ° 0 min 0,000 mm 0,0 UV-I 0 W/m² -4,8 °C 3,2 km/h (1 Bft)
11.12.2016 01:43 -0,7 °C -0,6 °C 74 % 1023,6 hPa 0,0 mm 3,0 km/h (1 Bft) S-SO 164 ° 0 min 0,000 mm 0,0 UV-I 0 W/m² -4,7 °C 3,2 km/h (1 Bft)
11.12.2016 01:44 -0,7 °C -0,7 °C 75 % 1023,6 hPa 0,0 mm 1,7 km/h (1 Bft) S-SO 164 ° 0 min 0,000 mm 0,0 UV-I 0 W/m² -4,6 °C 3,2 km/h (1 Bft)
11.12.2016 01:45 -0,8 °C -0,7 °C 76 % 1023,7 hPa 0,0 mm 0,1 km/h (0 Bft) S-SO 163 ° 0 min 0,000 mm 0,0 UV-I 0 W/m² -4,5 °C 1,6 km/h (1 Bft)
11.12.2016 01:46 -0,8 °C -0,8 °C 76 % 1023,7 hPa 0,0 mm 0,0 km/h (0 Bft) S-SO 164 ° 0 min 0,000 mm 0,0 UV-I 0 W/m² -4,5 °C 0,0 km/h (0 Bft)
11.12.2016 01:47 -0,8 °C -0,8 °C 75 % 1023,6 hPa 0,0 mm 0,0 km/h (0 Bft) S-SO 164 ° 0 min 0,000 mm 0,0 UV-I 0 W/m² -4,7 °C 0,0 km/h (0 Bft)
11.12.2016 01:48 -0,9 °C -0,8 °C 75 % 1023,6 hPa 0,0 mm 0,0 km/h (0 Bft) S-SO 164 ° 0 min 0,000 mm 0,0 UV-I 0 W/m² -4,8 °C 0,0 km/h (0 Bft)
11.12.2016 01:49 -0,9 °C -0,9 °C 76 % 1023,6 hPa 0,0 mm 0,1 km/h (0 Bft) S-SO 164 ° 0 min 0,000 mm 0,0 UV-I 0 W/m² -4,6 °C 1,6 km/h (1 Bft)
11.12.2016 01:50 -0,9 °C -0,9 °C 76 % 1023,6 hPa 0,0 mm 0,3 km/h (0 Bft) S-SO 164 ° 0 min 0,000 mm 0,0 UV-I 0 W/m² -4,6 °C 1,6 km/h (1 Bft)
11.12.2016 01:51 -1,0 °C -0,9 °C 76 % 1023,6 hPa 0,0 mm 0,5 km/h (0 Bft) S-SO 164 ° 0 min 0,000 mm 0,0 UV-I 0 W/m² -4,7 °C 1,6 km/h (1 Bft)
11.12.2016 01:52 -1,1 °C -1,0 °C 75 % 1023,6 hPa 0,0 mm 0,0 km/h (0 Bft) S-SO 164 ° 0 min 0,000 mm 0,0 UV-I 0 W/m² -5,0 °C 0,0 km/h (0 Bft)
11.12.2016 01:53 -1,1 °C -1,1 °C 75 % 1023,6 hPa 0,0 mm 0,0 km/h (0 Bft) S-SO 164 ° 0 min 0,000 mm 0,0 UV-I 0 W/m² -5,0 °C 0,0 km/h (0 Bft)
11.12.2016 01:54 -1,2 °C -1,1 °C 75 % 1023,6 hPa 0,0 mm 0,2 km/h (0 Bft) S-SO 164 ° 0 min 0,000 mm 0,0 UV-I 0 W/m² -5,0 °C 1,6 km/h (1 Bft)
11.12.2016 01:55 -1,2 °C -1,2 °C 75 % 1023,5 hPa 0,0 mm 0,0 km/h (0 Bft) S-SO 164 ° 0 min 0,000 mm 0,0 UV-I 0 W/m² -5,0 °C 0,0 km/h (0 Bft)
11.12.2016 01:56 -1,3 °C -1,2 °C 75 % 1023,5 hPa 0,0 mm 0,0 km/h (0 Bft) S-SO 164 ° 0 min 0,000 mm 0,0 UV-I 0 W/m² -5,1 °C 0,0 km/h (0 Bft)
11.12.2016 01:57 -1,3 °C -1,3 °C 75 % 1023,5 hPa 0,0 mm 0,0 km/h (0 Bft) S-SO 164 ° 0 min 0,000 mm 0,0 UV-I 0 W/m² -5,1 °C 0,0 km/h (0 Bft)
11.12.2016 01:58 -1,3 °C -1,3 °C 75 % 1023,5 hPa 0,0 mm 0,0 km/h (0 Bft) S-SO 164 ° 0 min 0,000 mm 0,0 UV-I 0 W/m² -5,1 °C 0,0 km/h (0 Bft)
11.12.2016 01:59 -1,4 °C -1,3 °C 75 % 1023,5 hPa 0,0 mm 0,0 km/h (0 Bft) S-SO 164 ° 0 min 0,000 mm 0,0 UV-I 0 W/m² -5,2 °C 0,0 km/h (0 Bft)
11.12.2016 02:00 -1,4 °C -1,4 °C 75 % 1023,5 hPa 0,0 mm 0,0 km/h (0 Bft) S-SO 164 ° 0 min 0,025 mm 0,0 UV-I 0 W/m² -5,2 °C 0,0 km/h (0 Bft)
11.12.2016 02:01 -1,4 °C -1,4 °C 75 % 1023,5 hPa 0,0 mm 0,0 km/h (0 Bft) S-SO 164 ° 0 min 0,000 mm 0,0 UV-I 0 W/m² -5,2 °C 0,0 km/h (0 Bft)
11.12.2016 02:02 -1,5 °C -1,4 °C 75 % 1023,4 hPa 0,0 mm 0,0 km/h (0 Bft) S-SO 164 ° 0 min 0,000 mm 0,0 UV-I 0 W/m² -5,3 °C 0,0 km/h (0 Bft)
11.12.2016 02:03 -1,5 °C -1,5 °C 75 % 1023,5 hPa 0,0 mm 0,1 km/h (0 Bft) S-SO 164 ° 0 min 0,000 mm 0,0 UV-I 0 W/m² -5,3 °C 1,6 km/h (1 Bft)
11.12.2016 02:04 -1,6 °C -1,5 °C 75 % 1023,4 hPa 0,0 mm 0,0 km/h (0 Bft) S-SO 164 ° 0 min 0,000 mm 0,0 UV-I 0 W/m² -5,4 °C 0,0 km/h (0 Bft)
11.12.2016 02:05 -1,6 °C -1,6 °C 75 % 1023,4 hPa 0,0 mm 0,0 km/h (0 Bft) S-SO 164 ° 0 min 0,000 mm 0,0 UV-I 0 W/m² -5,4 °C 0,0 km/h (0 Bft)
11.12.2016 02:06 -1,6 °C -1,6 °C 75 % 1023,5 hPa 0,0 mm 0,0 km/h (0 Bft) S-SO 164 ° 0 min 0,000 mm 0,0 UV-I 0 W/m² -5,4 °C 0,0 km/h (0 Bft)
11.12.2016 02:07 -1,6 °C -1,6 °C 75 % 1023,4 hPa 0,0 mm 0,0 km/h (0 Bft) S-SO 164 ° 0 min 0,000 mm 0,0 UV-I 0 W/m² -5,4 °C 0,0 km/h (0 Bft)
11.12.2016 02:08 -1,6 °C -1,6 °C 75 % 1023,3 hPa 0,0 mm 0,0 km/h (0 Bft) S-SO 163 ° 0 min 0,000 mm 0,0 UV-I 0 W/m² -5,4 °C 0,0 km/h (0 Bft)
11.12.2016 02:09 -1,7 °C -1,6 °C 76 % 1023,3 hPa 0,0 mm 0,0 km/h (0 Bft) S-SO 164 ° 0 min 0,000 mm 0,0 UV-I 0 W/m² -5,4 °C 0,0 km/h (0 Bft)
11.12.2016 02:10 -1,7 °C -1,7 °C 76 % 1023,3 hPa 0,0 mm 0,0 km/h (0 Bft) S-SO 164 ° 0 min 0,000 mm 0,0 UV-I 0 W/m² -5,4 °C 0,0 km/h (0 Bft)
11.12.2016 02:11 -1,8 °C -1,7 °C 76 % 1023,3 hPa 0,0 mm 0,5 km/h (0 Bft) S-SO 164 ° 0 min 0,000 mm 0,0 UV-I 0 W/m² -5,5 °C 1,6 km/h (1 Bft)
11.12.2016 02:12 -1,8 °C -1,8 °C 76 % 1023,3 hPa 0,0 mm 0,0 km/h (0 Bft) S-SO 164 ° 0 min 0,000 mm 0,0 UV-I 0 W/m² -5,5 °C 0,0 km/h (0 Bft)
11.12.2016 02:13 -1,8 °C -1,8 °C 77 % 1023,3 hPa 0,0 mm 0,0 km/h (0 Bft) S-SO 164 ° 0 min 0,000 mm 0,0 UV-I 0 W/m² -5,3 °C 0,0 km/h (0 Bft)
11.12.2016 02:14 -1,8 °C -1,8 °C 78 % 1023,3 hPa 0,0 mm 0,0 km/h (0 Bft) S-SO 163 ° 0 min 0,000 mm 0,0 UV-I 0 W/m² -5,1 °C 0,0 km/h (0 Bft)
11.12.2016 02:15 -1,9 °C -1,8 °C 77 % 1023,2 hPa 0,0 mm 0,2 km/h (0 Bft) S-SO 164 ° 0 min 0,000 mm 0,0 UV-I 0 W/m² -5,4 °C 1,6 km/h (1 Bft)
11.12.2016 02:16 -1,9 °C -1,9 °C 77 % 1023,3 hPa 0,0 mm 1,3 km/h (1 Bft) S-SO 163 ° 0 min 0,000 mm 0,0 UV-I 0 W/m² -5,4 °C 1,6 km/h (1 Bft)
11.12.2016 02:17 -1,9 °C -1,9 °C 77 % 1023,3 hPa 0,0 mm 0,8 km/h (0 Bft) S-SO 163 ° 0 min 0,000 mm 0,0 UV-I 0 W/m² -5,4 °C 1,6 km/h (1 Bft)
11.12.2016 02:18 -2,0 °C -1,9 °C 77 % 1023,3 hPa 0,0 mm 0,3 km/h (0 Bft) S-SO 164 ° 0 min 0,000 mm 0,0 UV-I 0 W/m² -5,5 °C 1,6 km/h (1 Bft)
11.12.2016 02:19 -2,1 °C -2,0 °C 77 % 1023,3 hPa 0,0 mm 0,0 km/h (0 Bft) S-SO 164 ° 0 min 0,000 mm 0,0 UV-I 0 W/m² -5,6 °C 0,0 km/h (0 Bft)
11.12.2016 02:20 -2,1 °C -2,1 °C 78 % 1023,3 hPa 0,0 mm 1,6 km/h (1 Bft) S-SO 163 ° 0 min 0,000 mm 0,0 UV-I 0 W/m² -5,4 °C 3,2 km/h (1 Bft)
11.12.2016 02:21 -2,1 °C -2,1 °C 78 % 1023,3 hPa 0,0 mm 0,1 km/h (0 Bft) S-SO 163 ° 0 min 0,000 mm 0,0 UV-I 0 W/m² -5,4 °C 1,6 km/h (1 Bft)
11.12.2016 02:22 -2,1 °C -2,1 °C 78 % 1023,3 hPa 0,0 mm 0,0 km/h (0 Bft) S-SO 163 ° 0 min 0,000 mm 0,0 UV-I 0 W/m² -5,4 °C 0,0 km/h (0 Bft)
11.12.2016 02:23 -2,2 °C -2,1 °C 78 % 1023,3 hPa 0,0 mm 0,7 km/h (0 Bft) S-SO 163 ° 0 min 0,000 mm 0,0 UV-I 0 W/m² -5,5 °C 1,6 km/h (1 Bft)
11.12.2016 02:24 -2,2 °C -2,2 °C 78 % 1023,3 hPa 0,0 mm 0,0 km/h (0 Bft) S-SO 163 ° 0 min 0,000 mm 0,0 UV-I 0 W/m² -5,5 °C 0,0 km/h (0 Bft)
11.12.2016 02:25 -2,2 °C -2,2 °C 78 % 1023,3 hPa 0,0 mm 0,0 km/h (0 Bft) S-SO 163 ° 0 min 0,000 mm 0,0 UV-I 0 W/m² -5,5 °C 0,0 km/h (0 Bft)
11.12.2016 02:26 -2,3 °C -2,2 °C 78 % 1023,3 hPa 0,0 mm 0,2 km/h (0 Bft) S-SO 163 ° 0 min 0,000 mm 0,0 UV-I 0 W/m² -5,6 °C 1,6 km/h (1 Bft)
11.12.2016 02:27 -2,2 °C -2,2 °C 78 % 1023,3 hPa 0,0 mm 0,1 km/h (0 Bft) S-SO 163 ° 0 min 0,000 mm 0,0 UV-I 0 W/m² -5,5 °C 1,6 km/h (1 Bft)
11.12.2016 02:28 -2,3 °C -2,2 °C 78 % 1023,3 hPa 0,0 mm 0,5 km/h (0 Bft) S-SO 163 ° 0 min 0,000 mm 0,0 UV-I 0 W/m² -5,6 °C 1,6 km/h (1 Bft)
11.12.2016 02:29 -2,3 °C -2,3 °C 79 % 1023,3 hPa 0,0 mm 0,4 km/h (0 Bft) S-SO 163 ° 0 min 0,000 mm 0,0 UV-I 0 W/m² -5,4 °C 1,6 km/h (1 Bft)
11.12.2016 02:30 -2,3 °C -2,3 °C 79 % 1023,3 hPa 0,0 mm 1,5 km/h (1 Bft) S-SO 163 ° 0 min 0,000 mm 0,0 UV-I 0 W/m² -5,4 °C 3,2 km/h (1 Bft)
11.12.2016 02:31 -2,3 °C -2,3 °C 79 % 1023,3 hPa 0,0 mm 0,3 km/h (0 Bft) S-SO 163 ° 0 min 0,000 mm 0,0 UV-I 0 W/m² -5,4 °C 1,6 km/h (1 Bft)
11.12.2016 02:32 -2,3 °C -2,3 °C 79 % 1023,3 hPa 0,0 mm 1,5 km/h (1 Bft) S-SO 163 ° 0 min 0,000 mm 0,0 UV-I 0 W/m² -5,4 °C 3,2 km/h (1 Bft)
11.12.2016 02:33 -2,4 °C -2,3 °C 79 % 1023,2 hPa 0,0 mm 0,8 km/h (0 Bft) S-SO 163 ° 0 min 0,000 mm 0,0 UV-I 0 W/m² -5,5 °C 1,6 km/h (1 Bft)
11.12.2016 02:34 -2,4 °C -2,3 °C 79 % 1023,2 hPa 0,0 mm 0,6 km/h (0 Bft) S-SO 163 ° 0 min 0,000 mm 0,0 UV-I 0 W/m² -5,5 °C 1,6 km/h (1 Bft)
11.12.2016 02:35 -2,4 °C -2,4 °C 79 % 1023,2 hPa 0,0 mm 0,6 km/h (0 Bft) S-SO 163 ° 0 min 0,000 mm 0,0 UV-I 0 W/m² -5,5 °C 1,6 km/h (1 Bft)
11.12.2016 02:36 -2,4 °C -2,4 °C 79 % 1023,2 hPa 0,0 mm 0,1 km/h (0 Bft) S-SO 163 ° 0 min 0,000 mm 0,0 UV-I 0 W/m² -5,5 °C 1,6 km/h (1 Bft)
11.12.2016 02:37 -2,4 °C -2,4 °C 79 % 1023,2 hPa 0,0 mm 0,7 km/h (0 Bft) S-SO 163 ° 0 min 0,000 mm 0,0 UV-I 0 W/m² -5,5 °C 1,6 km/h (1 Bft)
11.12.2016 02:38 -2,4 °C -2,4 °C 79 % 1023,2 hPa 0,0 mm 0,5 km/h (0 Bft) S-SO 163 ° 0 min 0,000 mm 0,0 UV-I 0 W/m² -5,5 °C 1,6 km/h (1 Bft)
11.12.2016 02:39 -2,5 °C -2,4 °C 79 % 1023,2 hPa 0,0 mm 0,3 km/h (0 Bft) S-SO 163 ° 0 min 0,000 mm 0,0 UV-I 0 W/m² -5,6 °C 1,6 km/h (1 Bft)
11.12.2016 02:40 -2,5 °C -2,4 °C 79 % 1023,2 hPa 0,0 mm 0,0 km/h (0 Bft) S-SO 163 ° 0 min 0,000 mm 0,0 UV-I 0 W/m² -5,6 °C 0,0 km/h (0 Bft)
11.12.2016 02:41 -2,5 °C -2,5 °C 80 % 1023,2 hPa 0,0 mm 0,5 km/h (0 Bft) S-SO 163 ° 0 min 0,000 mm 0,0 UV-I 0 W/m² -5,5 °C 1,6 km/h (1 Bft)
11.12.2016 02:42 -2,5 °C -2,5 °C 80 % 1023,2 hPa 0,0 mm 0,5 km/h (0 Bft) S-SO 163 ° 0 min 0,000 mm 0,0 UV-I 0 W/m² -5,5 °C 1,6 km/h (1 Bft)
11.12.2016 02:43 -2,6 °C -2,5 °C 80 % 1023,2 hPa 0,0 mm 0,4 km/h (0 Bft) S-SO 163 ° 0 min 0,000 mm 0,0 UV-I 0 W/m² -5,6 °C 1,6 km/h (1 Bft)
11.12.2016 02:44 -2,6 °C -2,6 °C 79 % 1023,2 hPa 0,0 mm 1,1 km/h (1 Bft) S-SO 163 ° 0 min 0,000 mm 0,0 UV-I 0 W/m² -5,7 °C 1,6 km/h (1 Bft)
11.12.2016 02:45 -2,6 °C -2,6 °C 79 % 1023,2 hPa 0,0 mm 0,1 km/h (0 Bft) S-SO 163 ° 0 min 0,000 mm 0,0 UV-I 0 W/m² -5,7 °C 1,6 km/h (1 Bft)
11.12.2016 02:46 -2,6 °C -2,6 °C 79 % 1023,2 hPa 0,0 mm 0,0 km/h (0 Bft) S-SO 163 ° 0 min 0,000 mm 0,0 UV-I 0 W/m² -5,7 °C 0,0 km/h (0 Bft)
11.12.2016 02:47 -2,6 °C -2,6 °C 79 % 1023,2 hPa 0,0 mm 0,0 km/h (0 Bft) S-SO 163 ° 0 min 0,000 mm 0,0 UV-I 0 W/m² -5,7 °C 0,0 km/h (0 Bft)
11.12.2016 02:48 -2,7 °C -2,6 °C 79 % 1023,2 hPa 0,0 mm 0,0 km/h (0 Bft) S-SO 163 ° 0 min 0,000 mm 0,0 UV-I 0 W/m² -5,8 °C 0,0 km/h (0 Bft)
11.12.2016 02:49 -2,6 °C -2,6 °C 79 % 1023,2 hPa 0,0 mm 0,0 km/h (0 Bft) S-SO 163 ° 0 min 0,000 mm 0,0 UV-I 0 W/m² -5,7 °C 0,0 km/h (0 Bft)
11.12.2016 02:50 -2,7 °C -2,6 °C 80 % 1023,2 hPa 0,0 mm 0,0 km/h (0 Bft) S-SO 163 ° 0 min 0,000 mm 0,0 UV-I 0 W/m² -5,7 °C 0,0 km/h (0 Bft)
11.12.2016 02:51 -2,7 °C -2,7 °C 80 % 1023,1 hPa 0,0 mm 0,0 km/h (0 Bft) S-SO 163 ° 0 min 0,000 mm 0,0 UV-I 0 W/m² -5,7 °C 0,0 km/h (0 Bft)
11.12.2016 02:52 -2,7 °C -2,7 °C 80 % 1023,1 hPa 0,0 mm 0,0 km/h (0 Bft) S-SO 163 ° 0 min 0,000 mm 0,0 UV-I 0 W/m² -5,7 °C 0,0 km/h (0 Bft)
11.12.2016 02:53 -2,7 °C -2,7 °C 80 % 1023,1 hPa 0,0 mm 0,0 km/h (0 Bft) S-SO 163 ° 0 min 0,000 mm 0,0 UV-I 0 W/m² -5,7 °C 0,0 km/h (0 Bft)
11.12.2016 02:54 -2,7 °C -2,7 °C 80 % 1023,0 hPa 0,0 mm 0,0 km/h (0 Bft) S-SO 163 ° 0 min 0,000 mm 0,0 UV-I 0 W/m² -5,7 °C 0,0 km/h (0 Bft)
11.12.2016 02:55 -2,7 °C -2,7 °C 81 % 1023,0 hPa 0,0 mm 1,5 km/h (1 Bft) S-SO 163 ° 0 min 0,000 mm 0,0 UV-I 0 W/m² -5,5 °C 3,2 km/h (1 Bft)
11.12.2016 02:56 -2,7 °C -2,7 °C 82 % 1022,9 hPa 0,0 mm 3,6 km/h (1 Bft) S-SO 164 ° 0 min 0,000 mm 0,0 UV-I 0 W/m² -5,3 °C 6,4 km/h (2 Bft)
11.12.2016 02:57 -2,6 °C -2,6 °C 83 % 1022,9 hPa 0,0 mm 3,6 km/h (1 Bft) S-SO 164 ° 0 min 0,000 mm 0,0 UV-I 0 W/m² -5,1 °C 6,4 km/h (2 Bft)
11.12.2016 02:58 -2,6 °C -2,6 °C 83 % 1022,9 hPa 0,0 mm 5,2 km/h (1 Bft) S-SO 164 ° 0 min 0,000 mm 0,0 UV-I 0 W/m² -5,1 °C 8,0 km/h (2 Bft)
11.12.2016 02:59 -2,4 °C -2,4 °C 82 % 1022,9 hPa 0,0 mm 2,5 km/h (1 Bft) S-SO 164 ° 0 min 0,000 mm 0,0 UV-I 0 W/m² -5,0 °C 6,4 km/h (2 Bft)
11.12.2016 03:00 -2,4 °C -2,4 °C 82 % 1022,8 hPa 0,0 mm 1,7 km/h (1 Bft) S-SO 164 ° 0 min 0,000 mm 0,0 UV-I 0 W/m² -5,0 °C 3,2 km/h (1 Bft)
11.12.2016 03:01 -2,2 °C -2,2 °C 82 % 1022,8 hPa 0,0 mm 2,3 km/h (1 Bft) S-SO 164 ° 0 min 0,000 mm 0,0 UV-I 0 W/m² -4,8 °C 3,2 km/h (1 Bft)
11.12.2016 03:02 -2,1 °C -2,1 °C 82 % 1022,7 hPa 0,0 mm 3,7 km/h (1 Bft) S-SO 164 ° 0 min 0,000 mm 0,0 UV-I 0 W/m² -4,7 °C 6,4 km/h (2 Bft)
11.12.2016 03:03 -1,9 °C -1,9 °C 81 % 1022,7 hPa 0,0 mm 3,4 km/h (1 Bft) S-SO 164 ° 0 min 0,000 mm 0,0 UV-I 0 W/m² -4,7 °C 6,4 km/h (2 Bft)
11.12.2016 03:04 -1,8 °C -1,8 °C 81 % 1022,7 hPa 0,0 mm 4,6 km/h (1 Bft) S-SO 164 ° 0 min 0,000 mm 0,0 UV-I 0 W/m² -4,6 °C 6,4 km/h (2 Bft)
11.12.2016 03:05 -1,6 °C -1,6 °C 80 % 1022,7 hPa 0,0 mm 5,5 km/h (1 Bft) S-SO 164 ° 0 min 0,000 mm 0,0 UV-I 0 W/m² -4,6 °C 6,4 km/h (2 Bft)
11.12.2016 03:06 -1,5 °C -1,5 °C 79 % 1022,7 hPa 0,0 mm 4,0 km/h (1 Bft) S-SO 164 ° 0 min 0,000 mm 0,0 UV-I 0 W/m² -4,7 °C 6,4 km/h (2 Bft)
11.12.2016 03:07 -1,3 °C -1,3 °C 78 % 1022,7 hPa 0,0 mm 3,1 km/h (1 Bft) S-SO 164 ° 0 min 0,000 mm 0,0 UV-I 0 W/m² -4,6 °C 6,4 km/h (2 Bft)
11.12.2016 03:08 -1,2 °C -1,2 °C 77 % 1022,7 hPa 0,0 mm 0,6 km/h (0 Bft) S-SO 164 ° 0 min 0,000 mm 0,0 UV-I 0 W/m² -4,7 °C 3,2 km/h (1 Bft)
11.12.2016 03:09 -1,1 °C -1,1 °C 77 % 1022,7 hPa 0,0 mm 1,7 km/h (1 Bft) W 265 ° 0 min 0,000 mm 0,0 UV-I 0 W/m² -4,6 °C 3,2 km/h (1 Bft)
11.12.2016 03:10 -1,1 °C -1,0 °C 76 % 1022,6 hPa 0,0 mm 2,5 km/h (1 Bft) W 270 ° 0 min 0,000 mm 0,0 UV-I 0 W/m² -4,8 °C 3,2 km/h (1 Bft)
11.12.2016 03:11 -1,1 °C -1,0 °C 76 % 1022,6 hPa 0,0 mm 1,3 km/h (1 Bft) W 270 ° 0 min 0,000 mm 0,0 UV-I 0 W/m² -4,8 °C 3,2 km/h (1 Bft)
11.12.2016 03:12 -1,1 °C -1,1 °C 75 % 1022,7 hPa 0,0 mm 1,7 km/h (1 Bft) W 270 ° 0 min 0,000 mm 0,0 UV-I 0 W/m² -5,0 °C 3,2 km/h (1 Bft)
11.12.2016 03:13 -1,2 °C -1,1 °C 75 % 1022,7 hPa 0,0 mm 1,1 km/h (1 Bft) W 270 ° 0 min 0,000 mm 0,0 UV-I 0 W/m² -5,0 °C 3,2 km/h (1 Bft)
11.12.2016 03:14 -1,2 °C -1,2 °C 75 % 1022,7 hPa 0,0 mm 0,5 km/h (0 Bft) W 270 ° 0 min 0,000 mm 0,0 UV-I 0 W/m² -5,0 °C 1,6 km/h (1 Bft)
11.12.2016 03:15 -1,2 °C -1,2 °C 75 % 1022,8 hPa 0,0 mm 1,3 km/h (1 Bft) W-SW 242 ° 0 min 0,000 mm 0,0 UV-I 0 W/m² -5,0 °C 1,6 km/h (1 Bft)
11.12.2016 03:16 -1,2 °C -1,2 °C 75 % 1022,7 hPa 0,0 mm 1,5 km/h (1 Bft) W-SW 242 ° 0 min 0,000 mm 0,0 UV-I 0 W/m² -5,0 °C 3,2 km/h (1 Bft)
11.12.2016 03:17 -1,1 °C -1,1 °C 75 % 1022,8 hPa 0,0 mm 1,8 km/h (1 Bft) W-SW 242 ° 0 min 0,000 mm 0,0 UV-I 0 W/m² -5,0 °C 3,2 km/h (1 Bft)
11.12.2016 03:18 -1,2 °C -1,1 °C 74 % 1022,7 hPa 0,0 mm 2,1 km/h (1 Bft) W-SW 242 ° 0 min 0,000 mm 0,0 UV-I 0 W/m² -5,2 °C 3,2 km/h (1 Bft)
11.12.2016 03:19 -1,2 °C -1,2 °C 74 % 1022,7 hPa 0,0 mm 0,9 km/h (0 Bft) W-SW 242 ° 0 min 0,000 mm 0,0 UV-I 0 W/m² -5,2 °C 3,2 km/h (1 Bft)
11.12.2016 03:20 -1,1 °C -1,1 °C 75 % 1022,6 hPa 0,0 mm 0,0 km/h (0 Bft) W-SW 242 ° 0 min 0,000 mm 0,0 UV-I 0 W/m² -5,0 °C 0,0 km/h (0 Bft)
11.12.2016 03:21 -1,2 °C -1,1 °C 76 % 1022,6 hPa 0,0 mm 0,5 km/h (0 Bft) W-SW 242 ° 0 min 0,000 mm 0,0 UV-I 0 W/m² -4,9 °C 1,6 km/h (1 Bft)
11.12.2016 03:22 -1,2 °C -1,2 °C 76 % 1022,7 hPa 0,0 mm 1,5 km/h (1 Bft) W-SW 242 ° 0 min 0,000 mm 0,0 UV-I 0 W/m² -4,9 °C 1,6 km/h (1 Bft)
11.12.2016 03:23 -1,2 °C -1,2 °C 76 % 1022,6 hPa 0,0 mm 1,6 km/h (1 Bft) W-SW 242 ° 0 min 0,000 mm 0,0 UV-I 0 W/m² -4,9 °C 3,2 km/h (1 Bft)
11.12.2016 03:24 -1,2 °C -1,2 °C 76 % 1022,6 hPa 0,0 mm 0,4 km/h (0 Bft) W-SW 242 ° 0 min 0,000 mm 0,0 UV-I 0 W/m² -4,9 °C 1,6 km/h (1 Bft)
11.12.2016 03:25 -1,2 °C -1,2 °C 75 % 1022,6 hPa 0,0 mm 0,1 km/h (0 Bft) W-SW 242 ° 0 min 0,000 mm 0,0 UV-I 0 W/m² -5,0 °C 1,6 km/h (1 Bft)
11.12.2016 03:26 -1,2 °C -1,2 °C 75 % 1022,6 hPa 0,0 mm 0,2 km/h (0 Bft) W-SW 242 ° 0 min 0,000 mm 0,0 UV-I 0 W/m² -5,0 °C 1,6 km/h (1 Bft)
11.12.2016 03:27 -1,3 °C -1,2 °C 75 % 1022,5 hPa 0,0 mm 0,1 km/h (0 Bft) W-SW 242 ° 0 min 0,000 mm 0,0 UV-I 0 W/m² -5,1 °C 1,6 km/h (1 Bft)
11.12.2016 03:28 -1,3 °C -1,2 °C 75 % 1022,5 hPa 0,0 mm 0,1 km/h (0 Bft) W-SW 242 ° 0 min 0,000 mm 0,0 UV-I 0 W/m² -5,1 °C 1,6 km/h (1 Bft)
11.12.2016 03:29 -1,3 °C -1,3 °C 76 % 1022,6 hPa 0,0 mm 0,0 km/h (0 Bft) W-SW 242 ° 0 min 0,000 mm 0,0 UV-I 0 W/m² -5,0 °C 0,0 km/h (0 Bft)
11.12.2016 03:30 -1,3 °C -1,3 °C 76 % 1022,6 hPa 0,0 mm 0,0 km/h (0 Bft) W-SW 242 ° 0 min 0,000 mm 0,0 UV-I 0 W/m² -5,0 °C 0,0 km/h (0 Bft)
11.12.2016 03:31 -1,3 °C -1,3 °C 75 % 1022,6 hPa 0,0 mm 0,0 km/h (0 Bft) W-SW 242 ° 0 min 0,000 mm 0,0 UV-I 0 W/m² -5,1 °C 0,0 km/h (0 Bft)
11.12.2016 03:32 -1,4 °C -1,3 °C 75 % 1022,5 hPa 0,0 mm 0,0 km/h (0 Bft) W-SW 242 ° 0 min 0,000 mm 0,0 UV-I 0 W/m² -5,2 °C 0,0 km/h (0 Bft)
11.12.2016 03:33 -1,4 °C -1,4 °C 75 % 1022,6 hPa 0,0 mm 0,5 km/h (0 Bft) W-SW 242 ° 0 min 0,000 mm 0,0 UV-I 0 W/m² -5,2 °C 1,6 km/h (1 Bft)
11.12.2016 03:34 -1,4 °C -1,4 °C 75 % 1022,6 hPa 0,0 mm 0,9 km/h (0 Bft) W-SW 242 ° 0 min 0,000 mm 0,0 UV-I 0 W/m² -5,2 °C 1,6 km/h (1 Bft)
11.12.2016 03:35 -1,5 °C -1,4 °C 75 % 1022,5 hPa 0,0 mm 0,0 km/h (0 Bft) W-SW 242 ° 0 min 0,000 mm 0,0 UV-I 0 W/m² -5,3 °C 0,0 km/h (0 Bft)
11.12.2016 03:36 -1,6 °C -1,5 °C 74 % 1022,6 hPa 0,0 mm 0,0 km/h (0 Bft) W-SW 242 ° 0 min 0,000 mm 0,0 UV-I 0 W/m² -5,6 °C 0,0 km/h (0 Bft)
11.12.2016 03:37 -1,6 °C -1,6 °C 74 % 1022,6 hPa 0,0 mm 0,0 km/h (0 Bft) W-SW 242 ° 0 min 0,000 mm 0,0 UV-I 0 W/m² -5,6 °C 0,0 km/h (0 Bft)
11.12.2016 03:38 -1,7 °C -1,6 °C 75 % 1022,6 hPa 0,0 mm 0,2 km/h (0 Bft) W-SW 242 ° 0 min 0,000 mm 0,0 UV-I 0 W/m² -5,5 °C 1,6 km/h (1 Bft)
11.12.2016 03:39 -1,7 °C -1,6 °C 75 % 1022,6 hPa 0,0 mm 3,0 km/h (1 Bft) S 169 ° 0 min 0,000 mm 0,0 UV-I 0 W/m² -5,5 °C 4,8 km/h (1 Bft)
11.12.2016 03:40 -1,7 °C -1,7 °C 75 % 1022,6 hPa 0,0 mm 5,5 km/h (1 Bft) S-SO 167 ° 0 min 0,000 mm 0,0 UV-I 0 W/m² -5,5 °C 6,4 km/h (2 Bft)
11.12.2016 03:41 -1,8 °C -1,7 °C 76 % 1022,5 hPa 0,0 mm 4,5 km/h (1 Bft) S-SO 167 ° 0 min 0,000 mm 0,0 UV-I 0 W/m² -5,5 °C 6,4 km/h (2 Bft)
11.12.2016 03:42 -1,8 °C -1,8 °C 77 % 1022,5 hPa 0,0 mm 0,9 km/h (0 Bft) S-SO 167 ° 0 min 0,000 mm 0,0 UV-I 0 W/m² -5,3 °C 4,8 km/h (1 Bft)
11.12.2016 03:43 -1,8 °C -1,8 °C 77 % 1022,5 hPa 0,0 mm 0,4 km/h (0 Bft) S-SO 167 ° 0 min 0,000 mm 0,0 UV-I 0 W/m² -5,3 °C 1,6 km/h (1 Bft)
11.12.2016 03:44 -1,8 °C -1,8 °C 76 % 1022,5 hPa 0,0 mm 0,3 km/h (0 Bft) S-SO 167 ° 0 min 0,000 mm 0,0 UV-I 0 W/m² -5,5 °C 1,6 km/h (1 Bft)
11.12.2016 03:45 -1,8 °C -1,8 °C 76 % 1022,4 hPa 0,0 mm 0,1 km/h (0 Bft) S-SO 167 ° 0 min 0,000 mm 0,0 UV-I 0 W/m² -5,5 °C 1,6 km/h (1 Bft)
11.12.2016 03:46 -1,8 °C -1,8 °C 76 % 1022,4 hPa 0,0 mm 2,4 km/h (1 Bft) S-SO 167 ° 0 min 0,000 mm 0,0 UV-I 0 W/m² -5,5 °C 4,8 km/h (1 Bft)
11.12.2016 03:47 -1,9 °C -1,8 °C 76 % 1022,5 hPa 0,0 mm 2,6 km/h (1 Bft) W-NW 294 ° 0 min 0,000 mm 0,0 UV-I 0 W/m² -5,6 °C 4,8 km/h (1 Bft)
11.12.2016 03:48 -1,9 °C -1,8 °C 76 % 1022,5 hPa 0,0 mm 0,6 km/h (0 Bft) W-NW 294 ° 0 min 0,000 mm 0,0 UV-I 0 W/m² -5,6 °C 1,6 km/h (1 Bft)
11.12.2016 03:49 -1,9 °C -1,9 °C 76 % 1022,4 hPa 0,0 mm 1,3 km/h (1 Bft) W-NW 294 ° 0 min 0,000 mm 0,0 UV-I 0 W/m² -5,6 °C 3,2 km/h (1 Bft)
11.12.2016 03:50 -1,9 °C -1,9 °C 76 % 1022,4 hPa 0,0 mm 1,3 km/h (1 Bft) W-NW 294 ° 0 min 0,000 mm 0,0 UV-I 0 W/m² -5,6 °C 1,6 km/h (1 Bft)
11.12.2016 03:51 -1,9 °C -1,9 °C 76 % 1022,3 hPa 0,0 mm 0,5 km/h (0 Bft) W-NW 294 ° 0 min 0,000 mm 0,0 UV-I 0 W/m² -5,6 °C 1,6 km/h (1 Bft)
11.12.2016 03:52 -1,9 °C -1,9 °C 76 % 1022,4 hPa 0,0 mm 1,1 km/h (1 Bft) W-NW 294 ° 0 min 0,000 mm 0,0 UV-I 0 W/m² -5,6 °C 1,6 km/h (1 Bft)
11.12.2016 03:53 -2,0 °C -1,9 °C 76 % 1022,4 hPa 0,0 mm 0,0 km/h (0 Bft) W-NW 294 ° 0 min 0,000 mm 0,0 UV-I 0 W/m² -5,6 °C 0,0 km/h (0 Bft)
11.12.2016 03:54 -2,1 °C -2,0 °C 76 % 1022,4 hPa 0,0 mm 2,3 km/h (1 Bft) W-NW 294 ° 0 min 0,000 mm 0,0 UV-I 0 W/m² -5,7 °C 4,8 km/h (1 Bft)
11.12.2016 03:55 -2,1 °C -2,0 °C 76 % 1022,4 hPa 0,0 mm 4,4 km/h (1 Bft) SO 132 ° 0 min 0,000 mm 0,0 UV-I 0 W/m² -5,7 °C 4,8 km/h (1 Bft)
11.12.2016 03:56 -2,1 °C -2,1 °C 77 % 1022,4 hPa 0,0 mm 2,1 km/h (1 Bft) O 89 ° 0 min 0,000 mm 0,0 UV-I 0 W/m² -5,6 °C 4,8 km/h (1 Bft)
11.12.2016 03:57 -2,1 °C -2,1 °C 76 % 1022,4 hPa 0,0 mm 1,3 km/h (1 Bft) O 89 ° 0 min 0,000 mm 0,0 UV-I 0 W/m² -5,7 °C 1,6 km/h (1 Bft)
11.12.2016 03:58 -2,2 °C -2,1 °C 76 % 1022,4 hPa 0,0 mm 1,3 km/h (1 Bft) O 89 ° 0 min 0,000 mm 0,0 UV-I 0 W/m² -5,8 °C 3,2 km/h (1 Bft)
11.12.2016 03:59 -2,2 °C -2,2 °C 76 % 1022,4 hPa 0,0 mm 0,1 km/h (0 Bft) O 89 ° 0 min 0,000 mm 0,0 UV-I 0 W/m² -5,8 °C 1,6 km/h (1 Bft)
11.12.2016 04:00 -2,2 °C -2,2 °C 76 % 1022,4 hPa 0,0 mm 0,2 km/h (0 Bft) O 89 ° 0 min 0,000 mm 0,0 UV-I 0 W/m² -5,8 °C 1,6 km/h (1 Bft)
11.12.2016 04:02 -2,2 °C -2,2 °C 76 % 1022,4 hPa 0,0 mm 1,3 km/h (1 Bft) O 89 ° 0 min 0,000 mm 0,0 UV-I 0 W/m² -5,8 °C 3,2 km/h (1 Bft)
11.12.2016 04:03 -2,3 °C -2,2 °C 76 % 1022,4 hPa 0,0 mm 0,7 km/h (0 Bft) O 89 ° 0 min 0,000 mm 0,0 UV-I 0 W/m² -5,9 °C 1,6 km/h (1 Bft)
11.12.2016 04:04 -2,3 °C -2,3 °C 77 % 1022,4 hPa 0,0 mm 1,8 km/h (1 Bft) O 89 ° 0 min 0,000 mm 0,0 UV-I 0 W/m² -5,8 °C 3,2 km/h (1 Bft)
11.12.2016 04:05 -2,3 °C -2,3 °C 77 % 1022,4 hPa 0,0 mm 1,6 km/h (1 Bft) O 89 ° 0 min 0,000 mm 0,0 UV-I 0 W/m² -5,8 °C 3,2 km/h (1 Bft)
11.12.2016 04:06 -2,4 °C -2,3 °C 77 % 1022,5 hPa 0,0 mm 0,4 km/h (0 Bft) O 89 ° 0 min 0,000 mm 0,0 UV-I 0 W/m² -5,9 °C 1,6 km/h (1 Bft)
11.12.2016 04:07 -2,4 °C -2,4 °C 77 % 1022,4 hPa 0,0 mm 0,5 km/h (0 Bft) O 89 ° 0 min 0,000 mm 0,0 UV-I 0 W/m² -5,9 °C 3,2 km/h (1 Bft)
11.12.2016 04:08 -2,4 °C -2,4 °C 77 % 1022,5 hPa 0,0 mm 2,0 km/h (1 Bft) NO 41 ° 0 min 0,000 mm 0,0 UV-I 0 W/m² -5,9 °C 4,8 km/h (1 Bft)
11.12.2016 04:09 -2,5 °C -2,4 °C 77 % 1022,5 hPa 0,0 mm 0,0 km/h (0 Bft) NO 41 ° 0 min 0,000 mm 0,0 UV-I 0 W/m² -6,0 °C 0,0 km/h (0 Bft)
11.12.2016 04:10 -2,5 °C -2,5 °C 77 % 1022,5 hPa 0,0 mm 0,0 km/h (0 Bft) NO 41 ° 0 min 0,000 mm 0,0 UV-I 0 W/m² -6,0 °C 0,0 km/h (0 Bft)
11.12.2016 04:11 -2,6 °C -2,5 °C 78 % 1022,4 hPa 0,0 mm 0,0 km/h (0 Bft) NO 41 ° 0 min 0,000 mm 0,0 UV-I 0 W/m² -5,9 °C 0,0 km/h (0 Bft)
11.12.2016 04:12 -2,6 °C -2,6 °C 77 % 1022,4 hPa 0,0 mm 0,8 km/h (0 Bft) NO 42 ° 0 min 0,000 mm 0,0 UV-I 0 W/m² -6,1 °C 3,2 km/h (1 Bft)
11.12.2016 04:13 -2,6 °C -2,6 °C 78 % 1022,5 hPa 0,0 mm 0,5 km/h (0 Bft) NO 42 ° 0 min 0,000 mm 0,0 UV-I 0 W/m² -5,9 °C 1,6 km/h (1 Bft)
11.12.2016 04:14 -2,6 °C -2,6 °C 78 % 1022,5 hPa 0,0 mm 0,0 km/h (0 Bft) NO 41 ° 0 min 0,000 mm 0,0 UV-I 0 W/m² -5,9 °C 0,0 km/h (0 Bft)
11.12.2016 04:15 -2,7 °C -2,6 °C 78 % 1022,5 hPa 0,0 mm 0,0 km/h (0 Bft) NO 42 ° 0 min 0,000 mm 0,0 UV-I 0 W/m² -6,0 °C 0,0 km/h (0 Bft)
11.12.2016 04:16 -2,7 °C -2,7 °C 78 % 1022,5 hPa 0,0 mm 0,0 km/h (0 Bft) NO 42 ° 0 min 0,000 mm 0,0 UV-I 0 W/m² -6,0 °C 0,0 km/h (0 Bft)
11.12.2016 04:17 -2,7 °C -2,7 °C 78 % 1022,5 hPa 0,0 mm 0,0 km/h (0 Bft) NO 42 ° 0 min 0,000 mm 0,0 UV-I 0 W/m² -6,0 °C 0,0 km/h (0 Bft)
11.12.2016 04:18 -2,8 °C -2,7 °C 78 % 1022,5 hPa 0,0 mm 0,0 km/h (0 Bft) NO 42 ° 0 min 0,000 mm 0,0 UV-I 0 W/m² -6,1 °C 0,0 km/h (0 Bft)
11.12.2016 04:19 -2,8 °C -2,8 °C 78 % 1022,5 hPa 0,0 mm 0,0 km/h (0 Bft) NO 42 ° 0 min 0,000 mm 0,0 UV-I 0 W/m² -6,1 °C 0,0 km/h (0 Bft)
11.12.2016 04:20 -2,8 °C -2,8 °C 78 % 1022,5 hPa 0,0 mm 0,0 km/h (0 Bft) NO 42 ° 0 min 0,000 mm 0,0 UV-I 0 W/m² -6,1 °C 0,0 km/h (0 Bft)
11.12.2016 04:21 -2,8 °C -2,8 °C 78 % 1022,5 hPa 0,0 mm 0,0 km/h (0 Bft) NO 42 ° 0 min 0,000 mm 0,0 UV-I 0 W/m² -6,1 °C 0,0 km/h (0 Bft)
11.12.2016 04:22 -2,8 °C -2,8 °C 78 % 1022,5 hPa 0,0 mm 0,0 km/h (0 Bft) NO 42 ° 0 min 0,000 mm 0,0 UV-I 0 W/m² -6,1 °C 0,0 km/h (0 Bft)
11.12.2016 04:23 -2,9 °C -2,8 °C 78 % 1022,6 hPa 0,0 mm 0,0 km/h (0 Bft) NO 42 ° 0 min 0,000 mm 0,0 UV-I 0 W/m² -6,2 °C 0,0 km/h (0 Bft)
11.12.2016 04:24 -2,9 °C -2,9 °C 78 % 1022,5 hPa 0,0 mm 0,0 km/h (0 Bft) NO 42 ° 0 min 0,000 mm 0,0 UV-I 0 W/m² -6,2 °C 0,0 km/h (0 Bft)
11.12.2016 04:25 -2,9 °C -2,9 °C 78 % 1022,5 hPa 0,0 mm 0,0 km/h (0 Bft) NO 42 ° 0 min 0,000 mm 0,0 UV-I 0 W/m² -6,2 °C 0,0 km/h (0 Bft)
11.12.2016 04:26 -2,9 °C -2,9 °C 78 % 1022,5 hPa 0,0 mm 0,0 km/h (0 Bft) NO 42 ° 0 min 0,000 mm 0,0 UV-I 0 W/m² -6,2 °C 0,0 km/h (0 Bft)
11.12.2016 04:27 -2,9 °C -2,9 °C 79 % 1022,5 hPa 0,0 mm 0,5 km/h (0 Bft) NO 42 ° 0 min 0,000 mm 0,0 UV-I 0 W/m² -6,0 °C 1,6 km/h (1 Bft)
11.12.2016 04:28 -2,9 °C -2,9 °C 79 % 1022,5 hPa 0,0 mm 2,5 km/h (1 Bft) S-SO 161 ° 0 min 0,000 mm 0,0 UV-I 0 W/m² -6,0 °C 3,2 km/h (1 Bft)
11.12.2016 04:29 -2,9 °C -2,9 °C 79 % 1022,5 hPa 0,0 mm 2,5 km/h (1 Bft) S 175 ° 0 min 0,000 mm 0,0 UV-I 0 W/m² -6,0 °C 4,8 km/h (1 Bft)
11.12.2016 04:30 -2,8 °C -2,8 °C 79 % 1022,6 hPa 0,0 mm 1,8 km/h (1 Bft) S 175 ° 0 min 0,000 mm 0,0 UV-I 0 W/m² -5,9 °C 3,2 km/h (1 Bft)
11.12.2016 04:31 -2,7 °C -2,7 °C 79 % 1022,5 hPa 0,0 mm 0,9 km/h (0 Bft) S 175 ° 0 min 0,000 mm 0,0 UV-I 0 W/m² -5,8 °C 3,2 km/h (1 Bft)
11.12.2016 04:32 -2,6 °C -2,6 °C 79 % 1022,5 hPa 0,0 mm 0,1 km/h (0 Bft) S 175 ° 0 min 0,000 mm 0,0 UV-I 0 W/m² -5,7 °C 1,6 km/h (1 Bft)
11.12.2016 04:33 -2,6 °C -2,6 °C 79 % 1022,6 hPa 0,0 mm 0,3 km/h (0 Bft) S 175 ° 0 min 0,000 mm 0,0 UV-I 0 W/m² -5,7 °C 1,6 km/h (1 Bft)
11.12.2016 04:34 -2,6 °C -2,6 °C 79 % 1022,6 hPa 0,0 mm 0,4 km/h (0 Bft) S 175 ° 0 min 0,000 mm 0,0 UV-I 0 W/m² -5,7 °C 1,6 km/h (1 Bft)
11.12.2016 04:35 -2,5 °C -2,5 °C 79 % 1022,6 hPa 0,0 mm 0,0 km/h (0 Bft) S 175 ° 0 min 0,000 mm 0,0 UV-I 0 W/m² -5,6 °C 0,0 km/h (0 Bft)
11.12.2016 04:36 -2,5 °C -2,5 °C 79 % 1022,6 hPa 0,0 mm 0,0 km/h (0 Bft) S 175 ° 0 min 0,000 mm 0,0 UV-I 0 W/m² -5,6 °C 0,0 km/h (0 Bft)
11.12.2016 04:37 -2,5 °C -2,5 °C 78 % 1022,6 hPa 0,0 mm 0,0 km/h (0 Bft) S 175 ° 0 min 0,000 mm 0,0 UV-I 0 W/m² -5,8 °C 0,0 km/h (0 Bft)
11.12.2016 04:38 -2,5 °C -2,5 °C 77 % 1022,7 hPa 0,0 mm 0,0 km/h (0 Bft) S 175 ° 0 min 0,000 mm 0,0 UV-I 0 W/m² -6,0 °C 0,0 km/h (0 Bft)
11.12.2016 04:39 -2,5 °C -2,5 °C 77 % 1022,8 hPa 0,0 mm 0,0 km/h (0 Bft) S 175 ° 0 min 0,000 mm 0,0 UV-I 0 W/m² -6,0 °C 0,0 km/h (0 Bft)
11.12.2016 04:40 -2,5 °C -2,5 °C 77 % 1022,8 hPa 0,0 mm 0,0 km/h (0 Bft) S 175 ° 0 min 0,000 mm 0,0 UV-I 0 W/m² -6,0 °C 0,0 km/h (0 Bft)
11.12.2016 04:41 -2,5 °C -2,5 °C 77 % 1022,8 hPa 0,0 mm 0,0 km/h (0 Bft) S 175 ° 0 min 0,000 mm 0,0 UV-I 0 W/m² -6,0 °C 0,0 km/h (0 Bft)
11.12.2016 04:42 -2,5 °C -2,5 °C 77 % 1022,8 hPa 0,0 mm 0,0 km/h (0 Bft) S 175 ° 0 min 0,000 mm 0,0 UV-I 0 W/m² -6,0 °C 0,0 km/h (0 Bft)
11.12.2016 04:43 -2,6 °C -2,5 °C 77 % 1022,8 hPa 0,0 mm 0,0 km/h (0 Bft) S 175 ° 0 min 0,000 mm 0,0 UV-I 0 W/m² -6,1 °C 0,0 km/h (0 Bft)
11.12.2016 04:44 -2,6 °C -2,6 °C 77 % 1022,8 hPa 0,0 mm 0,4 km/h (0 Bft) S 175 ° 0 min 0,000 mm 0,0 UV-I 0 W/m² -6,1 °C 1,6 km/h (1 Bft)
11.12.2016 04:45 -2,6 °C -2,5 °C 77 % 1022,8 hPa 0,0 mm 1,4 km/h (1 Bft) S 175 ° 0 min 0,000 mm 0,0 UV-I 0 W/m² -6,1 °C 1,6 km/h (1 Bft)
11.12.2016 04:46 -2,6 °C -2,5 °C 78 % 1022,8 hPa 0,0 mm 0,0 km/h (0 Bft) S 175 ° 0 min 0,000 mm 0,0 UV-I 0 W/m² -5,9 °C 0,0 km/h (0 Bft)
11.12.2016 04:47 -2,6 °C -2,6 °C 78 % 1022,8 hPa 0,0 mm 1,6 km/h (1 Bft) S 175 ° 0 min 0,000 mm 0,0 UV-I 0 W/m² -5,9 °C 3,2 km/h (1 Bft)
11.12.2016 04:48 -2,6 °C -2,6 °C 78 % 1022,8 hPa 0,0 mm 0,7 km/h (0 Bft) S 175 ° 0 min 0,000 mm 0,0 UV-I 0 W/m² -5,9 °C 3,2 km/h (1 Bft)
11.12.2016 04:49 -2,7 °C -2,6 °C 77 % 1022,8 hPa 0,0 mm 0,4 km/h (0 Bft) S 175 ° 0 min 0,000 mm 0,0 UV-I 0 W/m² -6,2 °C 1,6 km/h (1 Bft)
11.12.2016 04:50 -2,7 °C -2,6 °C 78 % 1022,8 hPa 0,0 mm 0,1 km/h (0 Bft) S 175 ° 0 min 0,000 mm 0,0 UV-I 0 W/m² -6,0 °C 1,6 km/h (1 Bft)
11.12.2016 04:51 -2,7 °C -2,7 °C 78 % 1022,8 hPa 0,0 mm 2,1 km/h (1 Bft) S 175 ° 0 min 0,000 mm 0,0 UV-I 0 W/m² -6,0 °C 3,2 km/h (1 Bft)
11.12.2016 04:52 -2,7 °C -2,7 °C 78 % 1022,7 hPa 0,0 mm 2,0 km/h (1 Bft) S 175 ° 0 min 0,000 mm 0,0 UV-I 0 W/m² -6,0 °C 3,2 km/h (1 Bft)
11.12.2016 04:53 -2,7 °C -2,7 °C 79 % 1022,6 hPa 0,0 mm 0,2 km/h (0 Bft) S 175 ° 0 min 0,000 mm 0,0 UV-I 0 W/m² -5,8 °C 1,6 km/h (1 Bft)
11.12.2016 04:54 -2,8 °C -2,7 °C 79 % 1022,7 hPa 0,0 mm 0,0 km/h (0 Bft) S 175 ° 0 min 0,000 mm 0,0 UV-I 0 W/m² -5,9 °C 0,0 km/h (0 Bft)
11.12.2016 04:55 -2,8 °C -2,8 °C 79 % 1022,7 hPa 0,0 mm 0,4 km/h (0 Bft) S 175 ° 0 min 0,000 mm 0,0 UV-I 0 W/m² -5,9 °C 1,6 km/h (1 Bft)
11.12.2016 04:56 -2,8 °C -2,8 °C 79 % 1022,6 hPa 0,0 mm 0,3 km/h (0 Bft) S 175 ° 0 min 0,000 mm 0,0 UV-I 0 W/m² -5,9 °C 1,6 km/h (1 Bft)
11.12.2016 04:57 -2,8 °C -2,8 °C 79 % 1022,6 hPa 0,0 mm 2,5 km/h (1 Bft) W-NW 302 ° 0 min 0,000 mm 0,0 UV-I 0 W/m² -5,9 °C 3,2 km/h (1 Bft)
11.12.2016 04:58 -2,9 °C -2,8 °C 79 % 1022,6 hPa 0,0 mm 1,7 km/h (1 Bft) W-NW 302 ° 0 min 0,000 mm 0,0 UV-I 0 W/m² -6,0 °C 3,2 km/h (1 Bft)
11.12.2016 04:59 -2,9 °C -2,9 °C 79 % 1022,6 hPa 0,0 mm 0,4 km/h (0 Bft) W-NW 302 ° 0 min 0,000 mm 0,0 UV-I 0 W/m² -6,0 °C 1,6 km/h (1 Bft)
11.12.2016 05:00 -2,9 °C -2,9 °C 79 % 1022,6 hPa 0,0 mm 0,1 km/h (0 Bft) W-NW 302 ° 0 min 0,000 mm 0,0 UV-I 0 W/m² -6,0 °C 1,6 km/h (1 Bft)
11.12.2016 05:01 -3,0 °C -2,9 °C 79 % 1022,6 hPa 0,0 mm 1,4 km/h (1 Bft) S-SW 209 ° 0 min 0,000 mm 0,0 UV-I 0 W/m² -6,1 °C 4,8 km/h (1 Bft)
11.12.2016 05:02 -2,9 °C -2,9 °C 80 % 1022,6 hPa 0,0 mm 1,7 km/h (1 Bft) W-SW 238 ° 0 min 0,000 mm 0,0 UV-I 0 W/m² -5,9 °C 4,8 km/h (1 Bft)
11.12.2016 05:03 -3,0 °C -2,9 °C 80 % 1022,6 hPa 0,0 mm 2,1 km/h (1 Bft) W-SW 238 ° 0 min 0,000 mm 0,0 UV-I 0 W/m² -6,0 °C 3,2 km/h (1 Bft)
11.12.2016 05:04 -3,0 °C -3,0 °C 80 % 1022,6 hPa 0,0 mm 1,9 km/h (1 Bft) W-SW 238 ° 0 min 0,000 mm 0,0 UV-I 0 W/m² -6,0 °C 3,2 km/h (1 Bft)
11.12.2016 05:05 -3,0 °C -2,9 °C 80 % 1022,6 hPa 0,0 mm 1,2 km/h (1 Bft) W-SW 238 ° 0 min 0,000 mm 0,0 UV-I 0 W/m² -6,0 °C 1,6 km/h (1 Bft)
11.12.2016 05:06 -3,0 °C -3,0 °C 80 % 1022,6 hPa 0,0 mm 0,3 km/h (0 Bft) W-SW 238 ° 0 min 0,000 mm 0,0 UV-I 0 W/m² -6,0 °C 3,2 km/h (1 Bft)
11.12.2016 05:07 -3,1 °C -3,0 °C 80 % 1022,7 hPa 0,0 mm 2,0 km/h (1 Bft) O-NO 78 ° 0 min 0,000 mm 0,0 UV-I 0 W/m² -6,0 °C 4,8 km/h (1 Bft)
11.12.2016 05:08 -3,1 °C -3,1 °C 79 % 1022,7 hPa 0,0 mm 3,4 km/h (1 Bft) N-NO 17 ° 0 min 0,000 mm 0,0 UV-I 0 W/m² -6,2 °C 4,8 km/h (1 Bft)
11.12.2016 05:09 -3,1 °C -3,1 °C 80 % 1022,7 hPa 0,0 mm 1,7 km/h (1 Bft) N-NO 18 ° 0 min 0,000 mm 0,0 UV-I 0 W/m² -6,0 °C 3,2 km/h (1 Bft)
11.12.2016 05:10 -3,1 °C -3,1 °C 80 % 1022,7 hPa 0,0 mm 1,9 km/h (1 Bft) N-NO 18 ° 0 min 0,000 mm 0,0 UV-I 0 W/m² -6,0 °C 3,2 km/h (1 Bft)
11.12.2016 05:11 -3,1 °C -3,1 °C 80 % 1022,8 hPa 0,0 mm 0,6 km/h (0 Bft) N-NO 18 ° 0 min 0,000 mm 0,0 UV-I 0 W/m² -6,0 °C 1,6 km/h (1 Bft)
11.12.2016 05:12 -3,2 °C -3,1 °C 80 % 1022,8 hPa 0,0 mm 0,7 km/h (0 Bft) N-NO 18 ° 0 min 0,000 mm 0,0 UV-I 0 W/m² -6,1 °C 1,6 km/h (1 Bft)
11.12.2016 05:13 -3,2 °C -3,2 °C 80 % 1022,8 hPa 0,0 mm 0,7 km/h (0 Bft) N-NO 18 ° 0 min 0,000 mm 0,0 UV-I 0 W/m² -6,1 °C 1,6 km/h (1 Bft)
11.12.2016 05:14 -3,2 °C -3,2 °C 80 % 1022,8 hPa 0,0 mm 1,4 km/h (1 Bft) N-NO 19 ° 0 min 0,000 mm 0,0 UV-I 0 W/m² -6,1 °C 3,2 km/h (1 Bft)
11.12.2016 05:15 -3,2 °C -3,2 °C 80 % 1022,8 hPa 0,0 mm 1,4 km/h (1 Bft) N-NO 19 ° 0 min 0,000 mm 0,0 UV-I 0 W/m² -6,1 °C 3,2 km/h (1 Bft)
11.12.2016 05:16 -3,2 °C -3,2 °C 80 % 1022,9 hPa 0,0 mm 0,8 km/h (0 Bft) N-NO 19 ° 0 min 0,000 mm 0,0 UV-I 0 W/m² -6,1 °C 3,2 km/h (1 Bft)
11.12.2016 05:17 -3,2 °C -3,2 °C 80 % 1022,8 hPa 0,0 mm 2,1 km/h (1 Bft) N-NO 18 ° 0 min 0,000 mm 0,0 UV-I 0 W/m² -6,1 °C 3,2 km/h (1 Bft)
11.12.2016 05:18 -3,2 °C -3,2 °C 80 % 1022,9 hPa 0,0 mm 2,4 km/h (1 Bft) O-NO 76 ° 0 min 0,000 mm 0,0 UV-I 0 W/m² -6,1 °C 4,8 km/h (1 Bft)
11.12.2016 05:19 -3,2 °C -3,2 °C 80 % 1022,8 hPa 0,0 mm 2,4 km/h (1 Bft) O-NO 76 ° 0 min 0,000 mm 0,0 UV-I 0 W/m² -6,1 °C 3,2 km/h (1 Bft)
11.12.2016 05:20 -3,2 °C -3,2 °C 81 % 1022,8 hPa 0,0 mm 2,4 km/h (1 Bft) O-NO 76 ° 0 min 0,000 mm 0,0 UV-I 0 W/m² -6,0 °C 3,2 km/h (1 Bft)
11.12.2016 05:21 -3,3 °C -3,2 °C 80 % 1022,9 hPa 0,0 mm 2,7 km/h (1 Bft) O-NO 76 ° 0 min 0,000 mm 0,0 UV-I 0 W/m² -6,2 °C 4,8 km/h (1 Bft)
11.12.2016 05:22 -3,3 °C -3,3 °C 81 % 1022,8 hPa 0,0 mm 1,7 km/h (1 Bft) O-NO 76 ° 0 min 0,000 mm 0,0 UV-I 0 W/m² -6,1 °C 3,2 km/h (1 Bft)
11.12.2016 05:23 -3,3 °C -3,3 °C 80 % 1022,8 hPa 0,0 mm 1,3 km/h (1 Bft) O-NO 76 ° 0 min 0,000 mm 0,0 UV-I 0 W/m² -6,2 °C 3,2 km/h (1 Bft)
11.12.2016 05:24 -3,3 °C -3,3 °C 80 % 1022,8 hPa 0,0 mm 0,3 km/h (0 Bft) O-NO 76 ° 0 min 0,000 mm 0,0 UV-I 0 W/m² -6,2 °C 1,6 km/h (1 Bft)
11.12.2016 05:25 -3,3 °C -3,3 °C 80 % 1022,8 hPa 0,0 mm 1,9 km/h (1 Bft) O-NO 76 ° 0 min 0,000 mm 0,0 UV-I 0 W/m² -6,2 °C 3,2 km/h (1 Bft)
11.12.2016 05:26 -3,3 °C -3,3 °C 80 % 1022,8 hPa 0,0 mm 1,7 km/h (1 Bft) O-NO 76 ° 0 min 0,000 mm 0,0 UV-I 0 W/m² -6,2 °C 3,2 km/h (1 Bft)
11.12.2016 05:27 -3,3 °C -3,3 °C 80 % 1022,7 hPa 0,0 mm 2,1 km/h (1 Bft) O-NO 78 ° 0 min 0,000 mm 0,0 UV-I 0 W/m² -6,2 °C 4,8 km/h (1 Bft)
11.12.2016 05:28 -3,3 °C -3,3 °C 81 % 1022,7 hPa 0,0 mm 1,9 km/h (1 Bft) O-NO 78 ° 0 min 0,000 mm 0,0 UV-I 0 W/m² -6,1 °C 3,2 km/h (1 Bft)
11.12.2016 05:29 -3,3 °C -3,3 °C 81 % 1022,8 hPa 0,0 mm 2,2 km/h (1 Bft) O-NO 78 ° 0 min 0,000 mm 0,0 UV-I 0 W/m² -6,1 °C 3,2 km/h (1 Bft)
11.12.2016 05:30 -3,3 °C -3,3 °C 81 % 1022,8 hPa 0,0 mm 0,4 km/h (0 Bft) O-NO 78 ° 0 min 0,000 mm 0,0 UV-I 0 W/m² -6,1 °C 1,6 km/h (1 Bft)
11.12.2016 05:31 -3,3 °C -3,3 °C 81 % 1022,8 hPa 0,0 mm 2,3 km/h (1 Bft) O-NO 78 ° 0 min 0,000 mm 0,0 UV-I 0 W/m² -6,1 °C 3,2 km/h (1 Bft)
11.12.2016 05:32 -3,3 °C -3,3 °C 81 % 1022,8 hPa 0,0 mm 3,0 km/h (1 Bft) N-NW 331 ° 0 min 0,000 mm 0,0 UV-I 0 W/m² -6,1 °C 4,8 km/h (1 Bft)
11.12.2016 05:33 -3,3 °C -3,3 °C 81 % 1022,9 hPa 0,0 mm 2,0 km/h (1 Bft) N-NW 332 ° 0 min 0,000 mm 0,0 UV-I 0 W/m² -6,1 °C 3,2 km/h (1 Bft)
11.12.2016 05:34 -3,3 °C -3,3 °C 81 % 1022,9 hPa 0,0 mm 1,9 km/h (1 Bft) N-NW 332 ° 0 min 0,000 mm 0,0 UV-I 0 W/m² -6,1 °C 3,2 km/h (1 Bft)
11.12.2016 05:35 -3,3 °C -3,3 °C 81 % 1022,8 hPa 0,0 mm 0,8 km/h (0 Bft) N-NW 332 ° 0 min 0,000 mm 0,0 UV-I 0 W/m² -6,1 °C 1,6 km/h (1 Bft)
11.12.2016 05:36 -3,2 °C -3,2 °C 81 % 1022,9 hPa 0,0 mm 1,7 km/h (1 Bft) N-NW 332 ° 0 min 0,000 mm 0,0 UV-I 0 W/m² -6,0 °C 3,2 km/h (1 Bft)
11.12.2016 05:37 -3,2 °C -3,2 °C 81 % 1022,9 hPa 0,0 mm 1,1 km/h (1 Bft) N-NW 332 ° 0 min 0,000 mm 0,0 UV-I 0 W/m² -6,0 °C 3,2 km/h (1 Bft)
11.12.2016 05:38 -3,2 °C -3,2 °C 80 % 1022,8 hPa 0,0 mm 1,5 km/h (1 Bft) N-NW 332 ° 0 min 0,000 mm 0,0 UV-I 0 W/m² -6,1 °C 3,2 km/h (1 Bft)
11.12.2016 05:39 -3,1 °C -3,1 °C 80 % 1022,9 hPa 0,0 mm 2,4 km/h (1 Bft) W 278 ° 0 min 0,000 mm 0,0 UV-I 0 W/m² -6,0 °C 6,4 km/h (2 Bft)
11.12.2016 05:40 -3,1 °C -3,1 °C 80 % 1022,8 hPa 0,0 mm 2,0 km/h (1 Bft) W-SW 242 ° 0 min 0,000 mm 0,0 UV-I 0 W/m² -6,0 °C 3,2 km/h (1 Bft)
11.12.2016 05:41 -3,1 °C -3,1 °C 80 % 1022,8 hPa 0,0 mm 3,6 km/h (1 Bft) W 277 ° 0 min 0,000 mm 0,0 UV-I 0 W/m² -6,0 °C 11,3 km/h (2 Bft)
11.12.2016 05:42 -3,1 °C -3,0 °C 80 % 1022,8 hPa 0,0 mm 6,8 km/h (2 Bft) W-SW 257 ° 0 min 0,000 mm 0,0 UV-I 0 W/m² -6,0 °C 12,9 km/h (3 Bft)
11.12.2016 05:43 -3,0 °C -2,9 °C 80 % 1022,9 hPa 0,0 mm 4,0 km/h (1 Bft) W-SW 250 ° 0 min 0,000 mm 0,0 UV-I 0 W/m² -6,0 °C 8,0 km/h (2 Bft)
11.12.2016 05:44 -2,9 °C -2,9 °C 80 % 1022,9 hPa 0,0 mm 7,5 km/h (2 Bft) W-SW 256 ° 0 min 0,000 mm 0,0 UV-I 0 W/m² -5,9 °C 14,5 km/h (3 Bft)
11.12.2016 05:45 -2,9 °C -2,9 °C 80 % 1022,9 hPa 0,0 mm 8,2 km/h (2 Bft) W-NW 292 ° 0 min 0,000 mm 0,0 UV-I 0 W/m² -5,9 °C 17,7 km/h (3 Bft)
11.12.2016 05:46 -2,8 °C -2,8 °C 80 % 1022,9 hPa 0,0 mm 9,7 km/h (2 Bft) W 274 ° 0 min 0,000 mm 0,0 UV-I 0 W/m² -5,8 °C 12,9 km/h (3 Bft)
11.12.2016 05:47 -2,7 °C -2,7 °C 80 % 1022,9 hPa 0,0 mm 8,9 km/h (2 Bft) W-SW 251 ° 0 min 0,000 mm 0,0 UV-I 0 W/m² -5,7 °C 16,1 km/h (3 Bft)
11.12.2016 05:48 -2,6 °C -2,6 °C 80 % 1023,0 hPa 0,0 mm 8,7 km/h (2 Bft) W 263 ° 0 min 0,000 mm 0,0 UV-I 0 W/m² -5,6 °C 14,5 km/h (3 Bft)
11.12.2016 05:49 -2,3 °C -2,3 °C 80 % 1023,0 hPa 0,0 mm 6,6 km/h (2 Bft) W-NW 286 ° 0 min 0,000 mm 0,0 UV-I 0 W/m² -5,3 °C 14,5 km/h (3 Bft)
11.12.2016 05:50 -2,2 °C -2,2 °C 79 % 1023,0 hPa 0,0 mm 8,6 km/h (2 Bft) W 281 ° 0 min 0,000 mm 0,0 UV-I 0 W/m² -5,3 °C 11,3 km/h (2 Bft)
11.12.2016 05:51 -2,1 °C -2,1 °C 78 % 1023,0 hPa 0,0 mm 6,0 km/h (2 Bft) W 261 ° 0 min 0,000 mm 0,0 UV-I 0 W/m² -5,4 °C 9,7 km/h (2 Bft)
11.12.2016 05:52 -1,8 °C -1,8 °C 77 % 1023,0 hPa 0,0 mm 9,4 km/h (2 Bft) W 261 ° 0 min 0,000 mm 0,0 UV-I 0 W/m² -5,3 °C 12,9 km/h (3 Bft)
11.12.2016 05:53 -1,7 °C -1,7 °C 77 % 1023,0 hPa 0,0 mm 10,8 km/h (2 Bft) W 272 ° 0 min 0,000 mm 0,0 UV-I 0 W/m² -5,2 °C 16,1 km/h (3 Bft)
11.12.2016 05:54 -1,5 °C -1,5 °C 77 % 1023,0 hPa 0,0 mm 9,5 km/h (2 Bft) W-NW 292 ° 0 min 0,000 mm 0,0 UV-I 0 W/m² -5,0 °C 11,3 km/h (2 Bft)
11.12.2016 05:55 -1,3 °C -1,3 °C 76 % 1023,0 hPa 0,0 mm 9,4 km/h (2 Bft) W-NW 292 ° 0 min 0,000 mm 0,0 UV-I 0 W/m² -5,0 °C 14,5 km/h (3 Bft)
11.12.2016 05:56 -0,9 °C -0,9 °C 75 % 1023,0 hPa 0,0 mm 14,5 km/h (3 Bft) W-SW 253 ° 0 min 0,000 mm 0,0 UV-I 0 W/m² -4,8 °C 20,9 km/h (4 Bft)
11.12.2016 05:57 -0,7 °C -0,7 °C 73 % 1023,0 hPa 0,0 mm 11,5 km/h (2 Bft) W 267 ° 0 min 0,000 mm 0,0 UV-I 0 W/m² -4,9 °C 17,7 km/h (3 Bft)
11.12.2016 05:58 -0,3 °C -0,3 °C 73 % 1023,0 hPa 0,0 mm 8,6 km/h (2 Bft) W-SW 258 ° 0 min 0,000 mm 0,0 UV-I 0 W/m² -4,5 °C 12,9 km/h (3 Bft)
11.12.2016 05:59 -0,1 °C -0,1 °C 71 % 1023,0 hPa 0,0 mm 9,6 km/h (2 Bft) W 263 ° 0 min 0,000 mm 0,0 UV-I 0 W/m² -4,7 °C 14,5 km/h (3 Bft)
11.12.2016 06:00 0,2 °C 0,2 °C 71 % 1023,0 hPa 0,0 mm 6,2 km/h (2 Bft) W 271 ° 0 min 0,000 mm 0,0 UV-I 0 W/m² -4,4 °C 11,3 km/h (2 Bft)
11.12.2016 06:01 0,4 °C 0,4 °C 70 % 1023,0 hPa 0,0 mm 11,3 km/h (2 Bft) W-SW 250 ° 0 min 0,000 mm 0,0 UV-I 0 W/m² -4,4 °C 17,7 km/h (3 Bft)
11.12.2016 06:02 0,7 °C 0,7 °C 69 % 1023,0 hPa 0,0 mm 13,2 km/h (3 Bft) W 269 ° 0 min 0,000 mm 0,0 UV-I 0 W/m² -4,3 °C 20,9 km/h (4 Bft)
11.12.2016 06:03 0,8 °C 0,8 °C 68 % 1023,0 hPa 0,0 mm 9,1 km/h (2 Bft) W-SW 254 ° 0 min 0,000 mm 0,0 UV-I 0 W/m² -4,4 °C 14,5 km/h (3 Bft)
11.12.2016 06:04 1,1 °C 1,1 °C 67 % 1023,0 hPa 0,0 mm 15,2 km/h (3 Bft) W-SW 255 ° 0 min 0,000 mm 0,0 UV-I 0 W/m² -4,3 °C 25,7 km/h (4 Bft)
11.12.2016 06:05 1,3 °C 1,3 °C 66 % 1023,0 hPa 0,0 mm 9,8 km/h (2 Bft) W-SW 242 ° 0 min 0,000 mm 0,0 UV-I 0 W/m² -4,3 °C 16,1 km/h (3 Bft)
11.12.2016 06:06 1,4 °C 1,4 °C 66 % 1023,0 hPa 0,0 mm 10,5 km/h (2 Bft) W-SW 250 ° 0 min 0,000 mm 0,0 UV-I 0 W/m² -4,2 °C 16,1 km/h (3 Bft)
11.12.2016 06:07 1,6 °C 1,6 °C 65 % 1022,9 hPa 0,0 mm 12,1 km/h (2 Bft) W-SW 252 ° 0 min 0,000 mm 0,0 UV-I 0 W/m² -4,3 °C 16,1 km/h (3 Bft)
11.12.2016 06:08 1,8 °C 1,8 °C 64 % 1022,9 hPa 0,0 mm 8,0 km/h (2 Bft) W-SW 240 ° 0 min 0,000 mm 0,0 UV-I 0 W/m² -4,3 °C 11,3 km/h (2 Bft)
11.12.2016 06:09 1,9 °C 1,9 °C 63 % 1023,0 hPa 0,0 mm 9,6 km/h (2 Bft) W-SW 246 ° 0 min 0,000 mm 0,0 UV-I 0 W/m² -4,4 °C 14,5 km/h (3 Bft)
11.12.2016 06:10 2,0 °C 2,0 °C 63 % 1022,9 hPa 0,0 mm 8,9 km/h (2 Bft) W 259 ° 0 min 0,000 mm 0,0 UV-I 0 W/m² -4,3 °C 11,3 km/h (2 Bft)
11.12.2016 06:11 2,1 °C 2,1 °C 62 % 1022,9 hPa 0,0 mm 3,7 km/h (1 Bft) W-SW 252 ° 0 min 0,000 mm 0,0 UV-I 0 W/m² -4,4 °C 4,8 km/h (1 Bft)
11.12.2016 06:12 2,3 °C 2,3 °C 62 % 1022,9 hPa 0,0 mm 6,1 km/h (2 Bft) W-SW 250 ° 0 min 0,000 mm 0,0 UV-I 0 W/m² -4,2 °C 12,9 km/h (3 Bft)
11.12.2016 06:13 2,3 °C 2,3 °C 61 % 1022,9 hPa 0,0 mm 10,7 km/h (2 Bft) W-SW 243 ° 0 min 0,000 mm 0,0 UV-I 0 W/m² -4,4 °C 16,1 km/h (3 Bft)
11.12.2016 06:14 2,4 °C 2,4 °C 61 % 1023,0 hPa 0,0 mm 11,1 km/h (2 Bft) W 266 ° 0 min 0,000 mm 0,0 UV-I 0 W/m² -4,3 °C 14,5 km/h (3 Bft)
11.12.2016 06:15 2,6 °C 2,6 °C 60 % 1022,9 hPa 0,0 mm 8,7 km/h (2 Bft) W-NW 286 ° 0 min 0,000 mm 0,0 UV-I 0 W/m² -4,4 °C 22,5 km/h (4 Bft)
11.12.2016 06:16 2,7 °C 2,7 °C 59 % 1022,9 hPa 0,0 mm 11,8 km/h (2 Bft) W 266 ° 0 min 0,000 mm 0,0 UV-I 0 W/m² -4,5 °C 17,7 km/h (3 Bft)
11.12.2016 06:17 2,8 °C 2,8 °C 59 % 1023,0 hPa 0,0 mm 7,4 km/h (2 Bft) W-SW 246 ° 0 min 0,000 mm 0,0 UV-I 0 W/m² -4,4 °C 11,3 km/h (2 Bft)
11.12.2016 06:18 2,9 °C 2,9 °C 59 % 1023,0 hPa 0,0 mm 10,1 km/h (2 Bft) W 261 ° 0 min 0,000 mm 0,0 UV-I 0 W/m² -4,3 °C 12,9 km/h (3 Bft)
11.12.2016 06:19 2,9 °C 2,9 °C 59 % 1023,1 hPa 0,0 mm 7,6 km/h (2 Bft) W-NW 296 ° 0 min 0,000 mm 0,0 UV-I 0 W/m² -4,3 °C 14,5 km/h (3 Bft)
11.12.2016 06:20 3,0 °C 3,0 °C 58 % 1023,1 hPa 0,0 mm 14,6 km/h (3 Bft) W-NW 294 ° 0 min 0,000 mm 0,0 UV-I 0 W/m² -4,4 °C 25,7 km/h (4 Bft)
11.12.2016 06:21 3,1 °C 3,1 °C 58 % 1023,1 hPa 0,0 mm 12,4 km/h (3 Bft) W-SW 252 ° 0 min 0,000 mm 0,0 UV-I 0 W/m² -4,3 °C 17,7 km/h (3 Bft)
11.12.2016 06:22 3,2 °C 3,2 °C 58 % 1023,2 hPa 0,0 mm 10,9 km/h (2 Bft) W-SW 257 ° 0 min 0,000 mm 0,0 UV-I 0 W/m² -4,3 °C 14,5 km/h (3 Bft)
11.12.2016 06:23 3,2 °C 3,2 °C 58 % 1023,2 hPa 0,0 mm 5,4 km/h (1 Bft) W 278 ° 0 min 0,000 mm 0,0 UV-I 0 W/m² -4,3 °C 8,0 km/h (2 Bft)
11.12.2016 06:24 3,2 °C 3,2 °C 57 % 1023,2 hPa 0,0 mm 7,6 km/h (2 Bft) W 264 ° 0 min 0,000 mm 0,0 UV-I 0 W/m² -4,5 °C 12,9 km/h (3 Bft)
11.12.2016 06:25 3,3 °C 3,3 °C 57 % 1023,2 hPa 0,0 mm 5,3 km/h (1 Bft) SW 229 ° 0 min 0,000 mm 0,0 UV-I 0 W/m² -4,4 °C 11,3 km/h (2 Bft)
11.12.2016 06:26 3,3 °C 3,3 °C 57 % 1023,2 hPa 0,0 mm 5,8 km/h (2 Bft) W 275 ° 0 min 0,000 mm 0,0 UV-I 0 W/m² -4,4 °C 11,3 km/h (2 Bft)
11.12.2016 06:27 3,3 °C 3,3 °C 57 % 1023,3 hPa 0,0 mm 11,2 km/h (2 Bft) W-SW 252 ° 0 min 0,000 mm 0,0 UV-I 0 W/m² -4,4 °C 22,5 km/h (4 Bft)
11.12.2016 06:28 3,3 °C 3,3 °C 57 % 1023,3 hPa 0,0 mm 13,1 km/h (3 Bft) SW 234 ° 0 min 0,000 mm 0,0 UV-I 0 W/m² -4,4 °C 19,3 km/h (3 Bft)
11.12.2016 06:29 3,3 °C 3,3 °C 57 % 1023,3 hPa 0,0 mm 3,7 km/h (1 Bft) W 261 ° 0 min 0,000 mm 0,0 UV-I 0 W/m² -4,4 °C 6,4 km/h (2 Bft)
11.12.2016 06:30 3,3 °C 3,3 °C 56 % 1023,3 hPa 0,0 mm 7,3 km/h (2 Bft) W 261 ° 0 min 0,000 mm 0,0 UV-I 0 W/m² -4,6 °C 11,3 km/h (2 Bft)
11.12.2016 06:31 3,4 °C 3,4 °C 56 % 1023,4 hPa 0,0 mm 5,2 km/h (1 Bft) W 275 ° 0 min 0,000 mm 0,0 UV-I 0 W/m² -4,5 °C 9,7 km/h (2 Bft)
11.12.2016 06:32 3,4 °C 3,4 °C 57 % 1023,4 hPa 0,0 mm 4,8 km/h (1 Bft) W 266 ° 0 min 0,000 mm 0,0 UV-I 0 W/m² -4,3 °C 9,7 km/h (2 Bft)
11.12.2016 06:33 3,4 °C 3,4 °C 56 % 1023,4 hPa 0,0 mm 7,2 km/h (2 Bft) W-SW 247 ° 0 min 0,000 mm 0,0 UV-I 0 W/m² -4,5 °C 14,5 km/h (3 Bft)
11.12.2016 06:34 3,4 °C 3,4 °C 56 % 1023,4 hPa 0,0 mm 6,6 km/h (2 Bft) W 281 ° 0 min 0,000 mm 0,0 UV-I 0 W/m² -4,5 °C 11,3 km/h (2 Bft)
11.12.2016 06:35 3,4 °C 3,4 °C 56 % 1023,5 hPa 0,0 mm 4,7 km/h (1 Bft) W 271 ° 0 min 0,000 mm 0,0 UV-I 0 W/m² -4,5 °C 6,4 km/h (2 Bft)
11.12.2016 06:36 3,4 °C 3,4 °C 56 % 1023,5 hPa 0,0 mm 2,9 km/h (1 Bft) W-NW 286 ° 0 min 0,000 mm 0,0 UV-I 0 W/m² -4,5 °C 3,2 km/h (1 Bft)
11.12.2016 06:37 3,4 °C 3,4 °C 56 % 1023,6 hPa 0,0 mm 1,2 km/h (1 Bft) W-NW 286 ° 0 min 0,000 mm 0,0 UV-I 0 W/m² -4,5 °C 1,6 km/h (1 Bft)
11.12.2016 06:38 3,4 °C 3,4 °C 56 % 1023,6 hPa 0,0 mm 0,3 km/h (0 Bft) W-NW 286 ° 0 min 0,000 mm 0,0 UV-I 0 W/m² -4,5 °C 1,6 km/h (1 Bft)
11.12.2016 06:39 3,4 °C 3,4 °C 56 % 1023,6 hPa 0,0 mm 2,6 km/h (1 Bft) W 279 ° 0 min 0,000 mm 0,0 UV-I 0 W/m² -4,5 °C 4,8 km/h (1 Bft)
11.12.2016 06:40 3,4 °C 3,4 °C 56 % 1023,6 hPa 0,0 mm 3,1 km/h (1 Bft) W 266 ° 0 min 0,000 mm 0,0 UV-I 0 W/m² -4,5 °C 4,8 km/h (1 Bft)
11.12.2016 06:41 3,4 °C 3,4 °C 56 % 1023,6 hPa 0,0 mm 1,4 km/h (1 Bft) W 266 ° 0 min 0,000 mm 0,0 UV-I 0 W/m² -4,5 °C 3,2 km/h (1 Bft)
11.12.2016 06:42 3,4 °C 3,4 °C 56 % 1023,6 hPa 0,0 mm 2,0 km/h (1 Bft) SW 236 ° 0 min 0,000 mm 0,0 UV-I 0 W/m² -4,5 °C 3,2 km/h (1 Bft)
11.12.2016 06:43 3,4 °C 3,4 °C 55 % 1023,6 hPa 0,0 mm 3,3 km/h (1 Bft) W-SW 250 ° 0 min 0,000 mm 0,0 UV-I 0 W/m² -4,8 °C 4,8 km/h (1 Bft)
11.12.2016 06:44 3,4 °C 3,4 °C 56 % 1023,6 hPa 0,0 mm 3,0 km/h (1 Bft) W-SW 250 ° 0 min 0,000 mm 0,0 UV-I 0 W/m² -4,5 °C 4,8 km/h (1 Bft)
11.12.2016 06:45 3,4 °C 3,4 °C 56 % 1023,6 hPa 0,0 mm 5,1 km/h (1 Bft) W-SW 255 ° 0 min 0,000 mm 0,0 UV-I 0 W/m² -4,5 °C 11,3 km/h (2 Bft)
11.12.2016 06:46 3,4 °C 3,4 °C 56 % 1023,6 hPa 0,0 mm 7,2 km/h (2 Bft) W-SW 257 ° 0 min 0,000 mm 0,0 UV-I 0 W/m² -4,5 °C 11,3 km/h (2 Bft)
11.12.2016 06:47 3,3 °C 3,4 °C 56 % 1023,6 hPa 0,0 mm 7,9 km/h (2 Bft) W 271 ° 0 min 0,000 mm 0,0 UV-I 0 W/m² -4,6 °C 14,5 km/h (3 Bft)
11.12.2016 06:48 3,3 °C 3,3 °C 56 % 1023,6 hPa 0,0 mm 10,7 km/h (2 Bft) W 267 ° 0 min 0,000 mm 0,0 UV-I 0 W/m² -4,6 °C 17,7 km/h (3 Bft)
11.12.2016 06:49 3,3 °C 3,3 °C 56 % 1023,6 hPa 0,0 mm 7,5 km/h (2 Bft) W 263 ° 0 min 0,000 mm 0,0 UV-I 0 W/m² -4,6 °C 12,9 km/h (3 Bft)
11.12.2016 06:50 3,3 °C 3,3 °C 56 % 1023,6 hPa 0,0 mm 6,0 km/h (2 Bft) W-SW 246 ° 0 min 0,000 mm 0,0 UV-I 0 W/m² -4,6 °C 12,9 km/h (3 Bft)
11.12.2016 06:51 3,3 °C 3,3 °C 56 % 1023,7 hPa 0,0 mm 10,8 km/h (2 Bft) W 273 ° 0 min 0,000 mm 0,0 UV-I 0 W/m² -4,6 °C 12,9 km/h (3 Bft)
11.12.2016 06:52 3,3 °C 3,3 °C 56 % 1023,7 hPa 0,0 mm 5,6 km/h (1 Bft) W 263 ° 0 min 0,000 mm 0,0 UV-I 0 W/m² -4,6 °C 11,3 km/h (2 Bft)
11.12.2016 06:53 3,3 °C 3,3 °C 57 % 1023,7 hPa 0,0 mm 6,9 km/h (2 Bft) W 268 ° 0 min 0,000 mm 0,0 UV-I 0 W/m² -4,4 °C 11,3 km/h (2 Bft)
11.12.2016 06:54 3,3 °C 3,3 °C 57 % 1023,7 hPa 0,0 mm 9,3 km/h (2 Bft) W 260 ° 0 min 0,000 mm 0,0 UV-I 0 W/m² -4,4 °C 12,9 km/h (3 Bft)
11.12.2016 06:55 3,3 °C 3,3 °C 57 % 1023,7 hPa 0,0 mm 6,0 km/h (2 Bft) W-SW 249 ° 0 min 0,000 mm 0,0 UV-I 0 W/m² -4,4 °C 11,3 km/h (2 Bft)
11.12.2016 06:56 3,3 °C 3,3 °C 56 % 1023,7 hPa 0,0 mm 8,6 km/h (2 Bft) W 277 ° 0 min 0,000 mm 0,0 UV-I 0 W/m² -4,6 °C 14,5 km/h (3 Bft)
11.12.2016 06:57 3,3 °C 3,3 °C 56 % 1023,8 hPa 0,0 mm 9,7 km/h (2 Bft) W 265 ° 0 min 0,000 mm 0,0 UV-I 0 W/m² -4,6 °C 16,1 km/h (3 Bft)
11.12.2016 06:58 3,3 °C 3,3 °C 57 % 1023,8 hPa 0,0 mm 5,8 km/h (2 Bft) W 263 ° 0 min 0,000 mm 0,0 UV-I 0 W/m² -4,4 °C 11,3 km/h (2 Bft)
11.12.2016 06:59 3,3 °C 3,3 °C 57 % 1023,8 hPa 0,0 mm 11,3 km/h (2 Bft) W 281 ° 0 min 0,000 mm 0,0 UV-I 0 W/m² -4,4 °C 14,5 km/h (3 Bft)
11.12.2016 07:00 3,3 °C 3,3 °C 57 % 1023,8 hPa 0,0 mm 4,7 km/h (1 Bft) W 279 ° 0 min 0,000 mm 0,0 UV-I 0 W/m² -4,4 °C 9,7 km/h (2 Bft)
11.12.2016 07:01 3,3 °C 3,3 °C 57 % 1023,8 hPa 0,0 mm 4,5 km/h (1 Bft) W 269 ° 0 min 0,051 mm 0,0 UV-I 0 W/m² -4,4 °C 6,4 km/h (2 Bft)
11.12.2016 07:02 3,3 °C 3,3 °C 57 % 1023,9 hPa 0,0 mm 4,1 km/h (1 Bft) W 261 ° 0 min 0,000 mm 0,0 UV-I 0 W/m² -4,4 °C 6,4 km/h (2 Bft)
11.12.2016 07:03 3,3 °C 3,3 °C 57 % 1023,9 hPa 0,0 mm 2,7 km/h (1 Bft) W 261 ° 0 min 0,000 mm 0,0 UV-I 0 W/m² -4,4 °C 3,2 km/h (1 Bft)
11.12.2016 07:04 3,3 °C 3,3 °C 57 % 1024,0 hPa 0,0 mm 6,0 km/h (2 Bft) W-SW 238 ° 0 min 0,000 mm 0,0 UV-I 0 W/m² -4,4 °C 9,7 km/h (2 Bft)
11.12.2016 07:05 3,3 °C 3,3 °C 57 % 1024,0 hPa 0,0 mm 5,5 km/h (1 Bft) W-SW 251 ° 0 min 0,000 mm 0,0 UV-I 0 W/m² -4,4 °C 9,7 km/h (2 Bft)
11.12.2016 07:06 3,3 °C 3,3 °C 57 % 1023,9 hPa 0,0 mm 5,6 km/h (1 Bft) W-NW 284 ° 0 min 0,000 mm 0,0 UV-I 0 W/m² -4,4 °C 9,7 km/h (2 Bft)
11.12.2016 07:07 3,3 °C 3,3 °C 57 % 1023,9 hPa 0,0 mm 3,8 km/h (1 Bft) W 259 ° 0 min 0,000 mm 0,0 UV-I 0 W/m² -4,4 °C 6,4 km/h (2 Bft)
11.12.2016 07:08 3,2 °C 3,3 °C 57 % 1023,9 hPa 0,0 mm 5,2 km/h (1 Bft) W 275 ° 0 min 0,000 mm 0,0 UV-I 0 W/m² -4,5 °C 9,7 km/h (2 Bft)
11.12.2016 07:09 3,3 °C 3,3 °C 57 % 1023,9 hPa 0,0 mm 4,3 km/h (1 Bft) W-SW 253 ° 0 min 0,000 mm 0,0 UV-I 0 W/m² -4,4 °C 6,4 km/h (2 Bft)
11.12.2016 07:10 3,2 °C 3,3 °C 57 % 1023,8 hPa 0,0 mm 10,1 km/h (2 Bft) SW 220 ° 0 min 0,000 mm 0,0 UV-I 0 W/m² -4,5 °C 17,7 km/h (3 Bft)
11.12.2016 07:11 3,2 °C 3,2 °C 57 % 1023,8 hPa 0,0 mm 4,6 km/h (1 Bft) SW 218 ° 0 min 0,000 mm 0,0 UV-I 0 W/m² -4,5 °C 6,4 km/h (2 Bft)
11.12.2016 07:12 3,3 °C 3,3 °C 57 % 1023,8 hPa 0,0 mm 6,2 km/h (2 Bft) SW 220 ° 0 min 0,000 mm 0,0 UV-I 0 W/m² -4,4 °C 9,7 km/h (2 Bft)
11.12.2016 07:13 3,3 °C 3,3 °C 57 % 1023,8 hPa 0,0 mm 5,1 km/h (1 Bft) S 178 ° 0 min 0,000 mm 0,0 UV-I 0 W/m² -4,4 °C 8,0 km/h (2 Bft)
11.12.2016 07:14 3,2 °C 3,3 °C 57 % 1023,7 hPa 0,0 mm 5,2 km/h (1 Bft) S-SW 207 ° 0 min 0,000 mm 0,0 UV-I 0 W/m² -4,5 °C 8,0 km/h (2 Bft)
11.12.2016 07:15 3,3 °C 3,3 °C 56 % 1023,7 hPa 0,0 mm 5,5 km/h (1 Bft) S-SW 205 ° 0 min 0,000 mm 0,0 UV-I 0 W/m² -4,6 °C 9,7 km/h (2 Bft)
11.12.2016 07:16 3,3 °C 3,3 °C 57 % 1023,7 hPa 0,0 mm 5,1 km/h (1 Bft) S-SW 204 ° 0 min 0,000 mm 0,0 UV-I 0 W/m² -4,4 °C 12,9 km/h (3 Bft)
11.12.2016 07:17 3,3 °C 3,3 °C 56 % 1023,7 hPa 0,0 mm 6,5 km/h (2 Bft) S-SW 194 ° 0 min 0,000 mm 0,0 UV-I 0 W/m² -4,6 °C 11,3 km/h (2 Bft)
11.12.2016 07:18 3,4 °C 3,4 °C 56 % 1023,8 hPa 0,0 mm 6,2 km/h (2 Bft) W-NW 292 ° 0 min 0,000 mm 0,0 UV-I 0 W/m² -4,5 °C 14,5 km/h (3 Bft)
11.12.2016 07:19 3,4 °C 3,4 °C 56 % 1023,8 hPa 0,0 mm 12,9 km/h (3 Bft) W-NW 282 ° 0 min 0,000 mm 0,0 UV-I 0 W/m² -4,5 °C 19,3 km/h (3 Bft)
11.12.2016 07:20 3,5 °C 3,5 °C 56 % 1023,8 hPa 0,0 mm 10,1 km/h (2 Bft) W-SW 244 ° 0 min 0,000 mm 0,0 UV-I 0 W/m² -4,4 °C 12,9 km/h (3 Bft)
11.12.2016 07:21 3,6 °C 3,6 °C 56 % 1023,8 hPa 0,0 mm 10,0 km/h (2 Bft) W-SW 241 ° 0 min 0,000 mm 0,0 UV-I 0 W/m² -4,3 °C 14,5 km/h (3 Bft)
11.12.2016 07:22 3,6 °C 3,6 °C 56 % 1023,8 hPa 0,0 mm 7,2 km/h (2 Bft) W-NW 298 ° 0 min 0,000 mm 0,0 UV-I 0 W/m² -4,3 °C 11,3 km/h (2 Bft)
11.12.2016 07:23 3,6 °C 3,6 °C 57 % 1023,8 hPa 0,0 mm 9,8 km/h (2 Bft) W-SW 243 ° 0 min 0,000 mm 0,0 UV-I 0 W/m² -4,1 °C 14,5 km/h (3 Bft)
11.12.2016 07:24 3,7 °C 3,7 °C 56 % 1023,9 hPa 0,0 mm 11,3 km/h (2 Bft) W 263 ° 0 min 0,000 mm 0,0 UV-I 0 W/m² -4,2 °C 17,7 km/h (3 Bft)
11.12.2016 07:25 3,7 °C 3,7 °C 57 % 1023,9 hPa 0,0 mm 11,4 km/h (2 Bft) W-SW 248 ° 0 min 0,000 mm 0,0 UV-I 0 W/m² -4,0 °C 14,5 km/h (3 Bft)
11.12.2016 07:26 3,7 °C 3,7 °C 57 % 1023,9 hPa 0,0 mm 9,2 km/h (2 Bft) W-SW 257 ° 0 min 0,000 mm 0,0 UV-I 0 W/m² -4,0 °C 14,5 km/h (3 Bft)
11.12.2016 07:27 3,7 °C 3,7 °C 57 % 1024,0 hPa 0,0 mm 8,2 km/h (2 Bft) W-SW 257 ° 0 min 0,000 mm 0,0 UV-I 0 W/m² -4,0 °C 11,3 km/h (2 Bft)
11.12.2016 07:28 3,7 °C 3,7 °C 57 % 1024,0 hPa 0,0 mm 10,3 km/h (2 Bft) W-SW 256 ° 0 min 0,000 mm 0,0 UV-I 0 W/m² -4,0 °C 16,1 km/h (3 Bft)
11.12.2016 07:29 3,7 °C 3,7 °C 57 % 1024,1 hPa 0,0 mm 11,3 km/h (2 Bft) W-SW 246 ° 0 min 0,000 mm 0,0 UV-I 0 W/m² -4,0 °C 16,1 km/h (3 Bft)
11.12.2016 07:30 3,7 °C 3,7 °C 57 % 1024,0 hPa 0,0 mm 8,9 km/h (2 Bft) W-SW 250 ° 0 min 0,000 mm 0,0 UV-I 0 W/m² -4,0 °C 17,7 km/h (3 Bft)
11.12.2016 07:31 3,7 °C 3,7 °C 56 % 1024,0 hPa 0,0 mm 10,5 km/h (2 Bft) S-SW 211 ° 0 min 0,000 mm 0,0 UV-I 0 W/m² -4,2 °C 16,1 km/h (3 Bft)
11.12.2016 07:32 3,8 °C 3,8 °C 56 % 1024,0 hPa 0,0 mm 14,2 km/h (3 Bft) W-SW 248 ° 0 min 0,000 mm 0,0 UV-I 0 W/m² -4,2 °C 17,7 km/h (3 Bft)
11.12.2016 07:33 3,8 °C 3,8 °C 57 % 1024,0 hPa 0,0 mm 8,4 km/h (2 Bft) W 278 ° 0 min 0,000 mm 0,0 UV-I 0 W/m² -3,9 °C 14,5 km/h (3 Bft)
11.12.2016 07:34 3,8 °C 3,8 °C 56 % 1024,0 hPa 0,0 mm 6,8 km/h (2 Bft) W-SW 254 ° 0 min 0,000 mm 0,0 UV-I 0 W/m² -4,2 °C 14,5 km/h (3 Bft)
11.12.2016 07:35 3,8 °C 3,9 °C 57 % 1024,0 hPa 0,0 mm 6,2 km/h (2 Bft) W-SW 255 ° 0 min 0,000 mm 0,0 UV-I 0 W/m² -3,9 °C 11,3 km/h (2 Bft)
11.12.2016 07:36 3,9 °C 3,9 °C 56 % 1024,0 hPa 0,0 mm 9,8 km/h (2 Bft) W 273 ° 0 min 0,000 mm 0,0 UV-I 0 W/m² -4,1 °C 19,3 km/h (3 Bft)
11.12.2016 07:37 3,9 °C 3,9 °C 57 % 1024,0 hPa 0,0 mm 12,8 km/h (3 Bft) W-SW 242 ° 0 min 0,000 mm 0,0 UV-I 0 W/m² -3,8 °C 22,5 km/h (4 Bft)
11.12.2016 07:38 3,9 °C 3,9 °C 56 % 1024,0 hPa 0,0 mm 13,3 km/h (3 Bft) W-SW 249 ° 0 min 0,000 mm 0,0 UV-I 0 W/m² -4,1 °C 22,5 km/h (4 Bft)
11.12.2016 07:39 3,9 °C 3,9 °C 57 % 1024,0 hPa 0,0 mm 12,6 km/h (3 Bft) S-SW 203 ° 0 min 0,000 mm 0,0 UV-I 0 W/m² -3,8 °C 22,5 km/h (4 Bft)
11.12.2016 07:40 4,0 °C 4,0 °C 57 % 1024,0 hPa 0,0 mm 7,7 km/h (2 Bft) SW 227 ° 0 min 0,000 mm 0,0 UV-I 0 W/m² -3,7 °C 12,9 km/h (3 Bft)
11.12.2016 07:41 4,0 °C 4,0 °C 56 % 1023,9 hPa 0,0 mm 6,2 km/h (2 Bft) W-SW 248 ° 0 min 0,000 mm 0,0 UV-I 0 W/m² -4,0 °C 9,7 km/h (2 Bft)
11.12.2016 07:42 4,0 °C 4,0 °C 57 % 1024,0 hPa 0,0 mm 11,0 km/h (2 Bft) SW 223 ° 0 min 0,000 mm 0,0 UV-I 0 W/m² -3,7 °C 14,5 km/h (3 Bft)
11.12.2016 07:43 4,0 °C 4,0 °C 57 % 1024,0 hPa 0,0 mm 17,2 km/h (3 Bft) W-SW 247 ° 0 min 0,000 mm 0,0 UV-I 0 W/m² -3,7 °C 25,7 km/h (4 Bft)
11.12.2016 07:44 4,0 °C 4,0 °C 57 % 1024,0 hPa 0,0 mm 14,6 km/h (3 Bft) W-SW 252 ° 0 min 0,000 mm 0,0 UV-I 0 W/m² -3,7 °C 22,5 km/h (4 Bft)
11.12.2016 07:45 4,1 °C 4,1 °C 57 % 1024,0 hPa 0,0 mm 16,5 km/h (3 Bft) SW 236 ° 0 min 0,000 mm 0,0 UV-I 0 W/m² -3,6 °C 22,5 km/h (4 Bft)
11.12.2016 07:46 4,1 °C 4,1 °C 57 % 1024,0 hPa 0,0 mm 11,6 km/h (2 Bft) W 264 ° 0 min 0,000 mm 0,0 UV-I 0 W/m² -3,6 °C 19,3 km/h (3 Bft)
11.12.2016 07:47 4,1 °C 4,1 °C 57 % 1024,0 hPa 0,0 mm 10,4 km/h (2 Bft) W-SW 240 ° 0 min 0,000 mm 0,0 UV-I 0 W/m² -3,6 °C 17,7 km/h (3 Bft)
11.12.2016 07:48 4,1 °C 4,1 °C 57 % 1024,0 hPa 0,0 mm 15,0 km/h (3 Bft) SW 222 ° 0 min 0,000 mm 0,0 UV-I 0 W/m² -3,6 °C 19,3 km/h (3 Bft)
11.12.2016 07:49 4,1 °C 4,1 °C 57 % 1024,0 hPa 0,0 mm 9,1 km/h (2 Bft) SW 230 ° 0 min 0,000 mm 0,0 UV-I 0 W/m² -3,6 °C 16,1 km/h (3 Bft)
11.12.2016 07:50 4,2 °C 4,2 °C 58 % 1024,0 hPa 0,0 mm 15,4 km/h (3 Bft) W-SW 250 ° 0 min 0,000 mm 0,0 UV-I 0 W/m² -3,3 °C 24,1 km/h (4 Bft)
11.12.2016 07:51 4,2 °C 4,2 °C 57 % 1024,0 hPa 0,0 mm 16,2 km/h (3 Bft) W 279 ° 0 min 0,000 mm 0,0 UV-I 0 W/m² -3,5 °C 22,5 km/h (4 Bft)
11.12.2016 07:52 4,2 °C 4,2 °C 58 % 1024,0 hPa 0,0 mm 12,0 km/h (2 Bft) W-SW 257 ° 0 min 0,000 mm 0,0 UV-I 0 W/m² -3,3 °C 16,1 km/h (3 Bft)
11.12.2016 07:53 4,2 °C 4,2 °C 58 % 1024,0 hPa 0,0 mm 7,8 km/h (2 Bft) W-NW 282 ° 0 min 0,000 mm 0,0 UV-I 0 W/m² -3,3 °C 11,3 km/h (2 Bft)
11.12.2016 07:54 4,2 °C 4,2 °C 58 % 1024,0 hPa 0,0 mm 8,7 km/h (2 Bft) W-SW 244 ° 0 min 0,000 mm 0,0 UV-I 0 W/m² -3,3 °C 11,3 km/h (2 Bft)
11.12.2016 07:55 4,2 °C 4,2 °C 58 % 1024,0 hPa 0,0 mm 14,6 km/h (3 Bft) W 278 ° 0 min 0,000 mm 0,0 UV-I 0 W/m² -3,3 °C 19,3 km/h (3 Bft)
11.12.2016 07:56 4,2 °C 4,2 °C 58 % 1024,1 hPa 0,0 mm 14,3 km/h (3 Bft) W-SW 245 ° 0 min 0,000 mm 0,0 UV-I 0 W/m² -3,3 °C 22,5 km/h (4 Bft)
11.12.2016 07:57 4,1 °C 4,2 °C 58 % 1024,1 hPa 0,0 mm 12,3 km/h (3 Bft) W-SW 250 ° 0 min 0,000 mm 0,0 UV-I 5 W/m² -3,4 °C 19,3 km/h (3 Bft)
11.12.2016 07:58 4,1 °C 4,2 °C 58 % 1024,1 hPa 0,0 mm 8,0 km/h (2 Bft) W 262 ° 0 min 0,000 mm 0,0 UV-I 5 W/m² -3,4 °C 11,3 km/h (2 Bft)
11.12.2016 07:59 4,1 °C 4,2 °C 58 % 1024,2 hPa 0,0 mm 14,4 km/h (3 Bft) W 262 ° 0 min 0,000 mm 0,0 UV-I 5 W/m² -3,4 °C 19,3 km/h (3 Bft)
11.12.2016 08:00 4,1 °C 4,1 °C 58 % 1024,1 hPa 0,0 mm 11,3 km/h (2 Bft) W-SW 252 ° 0 min 0,000 mm 0,0 UV-I 5 W/m² -3,4 °C 14,5 km/h (3 Bft)
11.12.2016 08:01 4,1 °C 4,1 °C 58 % 1024,1 hPa 0,0 mm 12,6 km/h (3 Bft) W-SW 250 ° 0 min 0,026 mm 0,0 UV-I 7 W/m² -3,4 °C 17,7 km/h (3 Bft)
11.12.2016 08:02 4,1 °C 4,1 °C 58 % 1024,1 hPa 0,0 mm 9,6 km/h (2 Bft) W 261 ° 0 min 0,000 mm 0,0 UV-I 7 W/m² -3,4 °C 16,1 km/h (3 Bft)
11.12.2016 08:03 4,1 °C 4,1 °C 58 % 1024,1 hPa 0,0 mm 13,7 km/h (3 Bft) W 281 ° 0 min 0,000 mm 0,0 UV-I 7 W/m² -3,4 °C 19,3 km/h (3 Bft)
11.12.2016 08:04 4,1 °C 4,1 °C 58 % 1024,2 hPa 0,0 mm 15,0 km/h (3 Bft) W-SW 255 ° 0 min 0,000 mm 0,0 UV-I 9 W/m² -3,4 °C 20,9 km/h (4 Bft)
11.12.2016 08:05 4,1 °C 4,1 °C 58 % 1024,2 hPa 0,0 mm 12,0 km/h (2 Bft) NW 304 ° 0 min 0,000 mm 0,0 UV-I 9 W/m² -3,4 °C 17,7 km/h (3 Bft)
11.12.2016 08:06 4,1 °C 4,1 °C 59 % 1024,2 hPa 0,0 mm 12,1 km/h (2 Bft) W-SW 258 ° 0 min 0,000 mm 0,0 UV-I 9 W/m² -3,2 °C 17,7 km/h (3 Bft)
11.12.2016 08:07 4,1 °C 4,1 °C 59 % 1024,2 hPa 0,0 mm 13,2 km/h (3 Bft) W-SW 238 ° 0 min 0,000 mm 0,0 UV-I 9 W/m² -3,2 °C 16,1 km/h (3 Bft)
11.12.2016 08:08 4,1 °C 4,1 °C 59 % 1024,1 hPa 0,0 mm 12,7 km/h (3 Bft) W-NW 296 ° 0 min 0,000 mm 0,0 UV-I 11 W/m² -3,2 °C 17,7 km/h (3 Bft)
11.12.2016 08:09 4,0 °C 4,1 °C 59 % 1024,1 hPa 0,0 mm 15,2 km/h (3 Bft) W 277 ° 0 min 0,000 mm 0,0 UV-I 11 W/m² -3,3 °C 20,9 km/h (4 Bft)
11.12.2016 08:10 4,1 °C 4,1 °C 59 % 1024,1 hPa 0,0 mm 10,3 km/h (2 Bft) W-NW 287 ° 0 min 0,000 mm 0,0 UV-I 12 W/m² -3,2 °C 20,9 km/h (4 Bft)
11.12.2016 08:11 4,0 °C 4,1 °C 59 % 1024,2 hPa 0,0 mm 11,9 km/h (2 Bft) W 276 ° 0 min 0,000 mm 0,0 UV-I 12 W/m² -3,3 °C 12,9 km/h (3 Bft)
11.12.2016 08:12 4,1 °C 4,1 °C 59 % 1024,2 hPa 0,0 mm 13,6 km/h (3 Bft) W 263 ° 0 min 0,000 mm 0,0 UV-I 12 W/m² -3,2 °C 24,1 km/h (4 Bft)
11.12.2016 08:13 4,1 °C 4,1 °C 59 % 1024,3 hPa 0,0 mm 15,5 km/h (3 Bft) W-SW 252 ° 0 min 0,000 mm 0,0 UV-I 14 W/m² -3,2 °C 22,5 km/h (4 Bft)
11.12.2016 08:14 4,1 °C 4,1 °C 59 % 1024,3 hPa 0,0 mm 10,5 km/h (2 Bft) W-SW 244 ° 0 min 0,000 mm 0,0 UV-I 14 W/m² -3,2 °C 14,5 km/h (3 Bft)
11.12.2016 08:15 4,1 °C 4,1 °C 59 % 1024,2 hPa 0,0 mm 8,0 km/h (2 Bft) W 267 ° 0 min 0,000 mm 0,0 UV-I 14 W/m² -3,2 °C 11,3 km/h (2 Bft)
11.12.2016 08:16 4,1 °C 4,1 °C 60 % 1024,3 hPa 0,0 mm 7,1 km/h (2 Bft) SW 215 ° 0 min 0,000 mm 0,0 UV-I 14 W/m² -3,0 °C 12,9 km/h (3 Bft)
11.12.2016 08:17 4,1 °C 4,1 °C 59 % 1024,3 hPa 0,0 mm 10,0 km/h (2 Bft) W 267 ° 0 min 0,000 mm 0,0 UV-I 14 W/m² -3,2 °C 17,7 km/h (3 Bft)
11.12.2016 08:18 4,1 °C 4,1 °C 60 % 1024,2 hPa 0,0 mm 9,0 km/h (2 Bft) W 276 ° 0 min 0,000 mm 0,0 UV-I 14 W/m² -3,0 °C 16,1 km/h (3 Bft)
11.12.2016 08:19 4,1 °C 4,1 °C 59 % 1024,3 hPa 0,0 mm 11,4 km/h (2 Bft) SW 228 ° 0 min 0,000 mm 0,0 UV-I 14 W/m² -3,2 °C 22,5 km/h (4 Bft)
11.12.2016 08:20 4,1 °C 4,1 °C 59 % 1024,3 hPa 0,0 mm 14,6 km/h (3 Bft) W 260 ° 0 min 0,000 mm 0,0 UV-I 14 W/m² -3,2 °C 22,5 km/h (4 Bft)
11.12.2016 08:21 4,1 °C 4,1 °C 59 % 1024,3 hPa 0,0 mm 10,3 km/h (2 Bft) W-SW 248 ° 0 min 0,000 mm 0,0 UV-I 16 W/m² -3,2 °C 17,7 km/h (3 Bft)
11.12.2016 08:22 4,1 °C 4,1 °C 59 % 1024,3 hPa 0,0 mm 13,5 km/h (3 Bft) W-SW 241 ° 0 min 0,000 mm 0,0 UV-I 16 W/m² -3,2 °C 17,7 km/h (3 Bft)
11.12.2016 08:23 4,1 °C 4,1 °C 59 % 1024,2 hPa 0,0 mm 12,9 km/h (3 Bft) W-SW 240 ° 0 min 0,000 mm 0,0 UV-I 16 W/m² -3,2 °C 20,9 km/h (4 Bft)
11.12.2016 08:24 4,1 °C 4,1 °C 59 % 1024,2 hPa 0,0 mm 13,1 km/h (3 Bft) W-SW 255 ° 0 min 0,000 mm 0,0 UV-I 16 W/m² -3,2 °C 17,7 km/h (3 Bft)
11.12.2016 08:25 4,1 °C 4,1 °C 59 % 1024,2 hPa 0,0 mm 10,5 km/h (2 Bft) SW 225 ° 0 min 0,000 mm 0,0 UV-I 16 W/m² -3,2 °C 16,1 km/h (3 Bft)
11.12.2016 08:26 4,1 °C 4,1 °C 59 % 1024,2 hPa 0,0 mm 11,8 km/h (2 Bft) SW 221 ° 0 min 0,000 mm 0,0 UV-I 16 W/m² -3,2 °C 20,9 km/h (4 Bft)
11.12.2016 08:27 4,1 °C 4,1 °C 59 % 1024,2 hPa 0,0 mm 7,6 km/h (2 Bft) W-SW 257 ° 0 min 0,000 mm 0,0 UV-I 16 W/m² -3,2 °C 12,9 km/h (3 Bft)
11.12.2016 08:28 4,2 °C 4,2 °C 58 % 1024,2 hPa 0,0 mm 12,7 km/h (3 Bft) W 272 ° 0 min 0,000 mm 0,0 UV-I 16 W/m² -3,3 °C 17,7 km/h (3 Bft)
11.12.2016 08:29 4,2 °C 4,2 °C 58 % 1024,2 hPa 0,0 mm 12,6 km/h (3 Bft) W-SW 250 ° 0 min 0,000 mm 0,0 UV-I 14 W/m² -3,3 °C 16,1 km/h (3 Bft)
11.12.2016 08:30 4,2 °C 4,2 °C 58 % 1024,2 hPa 0,0 mm 15,6 km/h (3 Bft) W-SW 256 ° 0 min 0,000 mm 0,0 UV-I 14 W/m² -3,3 °C 22,5 km/h (4 Bft)
11.12.2016 08:31 4,2 °C 4,2 °C 58 % 1024,2 hPa 0,0 mm 17,6 km/h (3 Bft) W-SW 244 ° 0 min 0,000 mm 0,0 UV-I 14 W/m² -3,3 °C 22,5 km/h (4 Bft)
11.12.2016 08:32 4,2 °C 4,2 °C 58 % 1024,2 hPa 0,0 mm 15,5 km/h (3 Bft) W 269 ° 0 min 0,000 mm 0,0 UV-I 14 W/m² -3,3 °C 20,9 km/h (4 Bft)
11.12.2016 08:33 4,2 °C 4,2 °C 58 % 1024,2 hPa 0,0 mm 13,7 km/h (3 Bft) SW 217 ° 0 min 0,000 mm 0,0 UV-I 14 W/m² -3,3 °C 20,9 km/h (4 Bft)
11.12.2016 08:34 4,2 °C 4,2 °C 58 % 1024,2 hPa 0,0 mm 13,1 km/h (3 Bft) W 267 ° 0 min 0,000 mm 0,0 UV-I 14 W/m² -3,3 °C 20,9 km/h (4 Bft)
11.12.2016 08:35 4,2 °C 4,2 °C 59 % 1024,2 hPa 0,0 mm 16,3 km/h (3 Bft) W 263 ° 0 min 0,000 mm 0,0 UV-I 14 W/m² -3,1 °C 24,1 km/h (4 Bft)
11.12.2016 08:36 4,2 °C 4,2 °C 58 % 1024,2 hPa 0,0 mm 16,2 km/h (3 Bft) W-SW 247 ° 0 min 0,000 mm 0,0 UV-I 14 W/m² -3,3 °C 24,1 km/h (4 Bft)
11.12.2016 08:37 4,2 °C 4,2 °C 58 % 1024,1 hPa 0,0 mm 9,6 km/h (2 Bft) W-SW 256 ° 0 min 0,000 mm 0,0 UV-I 14 W/m² -3,3 °C 12,9 km/h (3 Bft)
11.12.2016 08:38 4,2 °C 4,3 °C 58 % 1024,1 hPa 0,0 mm 11,1 km/h (2 Bft) W-SW 257 ° 0 min 0,000 mm 0,0 UV-I 14 W/m² -3,3 °C 20,9 km/h (4 Bft)
11.12.2016 08:39 4,3 °C 4,3 °C 58 % 1024,1 hPa 0,0 mm 11,8 km/h (2 Bft) W-SW 245 ° 0 min 0,000 mm 0,0 UV-I 14 W/m² -3,2 °C 17,7 km/h (3 Bft)
11.12.2016 08:40 4,3 °C 4,3 °C 58 % 1024,1 hPa 0,0 mm 9,2 km/h (2 Bft) W-SW 257 ° 0 min 0,000 mm 0,0 UV-I 14 W/m² -3,2 °C 14,5 km/h (3 Bft)
11.12.2016 08:41 4,3 °C 4,3 °C 58 % 1024,1 hPa 0,0 mm 10,2 km/h (2 Bft) W-NW 288 ° 0 min 0,000 mm 0,0 UV-I 14 W/m² -3,2 °C 14,5 km/h (3 Bft)
11.12.2016 08:42 4,3 °C 4,3 °C 58 % 1024,2 hPa 0,0 mm 9,7 km/h (2 Bft) W 259 ° 0 min 0,000 mm 0,0 UV-I 14 W/m² -3,2 °C 12,9 km/h (3 Bft)
11.12.2016 08:43 4,3 °C 4,3 °C 58 % 1024,1 hPa 0,0 mm 8,3 km/h (2 Bft) W-SW 251 ° 0 min 0,000 mm 0,0 UV-I 14 W/m² -3,2 °C 14,5 km/h (3 Bft)
11.12.2016 08:44 4,3 °C 4,3 °C 57 % 1024,2 hPa 0,0 mm 10,3 km/h (2 Bft) SW 236 ° 0 min 0,000 mm 0,0 UV-I 14 W/m² -3,5 °C 20,9 km/h (4 Bft)
11.12.2016 08:45 4,3 °C 4,3 °C 57 % 1024,2 hPa 0,0 mm 11,7 km/h (2 Bft) W-SW 256 ° 0 min 0,000 mm 0,0 UV-I 16 W/m² -3,5 °C 14,5 km/h (3 Bft)
11.12.2016 08:46 4,3 °C 4,3 °C 57 % 1024,2 hPa 0,0 mm 9,7 km/h (2 Bft) W-SW 241 ° 0 min 0,000 mm 0,0 UV-I 16 W/m² -3,5 °C 14,5 km/h (3 Bft)
11.12.2016 08:47 4,3 °C 4,3 °C 57 % 1024,2 hPa 0,0 mm 7,0 km/h (2 Bft) W-SW 249 ° 0 min 0,000 mm 0,0 UV-I 16 W/m² -3,5 °C 12,9 km/h (3 Bft)
11.12.2016 08:48 4,3 °C 4,3 °C 58 % 1024,1 hPa 0,0 mm 16,2 km/h (3 Bft) SW 230 ° 0 min 0,000 mm 0,0 UV-I 16 W/m² -3,2 °C 25,7 km/h (4 Bft)
11.12.2016 08:49 4,3 °C 4,3 °C 58 % 1024,2 hPa 0,0 mm 7,3 km/h (2 Bft) S-SW 206 ° 0 min 0,000 mm 0,0 UV-I 18 W/m² -3,2 °C 11,3 km/h (2 Bft)
11.12.2016 08:50 4,3 °C 4,3 °C 57 % 1024,2 hPa 0,0 mm 11,3 km/h (2 Bft) SW 232 ° 0 min 0,000 mm 0,0 UV-I 18 W/m² -3,5 °C 20,9 km/h (4 Bft)
11.12.2016 08:51 4,3 °C 4,3 °C 57 % 1024,2 hPa 0,0 mm 9,9 km/h (2 Bft) W-SW 240 ° 0 min 0,000 mm 0,0 UV-I 19 W/m² -3,5 °C 12,9 km/h (3 Bft)
11.12.2016 08:52 4,3 °C 4,3 °C 57 % 1024,2 hPa 0,0 mm 11,5 km/h (2 Bft) W 265 ° 0 min 0,000 mm 0,0 UV-I 19 W/m² -3,5 °C 16,1 km/h (3 Bft)
11.12.2016 08:53 4,3 °C 4,3 °C 58 % 1024,2 hPa 0,0 mm 10,4 km/h (2 Bft) W-SW 257 ° 0 min 0,000 mm 0,0 UV-I 19 W/m² -3,2 °C 12,9 km/h (3 Bft)
11.12.2016 08:54 4,3 °C 4,3 °C 58 % 1024,2 hPa 0,0 mm 10,0 km/h (2 Bft) W-SW 250 ° 0 min 0,000 mm 0,0 UV-I 19 W/m² -3,2 °C 14,5 km/h (3 Bft)
11.12.2016 08:55 4,3 °C 4,3 °C 58 % 1024,3 hPa 0,0 mm 7,6 km/h (2 Bft) W-SW 239 ° 0 min 0,000 mm 0,0 UV-I 19 W/m² -3,2 °C 12,9 km/h (3 Bft)
11.12.2016 08:56 4,3 °C 4,3 °C 57 % 1024,2 hPa 0,0 mm 10,6 km/h (2 Bft) W 261 ° 0 min 0,000 mm 0,0 UV-I 19 W/m² -3,5 °C 16,1 km/h (3 Bft)
11.12.2016 08:57 4,3 °C 4,3 °C 58 % 1024,2 hPa 0,0 mm 9,5 km/h (2 Bft) W-SW 249 ° 0 min 0,000 mm 0,0 UV-I 18 W/m² -3,2 °C 14,5 km/h (3 Bft)
11.12.2016 08:58 4,3 °C 4,3 °C 57 % 1024,2 hPa 0,0 mm 8,6 km/h (2 Bft) W-SW 242 ° 0 min 0,000 mm 0,0 UV-I 18 W/m² -3,5 °C 12,9 km/h (3 Bft)
11.12.2016 08:59 4,3 °C 4,3 °C 58 % 1024,2 hPa 0,0 mm 10,7 km/h (2 Bft) W 263 ° 0 min 0,000 mm 0,0 UV-I 18 W/m² -3,2 °C 14,5 km/h (3 Bft)
11.12.2016 09:00 4,3 °C 4,3 °C 58 % 1024,1 hPa 0,0 mm 12,5 km/h (3 Bft) W-SW 239 ° 0 min 0,000 mm 0,0 UV-I 18 W/m² -3,2 °C 16,1 km/h (3 Bft)
11.12.2016 09:01 4,3 °C 4,4 °C 58 % 1024,2 hPa 0,0 mm 12,7 km/h (3 Bft) W-SW 252 ° 0 min 0,050 mm 0,0 UV-I 19 W/m² -3,2 °C 16,1 km/h (3 Bft)
11.12.2016 09:02 4,4 °C 4,4 °C 58 % 1024,3 hPa 0,0 mm 9,7 km/h (2 Bft) W-SW 244 ° 0 min 0,000 mm 0,0 UV-I 19 W/m² -3,1 °C 12,9 km/h (3 Bft)
11.12.2016 09:03 4,4 °C 4,4 °C 58 % 1024,3 hPa 0,0 mm 12,7 km/h (3 Bft) W-SW 250 ° 0 min 0,000 mm 0,0 UV-I 19 W/m² -3,1 °C 20,9 km/h (4 Bft)
11.12.2016 09:04 4,3 °C 4,4 °C 59 % 1024,3 hPa 0,0 mm 14,0 km/h (3 Bft) W-SW 252 ° 0 min 0,000 mm 0,0 UV-I 19 W/m² -3,0 °C 19,3 km/h (3 Bft)
11.12.2016 09:05 4,3 °C 4,4 °C 58 % 1024,2 hPa 0,0 mm 11,1 km/h (2 Bft) W-SW 241 ° 0 min 0,000 mm 0,0 UV-I 21 W/m² -3,2 °C 14,5 km/h (3 Bft)
11.12.2016 09:06 4,3 °C 4,4 °C 59 % 1024,3 hPa 0,0 mm 15,5 km/h (3 Bft) W-SW 241 ° 0 min 0,000 mm 0,0 UV-I 21 W/m² -3,0 °C 22,5 km/h (4 Bft)
11.12.2016 09:07 4,4 °C 4,4 °C 59 % 1024,3 hPa 0,0 mm 11,6 km/h (2 Bft) W-SW 248 ° 0 min 0,000 mm 0,0 UV-I 23 W/m² -2,9 °C 16,1 km/h (3 Bft)
11.12.2016 09:08 4,4 °C 4,4 °C 59 % 1024,3 hPa 0,0 mm 13,7 km/h (3 Bft) W-SW 252 ° 0 min 0,000 mm 0,0 UV-I 23 W/m² -2,9 °C 20,9 km/h (4 Bft)
11.12.2016 09:09 4,3 °C 4,4 °C 59 % 1024,3 hPa 0,0 mm 15,0 km/h (3 Bft) W 259 ° 0 min 0,000 mm 0,0 UV-I 25 W/m² -3,0 °C 20,9 km/h (4 Bft)
11.12.2016 09:10 4,4 °C 4,4 °C 59 % 1024,4 hPa 0,0 mm 11,7 km/h (2 Bft) W-SW 250 ° 0 min 0,000 mm 0,0 UV-I 25 W/m² -2,9 °C 17,7 km/h (3 Bft)
11.12.2016 09:11 4,4 °C 4,4 °C 59 % 1024,4 hPa 0,0 mm 12,1 km/h (2 Bft) W-SW 254 ° 0 min 0,000 mm 0,0 UV-I 26 W/m² -2,9 °C 19,3 km/h (3 Bft)
11.12.2016 09:12 4,4 °C 4,4 °C 60 % 1024,4 hPa 0,0 mm 15,8 km/h (3 Bft) SW 229 ° 0 min 0,000 mm 0,0 UV-I 26 W/m² -2,7 °C 24,1 km/h (4 Bft)
11.12.2016 09:13 4,4 °C 4,4 °C 59 % 1024,4 hPa 0,0 mm 9,0 km/h (2 Bft) SW 232 ° 0 min 0,000 mm 0,0 UV-I 30 W/m² -2,9 °C 12,9 km/h (3 Bft)
11.12.2016 09:14 4,4 °C 4,4 °C 59 % 1024,4 hPa 0,0 mm 7,0 km/h (2 Bft) W-SW 257 ° 0 min 0,000 mm 0,0 UV-I 30 W/m² -2,9 °C 11,3 km/h (2 Bft)
11.12.2016 09:15 4,5 °C 4,5 °C 59 % 1024,4 hPa 0,0 mm 13,2 km/h (3 Bft) W 261 ° 0 min 0,000 mm 0,0 UV-I 30 W/m² -2,8 °C 22,5 km/h (4 Bft)
11.12.2016 09:16 4,5 °C 4,5 °C 60 % 1024,4 hPa 0,0 mm 15,4 km/h (3 Bft) SW 221 ° 0 min 0,000 mm 0,0 UV-I 32 W/m² -2,6 °C 22,5 km/h (4 Bft)
11.12.2016 09:17 4,6 °C 4,6 °C 59 % 1024,3 hPa 0,0 mm 13,9 km/h (3 Bft) W-SW 252 ° 0 min 0,000 mm 0,0 UV-I 32 W/m² -2,7 °C 17,7 km/h (3 Bft)
11.12.2016 09:18 4,6 °C 4,6 °C 59 % 1024,4 hPa 0,0 mm 13,9 km/h (3 Bft) W-SW 258 ° 0 min 0,000 mm 0,0 UV-I 32 W/m² -2,7 °C 20,9 km/h (4 Bft)
11.12.2016 09:19 4,6 °C 4,6 °C 60 % 1024,4 hPa 0,0 mm 10,6 km/h (2 Bft) W-SW 245 ° 0 min 0,000 mm 0,0 UV-I 30 W/m² -2,5 °C 17,7 km/h (3 Bft)
11.12.2016 09:20 4,6 °C 4,6 °C 60 % 1024,4 hPa 0,0 mm 14,0 km/h (3 Bft) W-SW 256 ° 0 min 0,000 mm 0,0 UV-I 30 W/m² -2,5 °C 19,3 km/h (3 Bft)
11.12.2016 09:21 4,6 °C 4,6 °C 60 % 1024,4 hPa 0,0 mm 12,0 km/h (2 Bft) S-SW 193 ° 0 min 0,000 mm 0,0 UV-I 30 W/m² -2,5 °C 17,7 km/h (3 Bft)
11.12.2016 09:22 4,6 °C 4,7 °C 60 % 1024,4 hPa 0,0 mm 11,7 km/h (2 Bft) W 263 ° 0 min 0,000 mm 0,0 UV-I 30 W/m² -2,5 °C 17,7 km/h (3 Bft)
11.12.2016 09:23 4,7 °C 4,7 °C 60 % 1024,3 hPa 0,0 mm 12,8 km/h (3 Bft) W-SW 258 ° 0 min 0,000 mm 0,0 UV-I 30 W/m² -2,4 °C 17,7 km/h (3 Bft)
11.12.2016 09:24 4,7 °C 4,7 °C 60 % 1024,4 hPa 0,0 mm 14,1 km/h (3 Bft) W 261 ° 0 min 0,000 mm 0,0 UV-I 30 W/m² -2,4 °C 19,3 km/h (3 Bft)
11.12.2016 09:25 4,7 °C 4,7 °C 60 % 1024,4 hPa 0,0 mm 14,6 km/h (3 Bft) W 265 ° 0 min 0,000 mm 0,0 UV-I 30 W/m² -2,4 °C 19,3 km/h (3 Bft)
11.12.2016 09:26 4,8 °C 4,8 °C 60 % 1024,4 hPa 0,0 mm 13,8 km/h (3 Bft) W-SW 252 ° 0 min 0,000 mm 0,0 UV-I 30 W/m² -2,3 °C 17,7 km/h (3 Bft)
11.12.2016 09:27 4,8 °C 4,8 °C 60 % 1024,3 hPa 0,0 mm 10,2 km/h (2 Bft) W 273 ° 0 min 0,000 mm 0,0 UV-I 30 W/m² -2,3 °C 17,7 km/h (3 Bft)
11.12.2016 09:28 4,8 °C 4,8 °C 60 % 1024,3 hPa 0,0 mm 16,2 km/h (3 Bft) W 259 ° 0 min 0,000 mm 0,0 UV-I 30 W/m² -2,3 °C 25,7 km/h (4 Bft)
11.12.2016 09:29 4,8 °C 4,8 °C 60 % 1024,3 hPa 0,0 mm 13,3 km/h (3 Bft) SW 236 ° 0 min 0,000 mm 0,0 UV-I 30 W/m² -2,3 °C 20,9 km/h (4 Bft)
11.12.2016 09:30 4,8 °C 4,8 °C 60 % 1024,3 hPa 0,0 mm 12,1 km/h (2 Bft) SW 236 ° 0 min 0,000 mm 0,0 UV-I 32 W/m² -2,3 °C 19,3 km/h (3 Bft)
11.12.2016 09:31 4,8 °C 4,9 °C 60 % 1024,3 hPa 0,0 mm 14,0 km/h (3 Bft) W 264 ° 0 min 0,000 mm 0,0 UV-I 32 W/m² -2,3 °C 20,9 km/h (4 Bft)
11.12.2016 09:32 4,9 °C 4,9 °C 60 % 1024,3 hPa 0,0 mm 14,4 km/h (3 Bft) SW 229 ° 0 min 0,000 mm 0,0 UV-I 33 W/m² -2,2 °C 19,3 km/h (3 Bft)
11.12.2016 09:33 4,9 °C 4,9 °C 60 % 1024,3 hPa 0,0 mm 9,7 km/h (2 Bft) W-SW 254 ° 0 min 0,000 mm 0,0 UV-I 33 W/m² -2,2 °C 20,9 km/h (4 Bft)
11.12.2016 09:34 4,9 °C 4,9 °C 60 % 1024,3 hPa 0,0 mm 14,1 km/h (3 Bft) W-SW 252 ° 0 min 0,000 mm 0,0 UV-I 33 W/m² -2,2 °C 22,5 km/h (4 Bft)
11.12.2016 09:35 4,9 °C 5,0 °C 61 % 1024,3 hPa 0,0 mm 14,3 km/h (3 Bft) SW 219 ° 0 min 0,000 mm 0,0 UV-I 33 W/m² -2,0 °C 19,3 km/h (3 Bft)
11.12.2016 09:36 5,0 °C 5,0 °C 60 % 1024,2 hPa 0,0 mm 10,7 km/h (2 Bft) SW 217 ° 0 min 0,000 mm 0,0 UV-I 35 W/m² -2,1 °C 16,1 km/h (3 Bft)
11.12.2016 09:37 5,1 °C 5,1 °C 59 % 1024,2 hPa 0,0 mm 10,6 km/h (2 Bft) S-SW 205 ° 0 min 0,000 mm 0,0 UV-I 33 W/m² -2,2 °C 16,1 km/h (3 Bft)
11.12.2016 09:38 5,1 °C 5,1 °C 59 % 1024,1 hPa 0,0 mm 9,1 km/h (2 Bft) S-SW 196 ° 0 min 0,000 mm 0,0 UV-I 33 W/m² -2,2 °C 14,5 km/h (3 Bft)
11.12.2016 09:39 5,2 °C 5,2 °C 59 % 1024,1 hPa 0,0 mm 4,7 km/h (1 Bft) S-SW 205 ° 0 min 0,000 mm 0,0 UV-I 33 W/m² -2,1 °C 8,0 km/h (2 Bft)
11.12.2016 09:40 5,2 °C 5,2 °C 59 % 1024,0 hPa 0,0 mm 10,4 km/h (2 Bft) W-SW 238 ° 0 min 0,000 mm 0,0 UV-I 33 W/m² -2,1 °C 14,5 km/h (3 Bft)
11.12.2016 09:41 5,2 °C 5,3 °C 58 % 1024,1 hPa 0,0 mm 6,1 km/h (2 Bft) S-SW 209 ° 0 min 0,000 mm 0,0 UV-I 33 W/m² -2,4 °C 11,3 km/h (2 Bft)
11.12.2016 09:42 5,3 °C 5,3 °C 58 % 1023,9 hPa 0,0 mm 10,1 km/h (2 Bft) S-SW 209 ° 0 min 0,000 mm 0,0 UV-I 33 W/m² -2,3 °C 14,5 km/h (3 Bft)
11.12.2016 09:43 5,3 °C 5,3 °C 58 % 1023,9 hPa 0,0 mm 12,8 km/h (3 Bft) W-SW 247 ° 0 min 0,000 mm 0,0 UV-I 33 W/m² -2,3 °C 16,1 km/h (3 Bft)
11.12.2016 09:44 5,3 °C 5,3 °C 58 % 1023,9 hPa 0,0 mm 7,9 km/h (2 Bft) S-SW 193 ° 0 min 0,000 mm 0,0 UV-I 32 W/m² -2,3 °C 14,5 km/h (3 Bft)
11.12.2016 09:45 5,4 °C 5,4 °C 58 % 1023,9 hPa 0,0 mm 5,7 km/h (1 Bft) W-SW 239 ° 0 min 0,000 mm 0,0 UV-I 32 W/m² -2,2 °C 9,7 km/h (2 Bft)
11.12.2016 09:46 5,4 °C 5,4 °C 58 % 1023,9 hPa 0,0 mm 8,0 km/h (2 Bft) S 175 ° 0 min 0,000 mm 0,0 UV-I 32 W/m² -2,2 °C 14,5 km/h (3 Bft)
11.12.2016 09:47 5,4 °C 5,4 °C 58 % 1023,9 hPa 0,0 mm 5,3 km/h (1 Bft) SW 236 ° 0 min 0,000 mm 0,0 UV-I 32 W/m² -2,2 °C 12,9 km/h (3 Bft)
11.12.2016 09:48 5,4 °C 5,4 °C 58 % 1023,9 hPa 0,0 mm 9,7 km/h (2 Bft) W-SW 251 ° 0 min 0,000 mm 0,0 UV-I 30 W/m² -2,2 °C 14,5 km/h (3 Bft)
11.12.2016 09:49 5,4 °C 5,4 °C 58 % 1023,9 hPa 0,0 mm 10,8 km/h (2 Bft) S-SW 194 ° 0 min 0,000 mm 0,0 UV-I 28 W/m² -2,2 °C 16,1 km/h (3 Bft)
11.12.2016 09:50 5,5 °C 5,5 °C 57 % 1023,9 hPa 0,0 mm 6,1 km/h (2 Bft) W-SW 247 ° 0 min 0,000 mm 0,0 UV-I 26 W/m² -2,3 °C 11,3 km/h (2 Bft)
11.12.2016 09:51 5,5 °C 5,5 °C 57 % 1023,9 hPa 0,0 mm 10,8 km/h (2 Bft) W-SW 247 ° 0 min 0,000 mm 0,0 UV-I 26 W/m² -2,3 °C 17,7 km/h (3 Bft)
11.12.2016 09:52 5,5 °C 5,5 °C 57 % 1023,9 hPa 0,0 mm 9,7 km/h (2 Bft) W-SW 254 ° 0 min 0,000 mm 0,0 UV-I 25 W/m² -2,3 °C 16,1 km/h (3 Bft)
11.12.2016 09:53 5,5 °C 5,5 °C 58 % 1023,9 hPa 0,0 mm 11,9 km/h (2 Bft) W-SW 246 ° 0 min 0,000 mm 0,0 UV-I 25 W/m² -2,1 °C 19,3 km/h (3 Bft)
11.12.2016 09:54 5,5 °C 5,6 °C 57 % 1023,8 hPa 0,0 mm 8,0 km/h (2 Bft) W 269 ° 0 min 0,000 mm 0,0 UV-I 23 W/m² -2,3 °C 11,3 km/h (2 Bft)
11.12.2016 09:55 5,5 °C 5,5 °C 57 % 1023,8 hPa 0,0 mm 7,8 km/h (2 Bft) SW 229 ° 0 min 0,000 mm 0,0 UV-I 23 W/m² -2,3 °C 12,9 km/h (3 Bft)
11.12.2016 09:56 5,5 °C 5,5 °C 57 % 1023,8 hPa 0,0 mm 7,4 km/h (2 Bft) W-SW 239 ° 0 min 0,000 mm 0,0 UV-I 23 W/m² -2,3 °C 11,3 km/h (2 Bft)
11.12.2016 09:57 5,5 °C 5,5 °C 57 % 1023,8 hPa 0,0 mm 5,9 km/h (2 Bft) W 263 ° 0 min 0,000 mm 0,0 UV-I 23 W/m² -2,3 °C 9,7 km/h (2 Bft)
11.12.2016 09:58 5,5 °C 5,5 °C 57 % 1023,8 hPa 0,0 mm 6,3 km/h (2 Bft) W-SW 246 ° 0 min 0,000 mm 0,0 UV-I 21 W/m² -2,3 °C 8,0 km/h (2 Bft)
11.12.2016 09:59 5,4 °C 5,5 °C 57 % 1023,8 hPa 0,0 mm 5,7 km/h (1 Bft) W-SW 239 ° 0 min 0,000 mm 0,0 UV-I 21 W/m² -2,4 °C 9,7 km/h (2 Bft)
11.12.2016 10:00 5,4 °C 5,5 °C 57 % 1023,8 hPa 0,0 mm 6,2 km/h (2 Bft) W-SW 240 ° 0 min 0,000 mm 0,0 UV-I 21 W/m² -2,4 °C 11,3 km/h (2 Bft)
11.12.2016 10:01 5,5 °C 5,5 °C 57 % 1023,8 hPa 0,0 mm 5,7 km/h (1 Bft) W 265 ° 0 min 0,051 mm 0,0 UV-I 23 W/m² -2,3 °C 9,7 km/h (2 Bft)
11.12.2016 10:02 5,4 °C 5,5 °C 57 % 1023,7 hPa 0,0 mm 6,7 km/h (2 Bft) W-SW 258 ° 0 min 0,000 mm 0,0 UV-I 25 W/m² -2,4 °C 12,9 km/h (3 Bft)
11.12.2016 10:03 5,5 °C 5,5 °C 57 % 1023,7 hPa 0,0 mm 5,8 km/h (2 Bft) SW 220 ° 0 min 0,000 mm 0,0 UV-I 26 W/m² -2,3 °C 11,3 km/h (2 Bft)
11.12.2016 10:04 5,5 °C 5,5 °C 57 % 1023,7 hPa 0,0 mm 5,0 km/h (1 Bft) SW 234 ° 0 min 0,000 mm 0,0 UV-I 26 W/m² -2,3 °C 8,0 km/h (2 Bft)
11.12.2016 10:05 5,5 °C 5,5 °C 57 % 1023,7 hPa 0,0 mm 2,6 km/h (1 Bft) SW 234 ° 0 min 0,000 mm 0,0 UV-I 28 W/m² -2,3 °C 4,8 km/h (1 Bft)
11.12.2016 10:06 5,5 °C 5,5 °C 58 % 1023,7 hPa 0,0 mm 3,0 km/h (1 Bft) SW 234 ° 0 min 0,000 mm 0,0 UV-I 30 W/m² -2,1 °C 4,8 km/h (1 Bft)
11.12.2016 10:07 5,5 °C 5,5 °C 57 % 1023,7 hPa 0,0 mm 6,7 km/h (2 Bft) W 269 ° 0 min 0,000 mm 0,0 UV-I 32 W/m² -2,3 °C 11,3 km/h (2 Bft)
11.12.2016 10:08 5,5 °C 5,5 °C 57 % 1023,7 hPa 0,0 mm 7,5 km/h (2 Bft) W 267 ° 0 min 0,000 mm 0,0 UV-I 33 W/m² -2,3 °C 12,9 km/h (3 Bft)
11.12.2016 10:09 5,6 °C 5,6 °C 58 % 1023,8 hPa 0,0 mm 6,8 km/h (2 Bft) W 259 ° 0 min 0,000 mm 0,0 UV-I 33 W/m² -2,0 °C 14,5 km/h (3 Bft)
11.12.2016 10:10 5,6 °C 5,6 °C 57 % 1023,7 hPa 0,0 mm 7,5 km/h (2 Bft) SW 214 ° 0 min 0,000 mm 0,0 UV-I 35 W/m² -2,2 °C 12,9 km/h (3 Bft)
11.12.2016 10:11 5,6 °C 5,6 °C 57 % 1023,8 hPa 0,0 mm 9,3 km/h (2 Bft) W-SW 242 ° 0 min 0,000 mm 0,0 UV-I 35 W/m² -2,2 °C 16,1 km/h (3 Bft)
11.12.2016 10:12 5,6 °C 5,6 °C 57 % 1023,7 hPa 0,0 mm 8,6 km/h (2 Bft) S-SW 207 ° 0 min 0,000 mm 0,0 UV-I 33 W/m² -2,2 °C 12,9 km/h (3 Bft)
11.12.2016 10:13 5,6 °C 5,6 °C 57 % 1023,7 hPa 0,0 mm 8,0 km/h (2 Bft) S-SW 206 ° 0 min 0,000 mm 0,0 UV-I 33 W/m² -2,2 °C 14,5 km/h (3 Bft)
11.12.2016 10:14 5,7 °C 5,7 °C 57 % 1023,7 hPa 0,0 mm 7,6 km/h (2 Bft) S 184 ° 0 min 0,000 mm 0,0 UV-I 33 W/m² -2,1 °C 11,3 km/h (2 Bft)
11.12.2016 10:15 5,7 °C 5,7 °C 57 % 1023,7 hPa 0,0 mm 5,7 km/h (1 Bft) SW 236 ° 0 min 0,000 mm 0,0 UV-I 32 W/m² -2,1 °C 9,7 km/h (2 Bft)
11.12.2016 10:16 5,8 °C 5,8 °C 57 % 1023,7 hPa 0,0 mm 4,7 km/h (1 Bft) SW 235 ° 0 min 0,000 mm 0,0 UV-I 32 W/m² -2,0 °C 8,0 km/h (2 Bft)
11.12.2016 10:17 5,8 °C 5,8 °C 57 % 1023,7 hPa 0,0 mm 5,5 km/h (1 Bft) SW 223 ° 0 min 0,000 mm 0,0 UV-I 32 W/m² -2,0 °C 8,0 km/h (2 Bft)
11.12.2016 10:18 5,8 °C 5,8 °C 57 % 1023,6 hPa 0,0 mm 7,4 km/h (2 Bft) S-SW 207 ° 0 min 0,000 mm 0,0 UV-I 32 W/m² -2,0 °C 11,3 km/h (2 Bft)
11.12.2016 10:19 5,9 °C 5,9 °C 56 % 1023,6 hPa 0,0 mm 8,6 km/h (2 Bft) SW 216 ° 0 min 0,000 mm 0,0 UV-I 32 W/m² -2,2 °C 17,7 km/h (3 Bft)
11.12.2016 10:20 6,0 °C 6,0 °C 56 % 1023,6 hPa 0,0 mm 6,6 km/h (2 Bft) S-SW 192 ° 0 min 0,000 mm 0,0 UV-I 30 W/m² -2,1 °C 11,3 km/h (2 Bft)
11.12.2016 10:21 6,1 °C 6,1 °C 57 % 1023,6 hPa 0,0 mm 8,6 km/h (2 Bft) W-SW 257 ° 0 min 0,000 mm 0,0 UV-I 30 W/m² -1,8 °C 16,1 km/h (3 Bft)
11.12.2016 10:22 6,1 °C 6,1 °C 57 % 1023,5 hPa 0,0 mm 7,2 km/h (2 Bft) SW 236 ° 0 min 0,000 mm 0,0 UV-I 28 W/m² -1,8 °C 16,1 km/h (3 Bft)
11.12.2016 10:23 6,2 °C 6,2 °C 56 % 1023,6 hPa 0,0 mm 6,1 km/h (2 Bft) W-SW 242 ° 0 min 0,000 mm 0,0 UV-I 28 W/m² -1,9 °C 11,3 km/h (2 Bft)
11.12.2016 10:24 6,2 °C 6,2 °C 56 % 1023,6 hPa 0,0 mm 11,0 km/h (2 Bft) W-SW 254 ° 0 min 0,000 mm 0,0 UV-I 28 W/m² -1,9 °C 16,1 km/h (3 Bft)
11.12.2016 10:25 6,3 °C 6,3 °C 57 % 1023,6 hPa 0,0 mm 7,5 km/h (2 Bft) SW 222 ° 0 min 0,000 mm 0,0 UV-I 28 W/m² -1,6 °C 11,3 km/h (2 Bft)
11.12.2016 10:26 6,3 °C 6,3 °C 56 % 1023,5 hPa 0,0 mm 5,2 km/h (1 Bft) W-SW 246 ° 0 min 0,000 mm 0,0 UV-I 28 W/m² -1,8 °C 8,0 km/h (2 Bft)
11.12.2016 10:27 6,3 °C 6,3 °C 56 % 1023,6 hPa 0,0 mm 9,4 km/h (2 Bft) W-NW 284 ° 0 min 0,000 mm 0,0 UV-I 28 W/m² -1,8 °C 16,1 km/h (3 Bft)
11.12.2016 10:28 6,4 °C 6,4 °C 56 % 1023,5 hPa 0,0 mm 9,8 km/h (2 Bft) W 262 ° 0 min 0,000 mm 0,0 UV-I 28 W/m² -1,7 °C 16,1 km/h (3 Bft)
11.12.2016 10:29 6,4 °C 6,4 °C 56 % 1023,5 hPa 0,0 mm 7,8 km/h (2 Bft) W-SW 252 ° 0 min 0,000 mm 0,0 UV-I 28 W/m² -1,7 °C 17,7 km/h (3 Bft)
11.12.2016 10:30 6,5 °C 6,5 °C 57 % 1023,5 hPa 0,0 mm 10,5 km/h (2 Bft) W 279 ° 0 min 0,000 mm 0,0 UV-I 28 W/m² -1,4 °C 17,7 km/h (3 Bft)
11.12.2016 10:31 6,6 °C 6,6 °C 57 % 1023,5 hPa 0,0 mm 7,8 km/h (2 Bft) SW 234 ° 0 min 0,000 mm 0,0 UV-I 28 W/m² -1,3 °C 11,3 km/h (2 Bft)
11.12.2016 10:32 6,6 °C 6,6 °C 57 % 1023,5 hPa 0,0 mm 14,6 km/h (3 Bft) W-SW 251 ° 0 min 0,000 mm 0,0 UV-I 28 W/m² -1,3 °C 19,3 km/h (3 Bft)
11.12.2016 10:33 6,6 °C 6,6 °C 56 % 1023,5 hPa 0,0 mm 9,7 km/h (2 Bft) W 279 ° 0 min 0,000 mm 0,0 UV-I 28 W/m² -1,5 °C 16,1 km/h (3 Bft)
11.12.2016 10:34 6,6 °C 6,6 °C 57 % 1023,5 hPa 0,0 mm 13,8 km/h (3 Bft) W-NW 287 ° 0 min 0,000 mm 0,0 UV-I 30 W/m² -1,3 °C 22,5 km/h (4 Bft)
11.12.2016 10:35 6,6 °C 6,7 °C 57 % 1023,5 hPa 0,0 mm 12,5 km/h (3 Bft) W-SW 248 ° 0 min 0,000 mm 0,0 UV-I 30 W/m² -1,3 °C 17,7 km/h (3 Bft)
11.12.2016 10:36 6,7 °C 6,7 °C 57 % 1023,5 hPa 0,0 mm 11,1 km/h (2 Bft) W-SW 249 ° 0 min 0,000 mm 0,0 UV-I 32 W/m² -1,2 °C 16,1 km/h (3 Bft)
11.12.2016 10:37 6,7 °C 6,7 °C 57 % 1023,5 hPa 0,0 mm 13,3 km/h (3 Bft) SW 234 ° 0 min 0,000 mm 0,0 UV-I 33 W/m² -1,2 °C 17,7 km/h (3 Bft)
11.12.2016 10:38 6,7 °C 6,7 °C 57 % 1023,5 hPa 0,0 mm 13,7 km/h (3 Bft) W-SW 248 ° 0 min 0,000 mm 0,0 UV-I 35 W/m² -1,2 °C 19,3 km/h (3 Bft)
11.12.2016 10:39 6,8 °C 6,8 °C 57 % 1023,6 hPa 0,0 mm 11,6 km/h (2 Bft) W-SW 238 ° 0 min 0,000 mm 0,0 UV-I 35 W/m² -1,1 °C 17,7 km/h (3 Bft)
11.12.2016 10:40 6,8 °C 6,8 °C 57 % 1023,5 hPa 0,0 mm 11,7 km/h (2 Bft) W 263 ° 0 min 0,000 mm 0,0 UV-I 35 W/m² -1,1 °C 17,7 km/h (3 Bft)
11.12.2016 10:41 6,8 °C 6,8 °C 57 % 1023,5 hPa 0,0 mm 8,7 km/h (2 Bft) W-SW 240 ° 0 min 0,000 mm 0,0 UV-I 37 W/m² -1,1 °C 17,7 km/h (3 Bft)
11.12.2016 10:42 6,8 °C 6,8 °C 57 % 1023,6 hPa 0,0 mm 8,3 km/h (2 Bft) W 276 ° 0 min 0,000 mm 0,0 UV-I 39 W/m² -1,1 °C 11,3 km/h (2 Bft)
11.12.2016 10:43 6,9 °C 6,9 °C 56 % 1023,5 hPa 0,0 mm 11,8 km/h (2 Bft) W 265 ° 0 min 0,000 mm 0,0 UV-I 40 W/m² -1,3 °C 16,1 km/h (3 Bft)
11.12.2016 10:44 6,9 °C 6,9 °C 56 % 1023,5 hPa 0,0 mm 12,5 km/h (3 Bft) W 265 ° 0 min 0,000 mm 0,0 UV-I 42 W/m² -1,3 °C 16,1 km/h (3 Bft)
11.12.2016 10:45 6,9 °C 6,9 °C 56 % 1023,5 hPa 0,0 mm 13,9 km/h (3 Bft) W-SW 255 ° 0 min 0,000 mm 0,0 UV-I 44 W/m² -1,3 °C 17,7 km/h (3 Bft)
11.12.2016 10:46 7,0 °C 7,0 °C 56 % 1023,5 hPa 0,0 mm 14,6 km/h (3 Bft) W 263 ° 0 min 0,000 mm 0,0 UV-I 47 W/m² -1,2 °C 17,7 km/h (3 Bft)
11.12.2016 10:47 7,1 °C 7,1 °C 56 % 1023,5 hPa 0,0 mm 12,3 km/h (3 Bft) W-SW 248 ° 0 min 0,000 mm 0,0 UV-I 49 W/m² -1,1 °C 20,9 km/h (4 Bft)
11.12.2016 10:48 7,1 °C 7,1 °C 57 % 1023,6 hPa 0,0 mm 11,4 km/h (2 Bft) SW 221 ° 0 min 0,000 mm 0,0 UV-I 47 W/m² -0,8 °C 16,1 km/h (3 Bft)
11.12.2016 10:49 7,1 °C 7,1 °C 56 % 1023,5 hPa 0,0 mm 6,2 km/h (2 Bft) W-SW 255 ° 0 min 0,000 mm 0,0 UV-I 49 W/m² -1,1 °C 12,9 km/h (3 Bft)
11.12.2016 10:50 7,2 °C 7,2 °C 56 % 1023,5 hPa 0,0 mm 12,8 km/h (3 Bft) W-SW 248 ° 0 min 0,000 mm 0,0 UV-I 47 W/m² -1,0 °C 17,7 km/h (3 Bft)
11.12.2016 10:51 7,2 °C 7,2 °C 56 % 1023,6 hPa 0,0 mm 12,2 km/h (2 Bft) W 265 ° 0 min 0,000 mm 0,0 UV-I 47 W/m² -1,0 °C 19,3 km/h (3 Bft)
11.12.2016 10:52 7,3 °C 7,3 °C 56 % 1023,6 hPa 0,0 mm 14,6 km/h (3 Bft) W 270 ° 0 min 0,000 mm 0,0 UV-I 49 W/m² -0,9 °C 19,3 km/h (3 Bft)
11.12.2016 10:53 7,3 °C 7,3 °C 56 % 1023,4 hPa 0,0 mm 14,5 km/h (3 Bft) W 273 ° 0 min 0,000 mm 0,0 UV-I 53 W/m² -0,9 °C 22,5 km/h (4 Bft)
11.12.2016 10:54 7,4 °C 7,4 °C 56 % 1023,5 hPa 0,0 mm 10,3 km/h (2 Bft) W-SW 250 ° 0 min 0,000 mm 0,0 UV-I 53 W/m² -0,8 °C 16,1 km/h (3 Bft)
11.12.2016 10:55 7,4 °C 7,4 °C 55 % 1023,6 hPa 0,0 mm 10,4 km/h (2 Bft) W-NW 296 ° 0 min 0,000 mm 0,0 UV-I 54 W/m² -1,0 °C 17,7 km/h (3 Bft)
11.12.2016 10:56 7,4 °C 7,4 °C 55 % 1023,5 hPa 0,0 mm 12,1 km/h (2 Bft) SW 233 ° 0 min 0,000 mm 0,0 UV-I 54 W/m² -1,0 °C 19,3 km/h (3 Bft)
11.12.2016 10:57 7,5 °C 7,5 °C 55 % 1023,3 hPa 0,0 mm 15,1 km/h (3 Bft) W-SW 257 ° 0 min 0,000 mm 0,0 UV-I 54 W/m² -0,9 °C 22,5 km/h (4 Bft)
11.12.2016 10:58 7,6 °C 7,6 °C 55 % 1023,5 hPa 0,0 mm 16,3 km/h (3 Bft) W-SW 248 ° 0 min 0,000 mm 0,8 UV-I 58 W/m² -0,9 °C 24,1 km/h (4 Bft)
11.12.2016 10:59 7,7 °C 7,7 °C 55 % 1023,4 hPa 0,0 mm 18,6 km/h (3 Bft) S-SW 211 ° 0 min 0,000 mm 0,7 UV-I 67 W/m² -0,8 °C 29,0 km/h (5 Bft)
11.12.2016 11:00 7,7 °C 7,7 °C 54 % 1023,4 hPa 0,0 mm 9,8 km/h (2 Bft) W-SW 244 ° 0 min 0,000 mm 0,7 UV-I 86 W/m² -1,0 °C 14,5 km/h (3 Bft)
11.12.2016 11:01 7,8 °C 7,8 °C 55 % 1023,4 hPa 0,0 mm 10,4 km/h (2 Bft) W-SW 258 ° 0 min 0,051 mm 0,7 UV-I 102 W/m² -0,7 °C 16,1 km/h (3 Bft)
11.12.2016 11:02 7,9 °C 7,9 °C 54 % 1023,4 hPa 0,0 mm 10,4 km/h (2 Bft) W-SW 240 ° 0 min 0,000 mm 0,7 UV-I 93 W/m² -0,8 °C 17,7 km/h (3 Bft)
11.12.2016 11:03 8,1 °C 8,1 °C 53 % 1023,4 hPa 0,0 mm 13,4 km/h (3 Bft) W-SW 251 ° 0 min 0,000 mm 0,7 UV-I 86 W/m² -0,9 °C 19,3 km/h (3 Bft)
11.12.2016 11:04 8,2 °C 8,2 °C 53 % 1023,4 hPa 0,0 mm 15,4 km/h (3 Bft) W-SW 245 ° 0 min 0,000 mm 0,7 UV-I 69 W/m² -0,8 °C 20,9 km/h (4 Bft)
11.12.2016 11:05 8,3 °C 8,3 °C 53 % 1023,4 hPa 0,0 mm 10,9 km/h (2 Bft) SW 233 ° 0 min 0,000 mm 0,7 UV-I 63 W/m² -0,7 °C 16,1 km/h (3 Bft)
11.12.2016 11:06 8,3 °C 8,3 °C 53 % 1023,3 hPa 0,0 mm 9,0 km/h (2 Bft) W-SW 253 ° 0 min 0,000 mm 0,6 UV-I 63 W/m² -0,7 °C 16,1 km/h (3 Bft)
11.12.2016 11:07 8,4 °C 8,4 °C 53 % 1023,3 hPa 0,0 mm 11,9 km/h (2 Bft) S-SW 213 ° 0 min 0,000 mm 0,6 UV-I 62 W/m² -0,6 °C 20,9 km/h (4 Bft)
11.12.2016 11:08 8,4 °C 8,4 °C 52 % 1023,3 hPa 0,0 mm 13,1 km/h (3 Bft) W-SW 243 ° 0 min 0,000 mm 0,6 UV-I 60 W/m² -0,9 °C 22,5 km/h (4 Bft)
11.12.2016 11:09 8,4 °C 8,4 °C 53 % 1023,3 hPa 0,0 mm 9,6 km/h (2 Bft) W-SW 248 ° 0 min 0,000 mm 0,0 UV-I 54 W/m² -0,6 °C 17,7 km/h (3 Bft)
11.12.2016 11:10 8,4 °C 8,4 °C 52 % 1023,3 hPa 0,0 mm 16,0 km/h (3 Bft) W 265 ° 0 min 0,000 mm 0,0 UV-I 46 W/m² -0,9 °C 20,9 km/h (4 Bft)
11.12.2016 11:11 8,5 °C 8,5 °C 52 % 1023,2 hPa 0,0 mm 12,2 km/h (2 Bft) W 264 ° 0 min 0,000 mm 0,0 UV-I 47 W/m² -0,8 °C 19,3 km/h (3 Bft)
11.12.2016 11:12 8,5 °C 8,5 °C 52 % 1023,2 hPa 0,0 mm 10,7 km/h (2 Bft) W-SW 244 ° 0 min 0,000 mm 0,0 UV-I 49 W/m² -0,8 °C 14,5 km/h (3 Bft)
11.12.2016 11:13 8,5 °C 8,6 °C 52 % 1023,2 hPa 0,0 mm 8,3 km/h (2 Bft) W-SW 248 ° 0 min 0,000 mm 0,0 UV-I 46 W/m² -0,8 °C 16,1 km/h (3 Bft)
11.12.2016 11:14 8,6 °C 8,6 °C 51 % 1023,2 hPa 0,0 mm 11,3 km/h (2 Bft) W 279 ° 0 min 0,000 mm 0,0 UV-I 49 W/m² -1,0 °C 17,7 km/h (3 Bft)
11.12.2016 11:15 8,6 °C 8,6 °C 52 % 1023,2 hPa 0,0 mm 18,5 km/h (3 Bft) W 273 ° 0 min 0,000 mm 0,0 UV-I 53 W/m² -0,7 °C 20,9 km/h (4 Bft)
11.12.2016 11:16 8,6 °C 8,6 °C 51 % 1023,2 hPa 0,0 mm 13,7 km/h (3 Bft) W-SW 250 ° 0 min 0,000 mm 0,6 UV-I 56 W/m² -1,0 °C 20,9 km/h (4 Bft)
11.12.2016 11:17 8,6 °C 8,6 °C 52 % 1023,1 hPa 0,0 mm 15,2 km/h (3 Bft) SW 229 ° 0 min 0,000 mm 0,0 UV-I 54 W/m² -0,7 °C 22,5 km/h (4 Bft)
11.12.2016 11:18 8,6 °C 8,6 °C 52 % 1023,1 hPa 0,0 mm 13,6 km/h (3 Bft) W 278 ° 0 min 0,000 mm 0,0 UV-I 54 W/m² -0,7 °C 17,7 km/h (3 Bft)
11.12.2016 11:19 8,6 °C 8,6 °C 52 % 1023,2 hPa 0,0 mm 12,0 km/h (2 Bft) W-SW 258 ° 0 min 0,000 mm 0,5 UV-I 56 W/m² -0,7 °C 19,3 km/h (3 Bft)
11.12.2016 11:20 8,6 °C 8,6 °C 52 % 1023,2 hPa 0,0 mm 14,7 km/h (3 Bft) W-SW 248 ° 0 min 0,000 mm 0,5 UV-I 60 W/m² -0,7 °C 22,5 km/h (4 Bft)
11.12.2016 11:21 8,6 °C 8,6 °C 52 % 1023,2 hPa 0,0 mm 14,4 km/h (3 Bft) W-SW 238 ° 0 min 0,000 mm 0,5 UV-I 63 W/m² -0,7 °C 19,3 km/h (3 Bft)
11.12.2016 11:22 8,6 °C 8,6 °C 52 % 1023,2 hPa 0,0 mm 14,8 km/h (3 Bft) W 265 ° 0 min 0,000 mm 0,5 UV-I 72 W/m² -0,7 °C 20,9 km/h (4 Bft)
11.12.2016 11:23 8,6 °C 8,6 °C 52 % 1023,2 hPa 0,0 mm 15,8 km/h (3 Bft) W-SW 250 ° 0 min 0,000 mm 0,0 UV-I 69 W/m² -0,7 °C 22,5 km/h (4 Bft)
11.12.2016 11:24 8,7 °C 8,7 °C 52 % 1023,1 hPa 0,0 mm 20,4 km/h (4 Bft) SW 220 ° 0 min 0,000 mm 0,0 UV-I 69 W/m² -0,6 °C 27,4 km/h (4 Bft)
11.12.2016 11:25 8,7 °C 8,7 °C 52 % 1023,1 hPa 0,0 mm 14,3 km/h (3 Bft) W 262 ° 0 min 0,000 mm 0,0 UV-I 77 W/m² -0,6 °C 19,3 km/h (3 Bft)
11.12.2016 11:26 8,7 °C 8,7 °C 52 % 1023,1 hPa 0,0 mm 12,5 km/h (3 Bft) W 273 ° 0 min 0,000 mm 0,0 UV-I 86 W/m² -0,6 °C 19,3 km/h (3 Bft)
11.12.2016 11:27 8,8 °C 8,8 °C 52 % 1023,1 hPa 0,0 mm 15,8 km/h (3 Bft) W 278 ° 0 min 0,000 mm 0,0 UV-I 88 W/m² -0,5 °C 20,9 km/h (4 Bft)
11.12.2016 11:28 8,8 °C 8,8 °C 52 % 1023,1 hPa 0,0 mm 19,3 km/h (3 Bft) W 264 ° 0 min 0,000 mm 0,0 UV-I 88 W/m² -0,5 °C 29,0 km/h (5 Bft)
11.12.2016 11:29 8,8 °C 8,8 °C 52 % 1023,1 hPa 0,0 mm 15,6 km/h (3 Bft) SW 217 ° 0 min 0,000 mm 0,5 UV-I 97 W/m² -0,5 °C 22,5 km/h (4 Bft)
11.12.2016 11:30 8,9 °C 8,9 °C 51 % 1023,1 hPa 0,0 mm 14,9 km/h (3 Bft) W-NW 290 ° 0 min 0,000 mm 0,6 UV-I 109 W/m² -0,7 °C 20,9 km/h (4 Bft)
11.12.2016 11:31 8,9 °C 8,9 °C 52 % 1023,1 hPa 0,0 mm 15,1 km/h (3 Bft) W 276 ° 0 min 0,000 mm 0,6 UV-I 116 W/m² -0,4 °C 19,3 km/h (3 Bft)
11.12.2016 11:32 9,0 °C 9,0 °C 52 % 1023,1 hPa 0,0 mm 19,2 km/h (3 Bft) W 266 ° 0 min 0,000 mm 0,6 UV-I 104 W/m² -0,3 °C 24,1 km/h (4 Bft)
11.12.2016 11:33 9,1 °C 9,1 °C 51 % 1023,1 hPa 0,0 mm 14,8 km/h (3 Bft) W 275 ° 0 min 0,000 mm 0,5 UV-I 86 W/m² -0,5 °C 19,3 km/h (3 Bft)
11.12.2016 11:34 9,1 °C 9,1 °C 51 % 1023,2 hPa 0,0 mm 13,1 km/h (3 Bft) NW 306 ° 0 min 0,000 mm 0,5 UV-I 88 W/m² -0,5 °C 20,9 km/h (4 Bft)
11.12.2016 11:35 9,1 °C 9,1 °C 51 % 1023,2 hPa 0,0 mm 12,3 km/h (3 Bft) W 269 ° 0 min 0,000 mm 0,5 UV-I 88 W/m² -0,5 °C 17,7 km/h (3 Bft)
11.12.2016 11:36 9,1 °C 9,1 °C 51 % 1023,2 hPa 0,0 mm 11,2 km/h (2 Bft) W-NW 283 ° 0 min 0,000 mm 0,5 UV-I 84 W/m² -0,5 °C 14,5 km/h (3 Bft)
11.12.2016 11:37 9,1 °C 9,1 °C 50 % 1023,2 hPa 0,0 mm 12,1 km/h (2 Bft) W-SW 252 ° 0 min 0,000 mm 0,5 UV-I 84 W/m² -0,8 °C 14,5 km/h (3 Bft)
11.12.2016 11:38 9,1 °C 9,1 °C 51 % 1023,2 hPa 0,0 mm 12,8 km/h (3 Bft) W 271 ° 0 min 0,000 mm 0,5 UV-I 84 W/m² -0,5 °C 17,7 km/h (3 Bft)
11.12.2016 11:39 9,1 °C 9,1 °C 51 % 1023,2 hPa 0,0 mm 12,5 km/h (3 Bft) W-NW 286 ° 0 min 0,000 mm 0,6 UV-I 88 W/m² -0,5 °C 16,1 km/h (3 Bft)
11.12.2016 11:40 9,0 °C 9,1 °C 50 % 1023,3 hPa 0,0 mm 11,5 km/h (2 Bft) W 265 ° 0 min 0,000 mm 0,6 UV-I 90 W/m² -0,9 °C 17,7 km/h (3 Bft)
11.12.2016 11:41 9,0 °C 9,1 °C 50 % 1023,2 hPa 0,0 mm 14,6 km/h (3 Bft) W-NW 287 ° 0 min 0,000 mm 0,6 UV-I 93 W/m² -0,9 °C 22,5 km/h (4 Bft)
11.12.2016 11:42 8,9 °C 9,0 °C 51 % 1023,2 hPa 0,0 mm 13,9 km/h (3 Bft) W 279 ° 0 min 0,000 mm 0,6 UV-I 97 W/m² -0,7 °C 19,3 km/h (3 Bft)
11.12.2016 11:43 8,9 °C 8,9 °C 52 % 1023,2 hPa 0,0 mm 12,5 km/h (3 Bft) W-NW 286 ° 0 min 0,000 mm 0,6 UV-I 97 W/m² -0,4 °C 17,7 km/h (3 Bft)
11.12.2016 11:44 8,8 °C 8,9 °C 52 % 1023,2 hPa 0,0 mm 6,6 km/h (2 Bft) W 273 ° 0 min 0,000 mm 0,6 UV-I 91 W/m² -0,5 °C 14,5 km/h (3 Bft)
11.12.2016 11:45 8,7 °C 8,8 °C 52 % 1023,2 hPa 0,0 mm 8,1 km/h (2 Bft) W 272 ° 0 min 0,000 mm 0,5 UV-I 81 W/m² -0,6 °C 12,9 km/h (3 Bft)
11.12.2016 11:46 8,7 °C 8,7 °C 53 % 1023,2 hPa 0,0 mm 9,4 km/h (2 Bft) W-NW 284 ° 0 min 0,000 mm 0,5 UV-I 77 W/m² -0,3 °C 12,9 km/h (3 Bft)
11.12.2016 11:47 8,6 °C 8,7 °C 53 % 1023,2 hPa 0,0 mm 10,4 km/h (2 Bft) SW 234 ° 0 min 0,000 mm 0,0 UV-I 65 W/m² -0,4 °C 14,5 km/h (3 Bft)
11.12.2016 11:48 8,5 °C 8,6 °C 54 % 1023,1 hPa 0,0 mm 11,7 km/h (2 Bft) W-SW 255 ° 0 min 0,000 mm 0,0 UV-I 60 W/m² -0,3 °C 17,7 km/h (3 Bft)
11.12.2016 11:49 8,4 °C 8,6 °C 54 % 1023,1 hPa 0,0 mm 9,5 km/h (2 Bft) NW 312 ° 0 min 0,000 mm 0,0 UV-I 58 W/m² -0,4 °C 22,5 km/h (4 Bft)
11.12.2016 11:50 8,4 °C 8,4 °C 54 % 1023,2 hPa 0,0 mm 11,6 km/h (2 Bft) W 275 ° 0 min 0,000 mm 0,0 UV-I 51 W/m² -0,4 °C 19,3 km/h (3 Bft)
11.12.2016 11:51 8,4 °C 8,4 °C 54 % 1023,2 hPa 0,0 mm 15,0 km/h (3 Bft) W 280 ° 0 min 0,000 mm 0,0 UV-I 42 W/m² -0,4 °C 17,7 km/h (3 Bft)
11.12.2016 11:52 8,4 °C 8,4 °C 55 % 1023,2 hPa 0,0 mm 12,8 km/h (3 Bft) W 261 ° 0 min 0,000 mm 0,0 UV-I 40 W/m² -0,1 °C 17,7 km/h (3 Bft)
11.12.2016 11:53 8,4 °C 8,4 °C 55 % 1023,2 hPa 0,0 mm 13,7 km/h (3 Bft) W 261 ° 0 min 0,000 mm 0,0 UV-I 44 W/m² -0,1 °C 19,3 km/h (3 Bft)
11.12.2016 11:54 8,4 °C 8,4 °C 55 % 1023,3 hPa 0,0 mm 10,5 km/h (2 Bft) W-SW 250 ° 0 min 0,000 mm 0,0 UV-I 51 W/m² -0,1 °C 16,1 km/h (3 Bft)
11.12.2016 11:55 8,3 °C 8,4 °C 56 % 1023,2 hPa 0,0 mm 15,4 km/h (3 Bft) SW 235 ° 0 min 0,000 mm 0,0 UV-I 56 W/m² 0,0 °C 19,3 km/h (3 Bft)
11.12.2016 11:56 8,3 °C 8,3 °C 56 % 1023,2 hPa 0,0 mm 18,6 km/h (3 Bft) W-SW 250 ° 0 min 0,000 mm 0,0 UV-I 60 W/m² 0,0 °C 29,0 km/h (5 Bft)
11.12.2016 11:57 8,2 °C 8,3 °C 56 % 1023,2 hPa 0,0 mm 13,9 km/h (3 Bft) W 280 ° 0 min 0,000 mm 0,0 UV-I 67 W/m² -0,0 °C 22,5 km/h (4 Bft)
11.12.2016 11:58 8,2 °C 8,2 °C 57 % 1023,0 hPa 0,0 mm 14,8 km/h (3 Bft) W-NW 289 ° 0 min 0,000 mm 0,5 UV-I 70 W/m² 0,2 °C 20,9 km/h (4 Bft)
11.12.2016 11:59 8,1 °C 8,2 °C 57 % 1023,1 hPa 0,0 mm 11,9 km/h (2 Bft) W-NW 292 ° 0 min 0,000 mm 0,5 UV-I 74 W/m² 0,1 °C 17,7 km/h (3 Bft)
11.12.2016 12:00 8,1 °C 8,2 °C 58 % 1023,1 hPa 0,0 mm 13,9 km/h (3 Bft) W-NW 296 ° 0 min 0,000 mm 0,5 UV-I 76 W/m² 0,3 °C 17,7 km/h (3 Bft)
11.12.2016 12:01 8,1 °C 8,1 °C 58 % 1023,1 hPa 0,0 mm 10,8 km/h (2 Bft) W 281 ° 0 min 0,102 mm 0,5 UV-I 77 W/m² 0,3 °C 14,5 km/h (3 Bft)
11.12.2016 12:02 8,0 °C 8,1 °C 58 % 1023,2 hPa 0,0 mm 8,7 km/h (2 Bft) NW 304 ° 0 min 0,000 mm 0,5 UV-I 81 W/m² 0,3 °C 12,9 km/h (3 Bft)
11.12.2016 12:03 7,9 °C 8,0 °C 59 % 1023,1 hPa 0,0 mm 9,1 km/h (2 Bft) W 281 ° 0 min 0,000 mm 0,6 UV-I 88 W/m² 0,4 °C 14,5 km/h (3 Bft)
11.12.2016 12:04 7,9 °C 7,9 °C 59 % 1023,1 hPa 0,0 mm 10,1 km/h (2 Bft) W 259 ° 0 min 0,000 mm 0,6 UV-I 91 W/m² 0,4 °C 16,1 km/h (3 Bft)
11.12.2016 12:05 7,8 °C 7,9 °C 59 % 1023,1 hPa 0,0 mm 12,2 km/h (2 Bft) W-SW 252 ° 0 min 0,000 mm 0,7 UV-I 97 W/m² 0,3 °C 16,1 km/h (3 Bft)
11.12.2016 12:06 7,8 °C 7,9 °C 60 % 1023,0 hPa 0,0 mm 14,4 km/h (3 Bft) SW 223 ° 0 min 0,000 mm 0,7 UV-I 98 W/m² 0,5 °C 22,5 km/h (4 Bft)
11.12.2016 12:07 7,8 °C 7,8 °C 61 % 1023,0 hPa 0,0 mm 13,8 km/h (3 Bft) W-NW 283 ° 0 min 0,000 mm 0,7 UV-I 98 W/m² 0,8 °C 20,9 km/h (4 Bft)
11.12.2016 12:08 7,7 °C 7,8 °C 61 % 1023,0 hPa 0,0 mm 16,0 km/h (3 Bft) W-NW 282 ° 0 min 0,000 mm 0,7 UV-I 100 W/m² 0,7 °C 22,5 km/h (4 Bft)
11.12.2016 12:09 7,7 °C 7,7 °C 62 % 1023,1 hPa 0,0 mm 13,5 km/h (3 Bft) W 263 ° 0 min 0,000 mm 0,7 UV-I 100 W/m² 0,9 °C 19,3 km/h (3 Bft)
11.12.2016 12:10 7,7 °C 7,7 °C 62 % 1023,1 hPa 0,0 mm 15,6 km/h (3 Bft) W-NW 286 ° 0 min 0,000 mm 0,7 UV-I 98 W/m² 0,9 °C 22,5 km/h (4 Bft)
11.12.2016 12:11 7,6 °C 7,7 °C 62 % 1023,2 hPa 0,0 mm 16,2 km/h (3 Bft) W-SW 246 ° 0 min 0,000 mm 0,8 UV-I 104 W/m² 0,8 °C 22,5 km/h (4 Bft)
11.12.2016 12:12 7,6 °C 7,6 °C 64 % 1023,1 hPa 0,0 mm 14,6 km/h (3 Bft) W 279 ° 0 min 0,000 mm 0,8 UV-I 114 W/m² 1,2 °C 24,1 km/h (4 Bft)
11.12.2016 12:13 7,4 °C 7,6 °C 64 % 1023,0 hPa 0,0 mm 17,3 km/h (3 Bft) W 279 ° 0 min 0,000 mm 0,9 UV-I 127 W/m² 1,0 °C 22,5 km/h (4 Bft)
11.12.2016 12:14 7,4 °C 7,5 °C 65 % 1023,0 hPa 0,0 mm 17,3 km/h (3 Bft) W-SW 254 ° 0 min 0,000 mm 0,9 UV-I 139 W/m² 1,3 °C 25,7 km/h (4 Bft)
11.12.2016 12:15 7,4 °C 7,4 °C 65 % 1023,0 hPa 0,0 mm 16,8 km/h (3 Bft) W 266 ° 0 min 0,000 mm 0,9 UV-I 146 W/m² 1,3 °C 20,9 km/h (4 Bft)
11.12.2016 12:16 7,4 °C 7,4 °C 64 % 1023,0 hPa 0,0 mm 16,2 km/h (3 Bft) W 279 ° 0 min 0,000 mm 0,8 UV-I 142 W/m² 1,0 °C 22,5 km/h (4 Bft)
11.12.2016 12:17 7,4 °C 7,4 °C 65 % 1023,0 hPa 0,0 mm 13,4 km/h (3 Bft) W-SW 252 ° 0 min 0,000 mm 0,8 UV-I 132 W/m² 1,3 °C 20,9 km/h (4 Bft)
11.12.2016 12:18 7,3 °C 7,4 °C 65 % 1023,0 hPa 0,0 mm 14,6 km/h (3 Bft) W-NW 286 ° 0 min 0,000 mm 0,7 UV-I 118 W/m² 1,2 °C 24,1 km/h (4 Bft)
11.12.2016 12:19 7,3 °C 7,3 °C 65 % 1023,0 hPa 0,0 mm 16,0 km/h (3 Bft) W 274 ° 0 min 0,000 mm 0,7 UV-I 105 W/m² 1,2 °C 20,9 km/h (4 Bft)
11.12.2016 12:20 7,3 °C 7,3 °C 64 % 1023,0 hPa 0,0 mm 14,6 km/h (3 Bft) W 262 ° 0 min 0,000 mm 0,6 UV-I 84 W/m² 1,0 °C 19,3 km/h (3 Bft)
11.12.2016 12:21 7,3 °C 7,3 °C 65 % 1023,0 hPa 0,0 mm 16,2 km/h (3 Bft) W 279 ° 0 min 0,000 mm 0,5 UV-I 76 W/m² 1,2 °C 24,1 km/h (4 Bft)
11.12.2016 12:22 7,3 °C 7,3 °C 65 % 1023,0 hPa 0,0 mm 15,7 km/h (3 Bft) NW 318 ° 0 min 0,000 mm 0,5 UV-I 70 W/m² 1,2 °C 20,9 km/h (4 Bft)
11.12.2016 12:23 7,3 °C 7,3 °C 64 % 1022,9 hPa 0,0 mm 20,0 km/h (4 Bft) W 266 ° 0 min 0,000 mm 0,5 UV-I 67 W/m² 1,0 °C 29,0 km/h (5 Bft)
11.12.2016 12:24 7,3 °C 7,3 °C 65 % 1023,0 hPa 0,0 mm 17,5 km/h (3 Bft) W-SW 256 ° 0 min 0,000 mm 0,0 UV-I 60 W/m² 1,2 °C 27,4 km/h (4 Bft)
11.12.2016 12:25 7,3 °C 7,3 °C 65 % 1023,1 hPa 0,0 mm 17,3 km/h (3 Bft) W 277 ° 0 min 0,000 mm 0,0 UV-I 53 W/m² 1,2 °C 24,1 km/h (4 Bft)
11.12.2016 12:26 7,2 °C 7,3 °C 65 % 1023,1 hPa 0,0 mm 14,6 km/h (3 Bft) W 279 ° 0 min 0,000 mm 0,0 UV-I 44 W/m² 1,1 °C 25,7 km/h (4 Bft)
11.12.2016 12:27 7,2 °C 7,3 °C 65 % 1023,1 hPa 0,0 mm 15,4 km/h (3 Bft) W-NW 283 ° 0 min 0,000 mm 0,0 UV-I 40 W/m² 1,1 °C 20,9 km/h (4 Bft)
11.12.2016 12:28 7,2 °C 7,2 °C 65 % 1023,1 hPa 0,0 mm 13,6 km/h (3 Bft) W 278 ° 0 min 0,000 mm 0,0 UV-I 35 W/m² 1,1 °C 22,5 km/h (4 Bft)
11.12.2016 12:29 7,2 °C 7,2 °C 66 % 1023,1 hPa 0,0 mm 16,2 km/h (3 Bft) W 261 ° 0 min 0,000 mm 0,0 UV-I 28 W/m² 1,3 °C 24,1 km/h (4 Bft)
11.12.2016 12:30 7,2 °C 7,2 °C 66 % 1023,1 hPa 0,0 mm 21,9 km/h (4 Bft) W 270 ° 0 min 0,000 mm 0,0 UV-I 23 W/m² 1,3 °C 29,0 km/h (5 Bft)
11.12.2016 12:31 7,2 °C 7,2 °C 65 % 1023,2 hPa 0,0 mm 19,1 km/h (3 Bft) W 277 ° 0 min 0,000 mm 0,0 UV-I 21 W/m² 1,1 °C 33,8 km/h (5 Bft)
11.12.2016 12:32 7,1 °C 7,2 °C 65 % 1023,1 hPa 0,0 mm 18,7 km/h (3 Bft) W 269 ° 0 min 0,000 mm 0,0 UV-I 35 W/m² 1,0 °C 27,4 km/h (4 Bft)
11.12.2016 12:33 7,2 °C 7,2 °C 66 % 1023,2 hPa 0,0 mm 14,6 km/h (3 Bft) W 265 ° 0 min 0,000 mm 0,0 UV-I 47 W/m² 1,3 °C 25,7 km/h (4 Bft)
11.12.2016 12:34 7,2 °C 7,2 °C 66 % 1023,1 hPa 0,0 mm 16,0 km/h (3 Bft) W-NW 288 ° 0 min 0,000 mm 0,0 UV-I 54 W/m² 1,3 °C 25,7 km/h (4 Bft)
11.12.2016 12:35 7,2 °C 7,2 °C 67 % 1023,1 hPa 0,0 mm 17,9 km/h (3 Bft) W-SW 254 ° 0 min 0,000 mm 0,0 UV-I 56 W/m² 1,5 °C 24,1 km/h (4 Bft)
11.12.2016 12:36 7,1 °C 7,2 °C 67 % 1023,0 hPa 0,0 mm 20,0 km/h (4 Bft) W 260 ° 0 min 0,000 mm 0,0 UV-I 58 W/m² 1,4 °C 24,1 km/h (4 Bft)
11.12.2016 12:37 7,1 °C 7,1 °C 67 % 1023,0 hPa 0,0 mm 23,6 km/h (4 Bft) W 271 ° 0 min 0,000 mm 0,0 UV-I 60 W/m² 1,4 °C 35,4 km/h (5 Bft)
11.12.2016 12:38 7,1 °C 7,1 °C 68 % 1023,0 hPa 0,0 mm 15,2 km/h (3 Bft) W 272 ° 0 min 0,000 mm 0,0 UV-I 63 W/m² 1,6 °C 22,5 km/h (4 Bft)
11.12.2016 12:39 7,0 °C 7,1 °C 69 % 1022,9 hPa 0,0 mm 15,9 km/h (3 Bft) W-SW 250 ° 0 min 0,000 mm 0,0 UV-I 65 W/m² 1,7 °C 20,9 km/h (4 Bft)
11.12.2016 12:40 6,9 °C 7,0 °C 69 % 1022,9 hPa 0,0 mm 17,6 km/h (3 Bft) W-SW 251 ° 0 min 0,000 mm 0,5 UV-I 70 W/m² 1,6 °C 22,5 km/h (4 Bft)
11.12.2016 12:41 6,9 °C 6,9 °C 70 % 1022,9 hPa 0,0 mm 17,4 km/h (3 Bft) W-NW 291 ° 0 min 0,000 mm 0,5 UV-I 74 W/m² 1,8 °C 24,1 km/h (4 Bft)
11.12.2016 12:42 6,9 °C 6,9 °C 70 % 1022,9 hPa 0,0 mm 19,4 km/h (3 Bft) W 267 ° 0 min 0,000 mm 0,5 UV-I 74 W/m² 1,8 °C 24,1 km/h (4 Bft)
11.12.2016 12:43 6,8 °C 6,9 °C 71 % 1022,9 hPa 0,0 mm 16,0 km/h (3 Bft) W 260 ° 0 min 0,000 mm 0,5 UV-I 70 W/m² 1,9 °C 22,5 km/h (4 Bft)
11.12.2016 12:44 6,8 °C 6,8 °C 72 % 1022,9 hPa 0,0 mm 16,9 km/h (3 Bft) W-SW 246 ° 0 min 0,000 mm 0,5 UV-I 74 W/m² 2,1 °C 25,7 km/h (4 Bft)
11.12.2016 12:45 6,8 °C 6,8 °C 72 % 1022,9 hPa 0,0 mm 17,3 km/h (3 Bft) W-SW 255 ° 0 min 0,000 mm 0,5 UV-I 81 W/m² 2,1 °C 29,0 km/h (5 Bft)
11.12.2016 12:46 6,7 °C 6,8 °C 72 % 1022,8 hPa 0,0 mm 23,4 km/h (4 Bft) W 263 ° 0 min 0,000 mm 0,6 UV-I 93 W/m² 2,0 °C 32,2 km/h (5 Bft)
11.12.2016 12:47 6,6 °C 6,7 °C 73 % 1022,9 hPa 0,0 mm 16,8 km/h (3 Bft) W-NW 283 ° 0 min 0,000 mm 0,6 UV-I 105 W/m² 2,1 °C 25,7 km/h (4 Bft)
11.12.2016 12:48 6,6 °C 6,6 °C 73 % 1022,9 hPa 0,0 mm 11,9 km/h (2 Bft) W-NW 297 ° 0 min 0,000 mm 0,6 UV-I 104 W/m² 2,1 °C 16,1 km/h (3 Bft)
11.12.2016 12:49 6,5 °C 6,6 °C 75 % 1022,9 hPa 0,0 mm 15,9 km/h (3 Bft) W-NW 286 ° 0 min 0,000 mm 0,6 UV-I 97 W/m² 2,4 °C 22,5 km/h (4 Bft)
11.12.2016 12:50 6,4 °C 6,5 °C 76 % 1022,8 hPa 0,0 mm 17,4 km/h (3 Bft) W 260 ° 0 min 0,000 mm 0,6 UV-I 91 W/m² 2,5 °C 25,7 km/h (4 Bft)
11.12.2016 12:51 6,4 °C 6,4 °C 75 % 1022,7 hPa 0,0 mm 12,9 km/h (3 Bft) W-SW 238 ° 0 min 0,000 mm 0,6 UV-I 91 W/m² 2,3 °C 17,7 km/h (3 Bft)
11.12.2016 12:52 6,4 °C 6,4 °C 75 % 1022,6 hPa 0,0 mm 11,5 km/h (2 Bft) S-SW 209 ° 0 min 0,000 mm 0,6 UV-I 104 W/m² 2,3 °C 16,1 km/h (3 Bft)
11.12.2016 12:53 6,4 °C 6,4 °C 75 % 1022,6 hPa 0,0 mm 12,5 km/h (3 Bft) SW 216 ° 0 min 0,000 mm 0,7 UV-I 118 W/m² 2,3 °C 16,1 km/h (3 Bft)
11.12.2016 12:54 6,4 °C 6,4 °C 75 % 1022,6 hPa 0,0 mm 15,4 km/h (3 Bft) W-SW 245 ° 0 min 0,000 mm 0,7 UV-I 116 W/m² 2,3 °C 22,5 km/h (4 Bft)
11.12.2016 12:55 6,4 °C 6,4 °C 76 % 1022,6 hPa 0,0 mm 8,2 km/h (2 Bft) W-SW 243 ° 0 min 0,000 mm 0,7 UV-I 109 W/m² 2,5 °C 14,5 km/h (3 Bft)
11.12.2016 12:56 6,4 °C 6,4 °C 75 % 1022,5 hPa 0,0 mm 11,5 km/h (2 Bft) SW 232 ° 0 min 0,000 mm 0,7 UV-I 116 W/m² 2,3 °C 19,3 km/h (3 Bft)
11.12.2016 12:57 6,4 °C 6,4 °C 76 % 1022,5 hPa 0,0 mm 14,9 km/h (3 Bft) W-SW 252 ° 0 min 0,000 mm 0,7 UV-I 113 W/m² 2,5 °C 24,1 km/h (4 Bft)
11.12.2016 12:58 6,4 °C 6,4 °C 76 % 1022,5 hPa 0,0 mm 8,4 km/h (2 Bft) W-SW 254 ° 0 min 0,000 mm 0,7 UV-I 113 W/m² 2,5 °C 14,5 km/h (3 Bft)
11.12.2016 12:59 6,4 °C 6,4 °C 76 % 1022,5 hPa 0,0 mm 13,7 km/h (3 Bft) W-NW 283 ° 0 min 0,000 mm 0,7 UV-I 120 W/m² 2,5 °C 20,9 km/h (4 Bft)
11.12.2016 13:00 6,4 °C 6,4 °C 76 % 1022,4 hPa 0,0 mm 12,4 km/h (3 Bft) W-SW 248 ° 0 min 0,000 mm 0,8 UV-I 127 W/m² 2,5 °C 19,3 km/h (3 Bft)
11.12.2016 13:01 6,4 °C 6,4 °C 77 % 1022,4 hPa 0,0 mm 13,7 km/h (3 Bft) W 274 ° 0 min 0,076 mm 0,8 UV-I 132 W/m² 2,7 °C 16,1 km/h (3 Bft)
11.12.2016 13:02 6,4 °C 6,4 °C 78 % 1022,4 hPa 0,0 mm 11,8 km/h (2 Bft) SW 226 ° 0 min 0,000 mm 0,8 UV-I 120 W/m² 2,8 °C 14,5 km/h (3 Bft)
11.12.2016 13:03 6,4 °C 6,4 °C 76 % 1022,4 hPa 0,0 mm 10,6 km/h (2 Bft) W-SW 248 ° 0 min 0,000 mm 0,8 UV-I 123 W/m² 2,5 °C 17,7 km/h (3 Bft)
11.12.2016 13:04 6,5 °C 6,5 °C 77 % 1022,4 hPa 0,0 mm 13,4 km/h (3 Bft) W 277 ° 0 min 0,000 mm 0,8 UV-I 125 W/m² 2,8 °C 17,7 km/h (3 Bft)
11.12.2016 13:05 6,5 °C 6,5 °C 76 % 1022,3 hPa 0,0 mm 12,9 km/h (3 Bft) W-SW 252 ° 0 min 0,000 mm 0,8 UV-I 125 W/m² 2,6 °C 19,3 km/h (3 Bft)
11.12.2016 13:06 6,5 °C 6,5 °C 76 % 1022,2 hPa 0,0 mm 11,3 km/h (2 Bft) W-SW 252 ° 0 min 0,000 mm 0,8 UV-I 127 W/m² 2,6 °C 14,5 km/h (3 Bft)
11.12.2016 13:07 6,5 °C 6,5 °C 76 % 1022,2 hPa 0,0 mm 11,0 km/h (2 Bft) SW 229 ° 0 min 0,000 mm 0,8 UV-I 127 W/m² 2,6 °C 17,7 km/h (3 Bft)
11.12.2016 13:08 6,5 °C 6,6 °C 77 % 1022,1 hPa 0,0 mm 10,0 km/h (2 Bft) W 263 ° 0 min 0,000 mm 0,9 UV-I 127 W/m² 2,8 °C 17,7 km/h (3 Bft)
11.12.2016 13:09 6,6 °C 6,6 °C 76 % 1022,1 hPa 0,0 mm 14,3 km/h (3 Bft) W-SW 251 ° 0 min 0,000 mm 0,9 UV-I 123 W/m² 2,7 °C 17,7 km/h (3 Bft)
11.12.2016 13:10 6,6 °C 6,6 °C 76 % 1022,1 hPa 0,0 mm 10,7 km/h (2 Bft) W 275 ° 0 min 0,000 mm 0,9 UV-I 120 W/m² 2,7 °C 14,5 km/h (3 Bft)
11.12.2016 13:11 6,6 °C 6,6 °C 76 % 1022,1 hPa 0,0 mm 18,3 km/h (3 Bft) W 277 ° 0 min 0,000 mm 0,9 UV-I 113 W/m² 2,7 °C 27,4 km/h (4 Bft)
11.12.2016 13:12 6,6 °C 6,6 °C 75 % 1022,0 hPa 0,0 mm 15,6 km/h (3 Bft) W-SW 257 ° 0 min 0,000 mm 0,9 UV-I 104 W/m² 2,5 °C 20,9 km/h (4 Bft)
11.12.2016 13:13 6,6 °C 6,6 °C 76 % 1022,0 hPa 0,0 mm 14,3 km/h (3 Bft) W-SW 246 ° 0 min 0,000 mm 0,9 UV-I 88 W/m² 2,7 °C 19,3 km/h (3 Bft)
11.12.2016 13:14 6,5 °C 6,6 °C 76 % 1021,9 hPa 0,0 mm 9,4 km/h (2 Bft) SW 229 ° 0 min 0,000 mm 0,8 UV-I 74 W/m² 2,6 °C 17,7 km/h (3 Bft)
11.12.2016 13:15 6,5 °C 6,6 °C 75 % 1021,9 hPa 0,0 mm 11,1 km/h (2 Bft) W 259 ° 0 min 0,000 mm 0,8 UV-I 63 W/m² 2,4 °C 16,1 km/h (3 Bft)
11.12.2016 13:16 6,6 °C 6,6 °C 75 % 1021,8 hPa 0,0 mm 10,3 km/h (2 Bft) W 264 ° 0 min 0,000 mm 0,0 UV-I 54 W/m² 2,5 °C 17,7 km/h (3 Bft)
11.12.2016 13:17 6,4 °C 6,6 °C 75 % 1021,8 hPa 0,0 mm 18,2 km/h (3 Bft) W-SW 256 ° 0 min 0,000 mm 0,0 UV-I 47 W/m² 2,3 °C 22,5 km/h (4 Bft)
11.12.2016 13:18 6,5 °C 6,5 °C 75 % 1021,9 hPa 0,0 mm 12,1 km/h (2 Bft) W 281 ° 0 min 0,000 mm 0,0 UV-I 47 W/m² 2,4 °C 16,1 km/h (3 Bft)
11.12.2016 13:19 6,4 °C 6,5 °C 75 % 1022,0 hPa 0,0 mm 8,2 km/h (2 Bft) W 279 ° 0 min 0,000 mm 0,0 UV-I 72 W/m² 2,3 °C 12,9 km/h (3 Bft)
11.12.2016 13:20 6,3 °C 6,4 °C 76 % 1022,1 hPa 0,0 mm 6,4 km/h (2 Bft) W 271 ° 0 min 0,000 mm 0,8 UV-I 105 W/m² 2,4 °C 9,7 km/h (2 Bft)
11.12.2016 13:21 6,3 °C 6,3 °C 76 % 1022,2 hPa 0,0 mm 6,4 km/h (2 Bft) W 280 ° 0 min 0,000 mm 0,8 UV-I 134 W/m² 2,4 °C 12,9 km/h (3 Bft)
11.12.2016 13:22 6,3 °C 6,3 °C 77 % 1022,2 hPa 0,0 mm 8,0 km/h (2 Bft) W-NW 288 ° 0 min 0,000 mm 0,8 UV-I 151 W/m² 2,6 °C 14,5 km/h (3 Bft)
11.12.2016 13:23 6,4 °C 6,4 °C 76 % 1022,2 hPa 0,0 mm 12,0 km/h (2 Bft) W-NW 292 ° 0 min 0,000 mm 0,8 UV-I 148 W/m² 2,5 °C 16,1 km/h (3 Bft)
11.12.2016 13:24 6,5 °C 6,5 °C 76 % 1022,2 hPa 0,0 mm 8,1 km/h (2 Bft) W 277 ° 0 min 0,000 mm 0,7 UV-I 130 W/m² 2,6 °C 14,5 km/h (3 Bft)
11.12.2016 13:25 6,6 °C 6,6 °C 76 % 1022,2 hPa 0,0 mm 11,2 km/h (2 Bft) W-NW 288 ° 0 min 0,000 mm 0,6 UV-I 105 W/m² 2,7 °C 16,1 km/h (3 Bft)
11.12.2016 13:26 6,6 °C 6,6 °C 76 % 1022,3 hPa 0,0 mm 11,1 km/h (2 Bft) W 267 ° 0 min 0,000 mm 0,5 UV-I 98 W/m² 2,7 °C 24,1 km/h (4 Bft)
11.12.2016 13:27 6,7 °C 6,7 °C 75 % 1022,4 hPa 0,0 mm 15,6 km/h (3 Bft) W 263 ° 0 min 0,000 mm 0,5 UV-I 100 W/m² 2,6 °C 20,9 km/h (4 Bft)
11.12.2016 13:28 6,7 °C 6,7 °C 74 % 1022,4 hPa 0,0 mm 10,9 km/h (2 Bft) W-NW 293 ° 0 min 0,000 mm 0,5 UV-I 95 W/m² 2,4 °C 16,1 km/h (3 Bft)
11.12.2016 13:29 6,7 °C 6,7 °C 74 % 1022,4 hPa 0,0 mm 11,5 km/h (2 Bft) W 264 ° 0 min 0,000 mm 0,5 UV-I 84 W/m² 2,4 °C 17,7 km/h (3 Bft)
11.12.2016 13:30 6,7 °C 6,7 °C 74 % 1022,4 hPa 0,0 mm 9,3 km/h (2 Bft) W-NW 301 ° 0 min 0,000 mm 0,0 UV-I 74 W/m² 2,4 °C 12,9 km/h (3 Bft)
11.12.2016 13:31 6,7 °C 6,7 °C 73 % 1022,3 hPa 0,0 mm 13,1 km/h (3 Bft) W-SW 250 ° 0 min 0,000 mm 0,0 UV-I 65 W/m² 2,2 °C 20,9 km/h (4 Bft)
11.12.2016 13:32 6,7 °C 6,7 °C 74 % 1022,4 hPa 0,0 mm 8,7 km/h (2 Bft) W 281 ° 0 min 0,000 mm 0,0 UV-I 67 W/m² 2,4 °C 14,5 km/h (3 Bft)
11.12.2016 13:33 6,7 °C 6,7 °C 74 % 1022,5 hPa 0,0 mm 9,5 km/h (2 Bft) NW 307 ° 0 min 0,000 mm 0,0 UV-I 65 W/m² 2,4 °C 12,9 km/h (3 Bft)
11.12.2016 13:34 6,6 °C 6,7 °C 74 % 1022,5 hPa 0,0 mm 12,8 km/h (3 Bft) W 277 ° 0 min 0,000 mm 0,0 UV-I 60 W/m² 2,3 °C 16,1 km/h (3 Bft)
11.12.2016 13:35 6,6 °C 6,7 °C 74 % 1022,5 hPa 0,0 mm 11,3 km/h (2 Bft) NW 304 ° 0 min 0,000 mm 0,0 UV-I 56 W/m² 2,3 °C 16,1 km/h (3 Bft)
11.12.2016 13:36 6,6 °C 6,6 °C 74 % 1022,5 hPa 0,0 mm 9,3 km/h (2 Bft) W-SW 252 ° 0 min 0,000 mm 0,0 UV-I 53 W/m² 2,3 °C 16,1 km/h (3 Bft)
11.12.2016 13:37 6,6 °C 6,6 °C 73 % 1022,5 hPa 0,0 mm 9,8 km/h (2 Bft) W-NW 299 ° 0 min 0,000 mm 0,0 UV-I 49 W/m² 2,1 °C 14,5 km/h (3 Bft)
11.12.2016 13:38 6,6 °C 6,6 °C 74 % 1022,5 hPa 0,0 mm 11,3 km/h (2 Bft) W 261 ° 0 min 0,000 mm 0,0 UV-I 46 W/m² 2,3 °C 25,7 km/h (4 Bft)
11.12.2016 13:39 6,5 °C 6,6 °C 74 % 1022,5 hPa 0,0 mm 16,1 km/h (3 Bft) W-SW 238 ° 0 min 0,000 mm 0,0 UV-I 39 W/m² 2,2 °C 25,7 km/h (4 Bft)
11.12.2016 13:40 6,5 °C 6,6 °C 74 % 1022,5 hPa 0,0 mm 9,0 km/h (2 Bft) W 273 ° 0 min 0,000 mm 0,0 UV-I 33 W/m² 2,2 °C 12,9 km/h (3 Bft)
11.12.2016 13:41 6,5 °C 6,5 °C 74 % 1022,5 hPa 0,0 mm 6,1 km/h (2 Bft) W-NW 283 ° 0 min 0,000 mm 0,0 UV-I 30 W/m² 2,2 °C 9,7 km/h (2 Bft)
11.12.2016 13:42 6,4 °C 6,5 °C 74 % 1022,5 hPa 0,0 mm 10,5 km/h (2 Bft) W 273 ° 0 min 0,000 mm 0,0 UV-I 26 W/m² 2,1 °C 16,1 km/h (3 Bft)
11.12.2016 13:43 6,4 °C 6,4 °C 74 % 1022,5 hPa 0,0 mm 6,0 km/h (2 Bft) W-SW 255 ° 0 min 0,000 mm 0,0 UV-I 21 W/m² 2,1 °C 9,7 km/h (2 Bft)
11.12.2016 13:44 6,4 °C 6,4 °C 75 % 1022,5 hPa 0,0 mm 2,3 km/h (1 Bft) W-SW 255 ° 0 min 0,000 mm 0,0 UV-I 19 W/m² 2,3 °C 3,2 km/h (1 Bft)
11.12.2016 13:45 6,4 °C 6,4 °C 74 % 1022,6 hPa 0,0 mm 2,1 km/h (1 Bft) W 262 ° 0 min 0,000 mm 0,0 UV-I 18 W/m² 2,1 °C 4,8 km/h (1 Bft)
11.12.2016 13:46 6,4 °C 6,4 °C 75 % 1022,5 hPa 0,0 mm 5,4 km/h (1 Bft) W-SW 250 ° 0 min 0,000 mm 0,0 UV-I 18 W/m² 2,3 °C 6,4 km/h (2 Bft)
11.12.2016 13:47 6,4 °C 6,4 °C 74 % 1022,6 hPa 0,0 mm 6,5 km/h (2 Bft) W-SW 255 ° 0 min 0,000 mm 0,0 UV-I 19 W/m² 2,1 °C 9,7 km/h (2 Bft)
11.12.2016 13:48 6,4 °C 6,4 °C 74 % 1022,6 hPa 0,0 mm 7,8 km/h (2 Bft) W-SW 248 ° 0 min 0,000 mm 0,0 UV-I 23 W/m² 2,1 °C 11,3 km/h (2 Bft)
11.12.2016 13:49 6,4 °C 6,4 °C 75 % 1022,6 hPa 0,0 mm 6,8 km/h (2 Bft) S-SO 161 ° 0 min 0,000 mm 0,0 UV-I 23 W/m² 2,3 °C 14,5 km/h (3 Bft)
11.12.2016 13:50 6,4 °C 6,4 °C 75 % 1022,6 hPa 0,0 mm 5,3 km/h (1 Bft) W 264 ° 0 min 0,000 mm 0,0 UV-I 23 W/m² 2,3 °C 9,7 km/h (2 Bft)
11.12.2016 13:51 6,4 °C 6,4 °C 75 % 1022,6 hPa 0,0 mm 9,1 km/h (2 Bft) W-NW 286 ° 0 min 0,000 mm 0,0 UV-I 25 W/m² 2,3 °C 12,9 km/h (3 Bft)
11.12.2016 13:52 6,4 °C 6,4 °C 75 % 1022,6 hPa 0,0 mm 8,0 km/h (2 Bft) W-SW 244 ° 0 min 0,000 mm 0,0 UV-I 25 W/m² 2,3 °C 11,3 km/h (2 Bft)
11.12.2016 13:53 6,4 °C 6,4 °C 75 % 1022,6 hPa 0,0 mm 9,3 km/h (2 Bft) W-SW 246 ° 0 min 0,000 mm 0,0 UV-I 26 W/m² 2,3 °C 11,3 km/h (2 Bft)
11.12.2016 13:54 6,3 °C 6,4 °C 75 % 1022,7 hPa 0,0 mm 6,5 km/h (2 Bft) W-SW 238 ° 0 min 0,000 mm 0,0 UV-I 26 W/m² 2,2 °C 11,3 km/h (2 Bft)
11.12.2016 13:55 6,4 °C 6,4 °C 74 % 1022,7 hPa 0,0 mm 6,2 km/h (2 Bft) W 262 ° 0 min 0,000 mm 0,0 UV-I 25 W/m² 2,1 °C 12,9 km/h (3 Bft)
11.12.2016 13:56 6,4 °C 6,4 °C 74 % 1022,8 hPa 0,0 mm 10,1 km/h (2 Bft) W-SW 238 ° 0 min 0,000 mm 0,0 UV-I 25 W/m² 2,1 °C 16,1 km/h (3 Bft)
11.12.2016 13:57 6,4 °C 6,4 °C 74 % 1022,8 hPa 0,0 mm 5,6 km/h (1 Bft) W-NW 285 ° 0 min 0,000 mm 0,0 UV-I 25 W/m² 2,1 °C 9,7 km/h (2 Bft)
11.12.2016 13:58 6,4 °C 6,4 °C 75 % 1022,8 hPa 0,0 mm 3,8 km/h (1 Bft) W-SW 244 ° 0 min 0,000 mm 0,0 UV-I 25 W/m² 2,3 °C 6,4 km/h (2 Bft)
11.12.2016 13:59 6,3 °C 6,4 °C 75 % 1022,8 hPa 0,0 mm 6,2 km/h (2 Bft) W-SW 244 ° 0 min 0,000 mm 0,0 UV-I 23 W/m² 2,2 °C 8,0 km/h (2 Bft)
11.12.2016 14:00 6,3 °C 6,4 °C 75 % 1022,8 hPa 0,0 mm 10,1 km/h (2 Bft) W 269 ° 0 min 0,051 mm 0,0 UV-I 21 W/m² 2,2 °C 16,1 km/h (3 Bft)
11.12.2016 14:01 6,3 °C 6,4 °C 74 % 1022,8 hPa 0,0 mm 8,0 km/h (2 Bft) W 270 ° 0 min 0,000 mm 0,0 UV-I 21 W/m² 2,0 °C 12,9 km/h (3 Bft)
11.12.2016 14:02 6,3 °C 6,3 °C 74 % 1022,7 hPa 0,0 mm 8,0 km/h (2 Bft) S-SW 197 ° 0 min 0,000 mm 0,0 UV-I 19 W/m² 2,0 °C 11,3 km/h (2 Bft)
11.12.2016 14:03 6,3 °C 6,3 °C 74 % 1022,8 hPa 0,0 mm 5,4 km/h (1 Bft) NW 312 ° 0 min 0,000 mm 0,0 UV-I 19 W/m² 2,0 °C 12,9 km/h (3 Bft)
11.12.2016 14:04 6,3 °C 6,4 °C 75 % 1022,7 hPa 0,0 mm 6,8 km/h (2 Bft) W 264 ° 0 min 0,000 mm 0,0 UV-I 18 W/m² 2,2 °C 12,9 km/h (3 Bft)
11.12.2016 14:05 6,4 °C 6,4 °C 75 % 1022,7 hPa 0,0 mm 6,9 km/h (2 Bft) W-SW 257 ° 0 min 0,000 mm 0,0 UV-I 18 W/m² 2,3 °C 12,9 km/h (3 Bft)
11.12.2016 14:06 6,3 °C 6,4 °C 74 % 1022,7 hPa 0,0 mm 6,6 km/h (2 Bft) W-SW 252 ° 0 min 0,000 mm 0,0 UV-I 16 W/m² 2,0 °C 11,3 km/h (2 Bft)
11.12.2016 14:07 6,3 °C 6,4 °C 74 % 1022,7 hPa 0,0 mm 5,9 km/h (2 Bft) W-SW 252 ° 0 min 0,000 mm 0,0 UV-I 18 W/m² 2,0 °C 12,9 km/h (3 Bft)
11.12.2016 14:08 6,3 °C 6,4 °C 75 % 1022,6 hPa 0,0 mm 6,3 km/h (2 Bft) W-SW 244 ° 0 min 0,000 mm 0,0 UV-I 18 W/m² 2,2 °C 11,3 km/h (2 Bft)
11.12.2016 14:09 6,4 °C 6,4 °C 75 % 1022,6 hPa 0,0 mm 7,8 km/h (2 Bft) W-SW 246 ° 0 min 0,000 mm 0,0 UV-I 19 W/m² 2,3 °C 14,5 km/h (3 Bft)
11.12.2016 14:10 6,3 °C 6,4 °C 75 % 1022,7 hPa 0,0 mm 13,1 km/h (3 Bft) W-SW 250 ° 0 min 0,000 mm 0,0 UV-I 21 W/m² 2,2 °C 19,3 km/h (3 Bft)
11.12.2016 14:11 6,3 °C 6,3 °C 75 % 1022,7 hPa 0,0 mm 13,9 km/h (3 Bft) W 279 ° 0 min 0,000 mm 0,0 UV-I 21 W/m² 2,2 °C 19,3 km/h (3 Bft)
11.12.2016 14:12 6,3 °C 6,3 °C 74 % 1022,6 hPa 0,0 mm 9,4 km/h (2 Bft) W-SW 250 ° 0 min 0,000 mm 0,0 UV-I 25 W/m² 2,0 °C 12,9 km/h (3 Bft)
11.12.2016 14:13 6,3 °C 6,3 °C 75 % 1022,6 hPa 0,0 mm 8,4 km/h (2 Bft) W 278 ° 0 min 0,000 mm 0,0 UV-I 21 W/m² 2,2 °C 12,9 km/h (3 Bft)
11.12.2016 14:14 6,3 °C 6,3 °C 75 % 1022,6 hPa 0,0 mm 12,3 km/h (3 Bft) W-SW 252 ° 0 min 0,000 mm 0,0 UV-I 19 W/m² 2,2 °C 22,5 km/h (4 Bft)
11.12.2016 14:15 6,3 °C 6,3 °C 74 % 1022,6 hPa 0,0 mm 13,9 km/h (3 Bft) W-SW 251 ° 0 min 0,000 mm 0,0 UV-I 19 W/m² 2,0 °C 19,3 km/h (3 Bft)
11.12.2016 14:16 6,4 °C 6,4 °C 74 % 1022,7 hPa 0,0 mm 7,1 km/h (2 Bft) W-SW 247 ° 0 min 0,000 mm 0,0 UV-I 18 W/m² 2,1 °C 11,3 km/h (2 Bft)
11.12.2016 14:17 6,4 °C 6,4 °C 74 % 1022,6 hPa 0,0 mm 12,1 km/h (2 Bft) W 266 ° 0 min 0,000 mm 0,0 UV-I 16 W/m² 2,1 °C 16,1 km/h (3 Bft)
11.12.2016 14:18 6,4 °C 6,4 °C 74 % 1022,6 hPa 0,0 mm 10,0 km/h (2 Bft) W-SW 246 ° 0 min 0,000 mm 0,0 UV-I 16 W/m² 2,1 °C 14,5 km/h (3 Bft)
11.12.2016 14:19 6,4 °C 6,4 °C 74 % 1022,6 hPa 0,0 mm 12,0 km/h (2 Bft) W-SW 240 ° 0 min 0,000 mm 0,0 UV-I 19 W/m² 2,1 °C 16,1 km/h (3 Bft)
11.12.2016 14:20 6,4 °C 6,4 °C 74 % 1022,5 hPa 0,0 mm 12,5 km/h (3 Bft) W-SW 254 ° 0 min 0,000 mm 0,0 UV-I 19 W/m² 2,1 °C 19,3 km/h (3 Bft)
11.12.2016 14:21 6,4 °C 6,4 °C 74 % 1022,6 hPa 0,0 mm 7,5 km/h (2 Bft) W-SW 252 ° 0 min 0,000 mm 0,0 UV-I 19 W/m² 2,1 °C 12,9 km/h (3 Bft)
11.12.2016 14:22 6,4 °C 6,4 °C 74 % 1022,6 hPa 0,0 mm 10,7 km/h (2 Bft) W-NW 285 ° 0 min 0,000 mm 0,0 UV-I 19 W/m² 2,1 °C 16,1 km/h (3 Bft)
11.12.2016 14:23 6,4 °C 6,4 °C 74 % 1022,6 hPa 0,0 mm 12,0 km/h (2 Bft) W 273 ° 0 min 0,000 mm 0,0 UV-I 21 W/m² 2,1 °C 17,7 km/h (3 Bft)
11.12.2016 14:24 6,4 °C 6,4 °C 74 % 1022,6 hPa 0,0 mm 12,9 km/h (3 Bft) W-SW 239 ° 0 min 0,000 mm 0,0 UV-I 19 W/m² 2,1 °C 19,3 km/h (3 Bft)
11.12.2016 14:25 6,4 °C 6,4 °C 74 % 1022,6 hPa 0,0 mm 8,7 km/h (2 Bft) W-SW 248 ° 0 min 0,000 mm 0,0 UV-I 19 W/m² 2,1 °C 14,5 km/h (3 Bft)
11.12.2016 14:26 6,4 °C 6,5 °C 74 % 1022,6 hPa 0,0 mm 13,5 km/h (3 Bft) W 265 ° 0 min 0,000 mm 0,0 UV-I 18 W/m² 2,1 °C 20,9 km/h (4 Bft)
11.12.2016 14:27 6,5 °C 6,5 °C 74 % 1022,6 hPa 0,0 mm 11,1 km/h (2 Bft) W-SW 250 ° 0 min 0,000 mm 0,0 UV-I 18 W/m² 2,2 °C 14,5 km/h (3 Bft)
11.12.2016 14:28 6,5 °C 6,5 °C 74 % 1022,7 hPa 0,0 mm 14,9 km/h (3 Bft) W-NW 291 ° 0 min 0,000 mm 0,0 UV-I 18 W/m² 2,2 °C 20,9 km/h (4 Bft)
11.12.2016 14:29 6,5 °C 6,5 °C 74 % 1022,7 hPa 0,0 mm 11,2 km/h (2 Bft) W 259 ° 0 min 0,000 mm 0,0 UV-I 16 W/m² 2,2 °C 14,5 km/h (3 Bft)
11.12.2016 14:30 6,5 °C 6,5 °C 74 % 1022,8 hPa 0,0 mm 15,4 km/h (3 Bft) W 273 ° 0 min 0,000 mm 0,0 UV-I 16 W/m² 2,2 °C 25,7 km/h (4 Bft)
11.12.2016 14:31 6,5 °C 6,5 °C 74 % 1022,8 hPa 0,0 mm 4,8 km/h (1 Bft) W-NW 292 ° 0 min 0,000 mm 0,0 UV-I 16 W/m² 2,2 °C 11,3 km/h (2 Bft)
11.12.2016 14:32 6,5 °C 6,5 °C 74 % 1022,8 hPa 0,0 mm 12,4 km/h (3 Bft) W 260 ° 0 min 0,000 mm 0,0 UV-I 16 W/m² 2,2 °C 16,1 km/h (3 Bft)
11.12.2016 14:33 6,5 °C 6,6 °C 73 % 1022,8 hPa 0,0 mm 9,1 km/h (2 Bft) W 277 ° 0 min 0,000 mm 0,0 UV-I 14 W/m² 2,0 °C 12,9 km/h (3 Bft)
11.12.2016 14:34 6,6 °C 6,6 °C 73 % 1022,8 hPa 0,0 mm 7,7 km/h (2 Bft) W-NW 297 ° 0 min 0,000 mm 0,0 UV-I 14 W/m² 2,1 °C 12,9 km/h (3 Bft)
11.12.2016 14:35 6,6 °C 6,6 °C 73 % 1022,8 hPa 0,0 mm 12,5 km/h (3 Bft) N-NW 330 ° 0 min 0,000 mm 0,0 UV-I 12 W/m² 2,1 °C 16,1 km/h (3 Bft)
11.12.2016 14:36 6,6 °C 6,6 °C 73 % 1022,8 hPa 0,0 mm 16,9 km/h (3 Bft) W 263 ° 0 min 0,000 mm 0,0 UV-I 12 W/m² 2,1 °C 22,5 km/h (4 Bft)
11.12.2016 14:37 6,6 °C 6,6 °C 73 % 1022,8 hPa 0,0 mm 12,6 km/h (3 Bft) W-NW 297 ° 0 min 0,000 mm 0,0 UV-I 12 W/m² 2,1 °C 19,3 km/h (3 Bft)
11.12.2016 14:38 6,6 °C 6,6 °C 72 % 1022,9 hPa 0,0 mm 14,8 km/h (3 Bft) W-NW 284 ° 0 min 0,000 mm 0,0 UV-I 12 W/m² 1,9 °C 24,1 km/h (4 Bft)
11.12.2016 14:39 6,6 °C 6,6 °C 72 % 1022,8 hPa 0,0 mm 12,5 km/h (3 Bft) W 261 ° 0 min 0,000 mm 0,0 UV-I 16 W/m² 1,9 °C 20,9 km/h (4 Bft)
11.12.2016 14:40 6,6 °C 6,6 °C 72 % 1022,9 hPa 0,0 mm 15,5 km/h (3 Bft) W-NW 284 ° 0 min 0,000 mm 0,0 UV-I 16 W/m² 1,9 °C 20,9 km/h (4 Bft)
11.12.2016 14:41 6,6 °C 6,7 °C 72 % 1022,9 hPa 0,0 mm 13,9 km/h (3 Bft) W-SW 254 ° 0 min 0,000 mm 0,0 UV-I 18 W/m² 1,9 °C 20,9 km/h (4 Bft)
11.12.2016 14:42 6,6 °C 6,7 °C 72 % 1023,0 hPa 0,0 mm 11,9 km/h (2 Bft) W 277 ° 0 min 0,000 mm 0,0 UV-I 18 W/m² 1,9 °C 17,7 km/h (3 Bft)
11.12.2016 14:43 6,7 °C 6,7 °C 71 % 1022,9 hPa 0,0 mm 8,5 km/h (2 Bft) W 263 ° 0 min 0,000 mm 0,0 UV-I 18 W/m² 1,8 °C 12,9 km/h (3 Bft)
11.12.2016 14:44 6,6 °C 6,7 °C 71 % 1023,0 hPa 0,0 mm 12,9 km/h (3 Bft) W-SW 250 ° 0 min 0,000 mm 0,0 UV-I 18 W/m² 1,7 °C 22,5 km/h (4 Bft)
11.12.2016 14:45 6,7 °C 6,7 °C 71 % 1023,0 hPa 0,0 mm 18,1 km/h (3 Bft) W-NW 283 ° 0 min 0,000 mm 0,0 UV-I 19 W/m² 1,8 °C 25,7 km/h (4 Bft)
11.12.2016 14:46 6,7 °C 6,7 °C 71 % 1023,0 hPa 0,0 mm 9,5 km/h (2 Bft) W-SW 244 ° 0 min 0,000 mm 0,0 UV-I 19 W/m² 1,8 °C 12,9 km/h (3 Bft)
11.12.2016 14:47 6,7 °C 6,7 °C 71 % 1023,1 hPa 0,0 mm 6,9 km/h (2 Bft) W 259 ° 0 min 0,000 mm 0,0 UV-I 21 W/m² 1,8 °C 12,9 km/h (3 Bft)
11.12.2016 14:48 6,6 °C 6,7 °C 71 % 1023,0 hPa 0,0 mm 15,3 km/h (3 Bft) W 274 ° 0 min 0,000 mm 0,0 UV-I 21 W/m² 1,7 °C 24,1 km/h (4 Bft)
11.12.2016 14:49 6,6 °C 6,6 °C 70 % 1023,2 hPa 0,0 mm 12,1 km/h (2 Bft) W 276 ° 0 min 0,000 mm 0,0 UV-I 21 W/m² 1,5 °C 19,3 km/h (3 Bft)
11.12.2016 14:50 6,6 °C 6,6 °C 70 % 1023,2 hPa 0,0 mm 12,1 km/h (2 Bft) W-NW 289 ° 0 min 0,000 mm 0,0 UV-I 21 W/m² 1,5 °C 16,1 km/h (3 Bft)
11.12.2016 14:51 6,6 °C 6,6 °C 70 % 1023,2 hPa 0,0 mm 12,6 km/h (3 Bft) W 275 ° 0 min 0,000 mm 0,0 UV-I 21 W/m² 1,5 °C 16,1 km/h (3 Bft)
11.12.2016 14:52 6,6 °C 6,6 °C 71 % 1023,2 hPa 0,0 mm 17,4 km/h (3 Bft) NW 306 ° 0 min 0,000 mm 0,0 UV-I 21 W/m² 1,7 °C 25,7 km/h (4 Bft)
11.12.2016 14:53 6,6 °C 6,6 °C 71 % 1023,2 hPa 0,0 mm 11,0 km/h (2 Bft) W-SW 242 ° 0 min 0,000 mm 0,0 UV-I 23 W/m² 1,7 °C 17,7 km/h (3 Bft)
11.12.2016 14:54 6,6 °C 6,6 °C 71 % 1023,2 hPa 0,0 mm 7,2 km/h (2 Bft) W-SW 238 ° 0 min 0,000 mm 0,0 UV-I 25 W/m² 1,7 °C 11,3 km/h (2 Bft)
11.12.2016 14:55 6,5 °C 6,6 °C 71 % 1023,2 hPa 0,0 mm 13,8 km/h (3 Bft) SW 234 ° 0 min 0,000 mm 0,0 UV-I 26 W/m² 1,6 °C 22,5 km/h (4 Bft)
11.12.2016 14:56 6,6 °C 6,6 °C 71 % 1023,1 hPa 0,0 mm 14,2 km/h (3 Bft) W-NW 301 ° 0 min 0,000 mm 0,0 UV-I 28 W/m² 1,7 °C 20,9 km/h (4 Bft)
11.12.2016 14:57 6,5 °C 6,6 °C 71 % 1023,2 hPa 0,0 mm 13,6 km/h (3 Bft) W 277 ° 0 min 0,000 mm 0,0 UV-I 30 W/m² 1,6 °C 24,1 km/h (4 Bft)
11.12.2016 14:58 6,5 °C 6,5 °C 71 % 1023,1 hPa 0,0 mm 11,1 km/h (2 Bft) W-SW 244 ° 0 min 0,000 mm 0,0 UV-I 28 W/m² 1,6 °C 16,1 km/h (3 Bft)
11.12.2016 14:59 6,5 °C 6,5 °C 71 % 1023,2 hPa 0,0 mm 12,1 km/h (2 Bft) N-NW 336 ° 0 min 0,000 mm 0,0 UV-I 26 W/m² 1,6 °C 16,1 km/h (3 Bft)
11.12.2016 15:00 6,4 °C 6,5 °C 72 % 1023,3 hPa 0,0 mm 9,7 km/h (2 Bft) W-NW 284 ° 0 min 0,025 mm 0,0 UV-I 25 W/m² 1,7 °C 16,1 km/h (3 Bft)
11.12.2016 15:01 6,4 °C 6,4 °C 71 % 1023,3 hPa 0,0 mm 17,0 km/h (3 Bft) W 274 ° 0 min 0,000 mm 0,0 UV-I 25 W/m² 1,5 °C 24,1 km/h (4 Bft)
11.12.2016 15:02 6,4 °C 6,4 °C 71 % 1023,3 hPa 0,0 mm 19,3 km/h (3 Bft) W 270 ° 0 min 0,000 mm 0,0 UV-I 25 W/m² 1,5 °C 27,4 km/h (4 Bft)
11.12.2016 15:03 6,4 °C 6,4 °C 71 % 1023,3 hPa 0,0 mm 15,6 km/h (3 Bft) W-SW 244 ° 0 min 0,000 mm 0,0 UV-I 25 W/m² 1,5 °C 20,9 km/h (4 Bft)
11.12.2016 15:04 6,4 °C 6,4 °C 71 % 1023,3 hPa 0,0 mm 10,5 km/h (2 Bft) W 259 ° 0 min 0,000 mm 0,0 UV-I 23 W/m² 1,5 °C 16,1 km/h (3 Bft)
11.12.2016 15:05 6,3 °C 6,4 °C 72 % 1023,4 hPa 0,0 mm 8,6 km/h (2 Bft) W 271 ° 0 min 0,000 mm 0,0 UV-I 19 W/m² 1,6 °C 14,5 km/h (3 Bft)
11.12.2016 15:06 6,3 °C 6,3 °C 71 % 1023,4 hPa 0,0 mm 15,8 km/h (3 Bft) W-NW 286 ° 0 min 0,000 mm 0,0 UV-I 16 W/m² 1,4 °C 19,3 km/h (3 Bft)
11.12.2016 15:07 6,3 °C 6,3 °C 71 % 1023,5 hPa 0,0 mm 18,4 km/h (3 Bft) W 280 ° 0 min 0,000 mm 0,0 UV-I 16 W/m² 1,4 °C 27,4 km/h (4 Bft)
11.12.2016 15:08 6,2 °C 6,3 °C 71 % 1023,5 hPa 0,0 mm 13,8 km/h (3 Bft) W 259 ° 0 min 0,000 mm 0,0 UV-I 16 W/m² 1,3 °C 20,9 km/h (4 Bft)
11.12.2016 15:09 6,2 °C 6,3 °C 70 % 1023,6 hPa 0,0 mm 15,9 km/h (3 Bft) W-SW 248 ° 0 min 0,000 mm 0,0 UV-I 21 W/m² 1,1 °C 19,3 km/h (3 Bft)
11.12.2016 15:10 6,2 °C 6,2 °C 70 % 1023,5 hPa 0,0 mm 15,9 km/h (3 Bft) W 263 ° 0 min 0,000 mm 0,0 UV-I 33 W/m² 1,1 °C 20,9 km/h (4 Bft)
11.12.2016 15:11 6,2 °C 6,2 °C 71 % 1023,6 hPa 0,0 mm 14,6 km/h (3 Bft) W 261 ° 0 min 0,000 mm 0,0 UV-I 28 W/m² 1,3 °C 20,9 km/h (4 Bft)
11.12.2016 15:12 6,1 °C 6,2 °C 71 % 1023,6 hPa 0,0 mm 10,1 km/h (2 Bft) NW 309 ° 0 min 0,000 mm 0,0 UV-I 25 W/m² 1,2 °C 17,7 km/h (3 Bft)
11.12.2016 15:13 6,1 °C 6,1 °C 70 % 1023,6 hPa 0,0 mm 14,1 km/h (3 Bft) W-NW 284 ° 0 min 0,000 mm 0,0 UV-I 21 W/m² 1,0 °C 20,9 km/h (4 Bft)
11.12.2016 15:14 6,0 °C 6,1 °C 71 % 1023,6 hPa 0,0 mm 12,3 km/h (3 Bft) W 276 ° 0 min 0,000 mm 0,0 UV-I 19 W/m² 1,1 °C 16,1 km/h (3 Bft)
11.12.2016 15:15 5,9 °C 6,0 °C 71 % 1023,6 hPa 0,0 mm 12,7 km/h (3 Bft) W-SW 247 ° 0 min 0,000 mm 0,0 UV-I 19 W/m² 1,1 °C 22,5 km/h (4 Bft)
11.12.2016 15:16 5,9 °C 5,9 °C 71 % 1023,6 hPa 0,0 mm 16,0 km/h (3 Bft) W-NW 302 ° 0 min 0,000 mm 0,0 UV-I 23 W/m² 1,1 °C 20,9 km/h (4 Bft)
11.12.2016 15:17 5,8 °C 5,9 °C 70 % 1023,7 hPa 0,0 mm 10,5 km/h (2 Bft) W-NW 282 ° 0 min 0,000 mm 0,0 UV-I 28 W/m² 0,8 °C 16,1 km/h (3 Bft)
11.12.2016 15:18 5,8 °C 5,9 °C 71 % 1023,6 hPa 0,0 mm 10,9 km/h (2 Bft) W-NW 291 ° 0 min 0,000 mm 0,0 UV-I 33 W/m² 1,0 °C 17,7 km/h (3 Bft)
11.12.2016 15:19 5,8 °C 5,8 °C 71 % 1023,7 hPa 0,0 mm 12,2 km/h (2 Bft) W 269 ° 0 min 0,000 mm 0,0 UV-I 33 W/m² 1,0 °C 19,3 km/h (3 Bft)
11.12.2016 15:20 5,8 °C 5,8 °C 71 % 1023,7 hPa 0,0 mm 12,8 km/h (3 Bft) W 274 ° 0 min 0,000 mm 0,0 UV-I 30 W/m² 1,0 °C 22,5 km/h (4 Bft)
11.12.2016 15:21 5,7 °C 5,8 °C 72 % 1023,6 hPa 0,0 mm 12,1 km/h (2 Bft) W-SW 247 ° 0 min 0,000 mm 0,0 UV-I 26 W/m² 1,1 °C 19,3 km/h (3 Bft)
11.12.2016 15:22 5,7 °C 5,7 °C 72 % 1023,6 hPa 0,0 mm 11,3 km/h (2 Bft) W-SW 237 ° 0 min 0,000 mm 0,0 UV-I 28 W/m² 1,1 °C 16,1 km/h (3 Bft)
11.12.2016 15:23 5,7 °C 5,7 °C 72 % 1023,6 hPa 0,0 mm 9,3 km/h (2 Bft) W 265 ° 0 min 0,000 mm 0,0 UV-I 25 W/m² 1,1 °C 12,9 km/h (3 Bft)
11.12.2016 15:24 5,7 °C 5,7 °C 72 % 1023,6 hPa 0,0 mm 5,3 km/h (1 Bft) W-SW 244 ° 0 min 0,000 mm 0,0 UV-I 21 W/m² 1,1 °C 9,7 km/h (2 Bft)
11.12.2016 15:25 5,6 °C 5,7 °C 72 % 1023,6 hPa 0,0 mm 15,1 km/h (3 Bft) W 264 ° 0 min 0,000 mm 0,0 UV-I 23 W/m² 1,0 °C 24,1 km/h (4 Bft)
11.12.2016 15:26 5,6 °C 5,6 °C 72 % 1023,6 hPa 0,0 mm 17,3 km/h (3 Bft) W-SW 258 ° 0 min 0,000 mm 0,0 UV-I 23 W/m² 1,0 °C 29,0 km/h (5 Bft)
11.12.2016 15:27 5,6 °C 5,6 °C 72 % 1023,5 hPa 0,0 mm 15,9 km/h (3 Bft) W-SW 254 ° 0 min 0,000 mm 0,0 UV-I 25 W/m² 1,0 °C 20,9 km/h (4 Bft)
11.12.2016 15:28 5,6 °C 5,6 °C 73 % 1023,5 hPa 0,0 mm 8,5 km/h (2 Bft) W-SW 250 ° 0 min 0,000 mm 0,0 UV-I 19 W/m² 1,2 °C 17,7 km/h (3 Bft)
11.12.2016 15:29 5,5 °C 5,6 °C 73 % 1023,4 hPa 0,0 mm 12,5 km/h (3 Bft) W 275 ° 0 min 0,000 mm 0,0 UV-I 16 W/m² 1,1 °C 16,1 km/h (3 Bft)
11.12.2016 15:30 5,5 °C 5,5 °C 73 % 1023,4 hPa 0,0 mm 12,8 km/h (3 Bft) W 259 ° 0 min 0,000 mm 0,0 UV-I 14 W/m² 1,1 °C 19,3 km/h (3 Bft)
11.12.2016 15:31 5,4 °C 5,5 °C 73 % 1023,4 hPa 0,0 mm 12,2 km/h (2 Bft) W-SW 242 ° 0 min 0,000 mm 0,0 UV-I 16 W/m² 1,0 °C 17,7 km/h (3 Bft)
11.12.2016 15:32 5,4 °C 5,4 °C 72 % 1023,5 hPa 0,0 mm 13,9 km/h (3 Bft) W-NW 284 ° 0 min 0,000 mm 0,0 UV-I 16 W/m² 0,8 °C 22,5 km/h (4 Bft)
11.12.2016 15:33 5,4 °C 5,4 °C 72 % 1023,4 hPa 0,0 mm 19,8 km/h (3 Bft) W 278 ° 0 min 0,000 mm 0,0 UV-I 16 W/m² 0,8 °C 29,0 km/h (5 Bft)
11.12.2016 15:34 5,4 °C 5,4 °C 72 % 1023,4 hPa 0,0 mm 18,2 km/h (3 Bft) W-NW 284 ° 0 min 0,000 mm 0,0 UV-I 16 W/m² 0,8 °C 22,5 km/h (4 Bft)
11.12.2016 15:35 5,3 °C 5,4 °C 72 % 1023,5 hPa 0,0 mm 13,7 km/h (3 Bft) W 277 ° 0 min 0,000 mm 0,0 UV-I 16 W/m² 0,7 °C 19,3 km/h (3 Bft)
11.12.2016 15:36 5,3 °C 5,3 °C 73 % 1023,5 hPa 0,0 mm 17,9 km/h (3 Bft) W-SW 256 ° 0 min 0,000 mm 0,0 UV-I 18 W/m² 0,9 °C 24,1 km/h (4 Bft)
11.12.2016 15:37 5,3 °C 5,3 °C 73 % 1023,5 hPa 0,0 mm 17,5 km/h (3 Bft) W-NW 290 ° 0 min 0,000 mm 0,0 UV-I 19 W/m² 0,9 °C 20,9 km/h (4 Bft)
11.12.2016 15:38 5,3 °C 5,3 °C 72 % 1023,5 hPa 0,0 mm 13,9 km/h (3 Bft) W-SW 257 ° 0 min 0,000 mm 0,0 UV-I 21 W/m² 0,7 °C 20,9 km/h (4 Bft)
11.12.2016 15:39 5,3 °C 5,3 °C 73 % 1023,5 hPa 0,0 mm 12,7 km/h (3 Bft) W 271 ° 0 min 0,000 mm 0,0 UV-I 14 W/m² 0,9 °C 16,1 km/h (3 Bft)
11.12.2016 15:40 5,2 °C 5,3 °C 73 % 1023,6 hPa 0,0 mm 13,6 km/h (3 Bft) W-NW 301 ° 0 min 0,000 mm 0,0 UV-I 12 W/m² 0,8 °C 17,7 km/h (3 Bft)
11.12.2016 15:41 5,2 °C 5,3 °C 73 % 1023,6 hPa 0,0 mm 17,4 km/h (3 Bft) W 267 ° 0 min 0,000 mm 0,0 UV-I 12 W/m² 0,8 °C 22,5 km/h (4 Bft)
11.12.2016 15:42 5,2 °C 5,2 °C 73 % 1023,6 hPa 0,0 mm 13,1 km/h (3 Bft) W-SW 239 ° 0 min 0,000 mm 0,0 UV-I 12 W/m² 0,8 °C 22,5 km/h (4 Bft)
11.12.2016 15:43 5,2 °C 5,2 °C 73 % 1023,6 hPa 0,0 mm 10,4 km/h (2 Bft) W-NW 300 ° 0 min 0,000 mm 0,0 UV-I 14 W/m² 0,8 °C 14,5 km/h (3 Bft)
11.12.2016 15:44 5,2 °C 5,2 °C 73 % 1023,6 hPa 0,0 mm 11,8 km/h (2 Bft) W 265 ° 0 min 0,000 mm 0,0 UV-I 16 W/m² 0,8 °C 25,7 km/h (4 Bft)
11.12.2016 15:45 5,2 °C 5,2 °C 73 % 1023,6 hPa 0,0 mm 16,4 km/h (3 Bft) W 274 ° 0 min 0,000 mm 0,0 UV-I 16 W/m² 0,8 °C 19,3 km/h (3 Bft)
11.12.2016 15:46 5,2 °C 5,2 °C 73 % 1023,6 hPa 0,0 mm 9,7 km/h (2 Bft) W 270 ° 0 min 0,000 mm 0,0 UV-I 16 W/m² 0,8 °C 16,1 km/h (3 Bft)
11.12.2016 15:48 5,1 °C 5,2 °C 74 % 1023,6 hPa 0,0 mm 8,7 km/h (2 Bft) W 271 ° 0 min 0,000 mm 0,0 UV-I 19 W/m² 0,9 °C 12,9 km/h (3 Bft)
11.12.2016 15:49 5,1 °C 5,1 °C 74 % 1023,6 hPa 0,0 mm 9,2 km/h (2 Bft) W-SW 243 ° 0 min 0,000 mm 0,0 UV-I 19 W/m² 0,9 °C 16,1 km/h (3 Bft)
11.12.2016 15:50 5,1 °C 5,1 °C 74 % 1023,6 hPa 0,0 mm 13,5 km/h (3 Bft) W 265 ° 0 min 0,000 mm 0,0 UV-I 18 W/m² 0,9 °C 22,5 km/h (4 Bft)
11.12.2016 15:51 5,1 °C 5,1 °C 74 % 1023,6 hPa 0,0 mm 14,1 km/h (3 Bft) SW 227 ° 0 min 0,000 mm 0,0 UV-I 19 W/m² 0,9 °C 16,1 km/h (3 Bft)
11.12.2016 15:52 5,1 °C 5,1 °C 74 % 1023,5 hPa 0,0 mm 5,0 km/h (1 Bft) W 269 ° 0 min 0,000 mm 0,0 UV-I 16 W/m² 0,9 °C 9,7 km/h (2 Bft)
11.12.2016 15:53 5,1 °C 5,1 °C 74 % 1023,5 hPa 0,0 mm 10,5 km/h (2 Bft) W 261 ° 0 min 0,000 mm 0,0 UV-I 12 W/m² 0,9 °C 14,5 km/h (3 Bft)
11.12.2016 15:54 5,1 °C 5,1 °C 74 % 1023,5 hPa 0,0 mm 7,4 km/h (2 Bft) W 279 ° 0 min 0,000 mm 0,0 UV-I 12 W/m² 0,9 °C 11,3 km/h (2 Bft)
11.12.2016 15:55 5,0 °C 5,1 °C 74 % 1023,5 hPa 0,0 mm 8,4 km/h (2 Bft) SW 236 ° 0 min 0,000 mm 0,0 UV-I 11 W/m² 0,8 °C 11,3 km/h (2 Bft)
11.12.2016 15:56 5,0 °C 5,1 °C 74 % 1023,5 hPa 0,0 mm 8,0 km/h (2 Bft) W-SW 247 ° 0 min 0,000 mm 0,0 UV-I 7 W/m² 0,8 °C 11,3 km/h (2 Bft)
11.12.2016 15:57 5,0 °C 5,1 °C 74 % 1023,5 hPa 0,0 mm 14,5 km/h (3 Bft) W 270 ° 0 min 0,000 mm 0,0 UV-I 7 W/m² 0,8 °C 19,3 km/h (3 Bft)
11.12.2016 15:59 5,0 °C 5,1 °C 74 % 1023,5 hPa 0,0 mm 10,2 km/h (2 Bft) NW 305 ° 0 min 0,000 mm 0,0 UV-I 7 W/m² 0,8 °C 12,9 km/h (3 Bft)
11.12.2016 16:00 4,9 °C 5,0 °C 75 % 1023,6 hPa 0,0 mm 7,8 km/h (2 Bft) W-SW 245 ° 0 min 0,000 mm 0,0 UV-I 7 W/m² 0,8 °C 11,3 km/h (2 Bft)
11.12.2016 16:01 4,9 °C 4,9 °C 75 % 1023,6 hPa 0,0 mm 14,6 km/h (3 Bft) W-SW 254 ° 0 min 0,051 mm 0,0 UV-I 5 W/m² 0,8 °C 20,9 km/h (4 Bft)
11.12.2016 16:02 4,9 °C 4,9 °C 75 % 1023,6 hPa 0,0 mm 13,2 km/h (3 Bft) W 269 ° 0 min 0,000 mm 0,0 UV-I 5 W/m² 0,8 °C 17,7 km/h (3 Bft)
11.12.2016 16:03 4,9 °C 4,9 °C 75 % 1023,6 hPa 0,0 mm 10,3 km/h (2 Bft) NW 308 ° 0 min 0,000 mm 0,0 UV-I 0 W/m² 0,8 °C 12,9 km/h (3 Bft)
11.12.2016 16:04 4,9 °C 4,9 °C 75 % 1023,6 hPa 0,0 mm 6,2 km/h (2 Bft) W-NW 285 ° 0 min 0,000 mm 0,0 UV-I 0 W/m² 0,8 °C 11,3 km/h (2 Bft)
11.12.2016 16:05 4,9 °C 4,9 °C 75 % 1023,6 hPa 0,0 mm 8,1 km/h (2 Bft) W 279 ° 0 min 0,000 mm 0,0 UV-I 0 W/m² 0,8 °C 14,5 km/h (3 Bft)
11.12.2016 16:06 4,9 °C 4,9 °C 75 % 1023,6 hPa 0,0 mm 9,9 km/h (2 Bft) W 278 ° 0 min 0,000 mm 0,0 UV-I 0 W/m² 0,8 °C 16,1 km/h (3 Bft)
11.12.2016 16:07 4,9 °C 4,9 °C 75 % 1023,7 hPa 0,0 mm 9,9 km/h (2 Bft) W-SW 258 ° 0 min 0,000 mm 0,0 UV-I 0 W/m² 0,8 °C 14,5 km/h (3 Bft)
11.12.2016 16:08 4,8 °C 4,9 °C 75 % 1023,5 hPa 0,0 mm 11,9 km/h (2 Bft) W 281 ° 0 min 0,000 mm 0,0 UV-I 0 W/m² 0,8 °C 14,5 km/h (3 Bft)
11.12.2016 16:09 4,8 °C 4,9 °C 75 % 1023,6 hPa 0,0 mm 5,5 km/h (1 Bft) W-SW 257 ° 0 min 0,000 mm 0,0 UV-I 0 W/m² 0,8 °C 11,3 km/h (2 Bft)
11.12.2016 16:10 4,8 °C 4,8 °C 75 % 1023,6 hPa 0,0 mm 6,7 km/h (2 Bft) W 276 ° 0 min 0,000 mm 0,0 UV-I 0 W/m² 0,8 °C 14,5 km/h (3 Bft)
11.12.2016 16:11 4,8 °C 4,8 °C 76 % 1023,6 hPa 0,0 mm 9,2 km/h (2 Bft) W-NW 294 ° 0 min 0,000 mm 0,0 UV-I 0 W/m² 0,9 °C 14,5 km/h (3 Bft)
11.12.2016 16:12 4,8 °C 4,8 °C 76 % 1023,7 hPa 0,0 mm 7,5 km/h (2 Bft) W-SW 238 ° 0 min 0,000 mm 0,0 UV-I 0 W/m² 0,9 °C 14,5 km/h (3 Bft)
11.12.2016 16:13 4,8 °C 4,8 °C 77 % 1023,7 hPa 0,0 mm 7,6 km/h (2 Bft) W 277 ° 0 min 0,000 mm 0,0 UV-I 0 W/m² 1,1 °C 16,1 km/h (3 Bft)
11.12.2016 16:14 4,8 °C 4,8 °C 77 % 1023,7 hPa 0,0 mm 10,0 km/h (2 Bft) W 267 ° 0 min 0,000 mm 0,0 UV-I 0 W/m² 1,1 °C 14,5 km/h (3 Bft)
11.12.2016 16:15 4,8 °C 4,8 °C 77 % 1023,7 hPa 0,0 mm 7,0 km/h (2 Bft) SW 218 ° 0 min 0,000 mm 0,0 UV-I 0 W/m² 1,1 °C 11,3 km/h (2 Bft)
11.12.2016 16:16 4,8 °C 4,8 °C 77 % 1023,7 hPa 0,0 mm 9,1 km/h (2 Bft) W 275 ° 0 min 0,000 mm 0,0 UV-I 0 W/m² 1,1 °C 12,9 km/h (3 Bft)
11.12.2016 16:17 4,8 °C 4,8 °C 78 % 1023,8 hPa 0,0 mm 9,0 km/h (2 Bft) W 276 ° 0 min 0,000 mm 0,0 UV-I 0 W/m² 1,3 °C 16,1 km/h (3 Bft)
11.12.2016 16:18 4,7 °C 4,8 °C 78 % 1023,8 hPa 0,0 mm 11,3 km/h (2 Bft) NW 325 ° 0 min 0,000 mm 0,0 UV-I 0 W/m² 1,2 °C 14,5 km/h (3 Bft)
11.12.2016 16:19 4,7 °C 4,7 °C 78 % 1023,8 hPa 0,0 mm 8,9 km/h (2 Bft) NW 319 ° 0 min 0,000 mm 0,0 UV-I 0 W/m² 1,2 °C 19,3 km/h (3 Bft)
11.12.2016 16:20 4,7 °C 4,7 °C 79 % 1023,8 hPa 0,0 mm 7,8 km/h (2 Bft) SW 221 ° 0 min 0,000 mm 0,0 UV-I 0 W/m² 1,4 °C 16,1 km/h (3 Bft)
11.12.2016 16:21 4,7 °C 4,7 °C 79 % 1023,8 hPa 0,0 mm 10,6 km/h (2 Bft) W 267 ° 0 min 0,000 mm 0,0 UV-I 0 W/m² 1,4 °C 14,5 km/h (3 Bft)
11.12.2016 16:22 4,7 °C 4,7 °C 79 % 1023,8 hPa 0,0 mm 5,4 km/h (1 Bft) W-SW 257 ° 0 min 0,000 mm 0,0 UV-I 0 W/m² 1,4 °C 9,7 km/h (2 Bft)
11.12.2016 16:23 4,6 °C 4,7 °C 80 % 1023,8 hPa 0,0 mm 9,3 km/h (2 Bft) W 262 ° 0 min 0,000 mm 0,0 UV-I 0 W/m² 1,5 °C 14,5 km/h (3 Bft)
11.12.2016 16:24 4,6 °C 4,6 °C 80 % 1023,8 hPa 0,0 mm 5,0 km/h (1 Bft) W-NW 283 ° 0 min 0,000 mm 0,0 UV-I 0 W/m² 1,5 °C 8,0 km/h (2 Bft)
11.12.2016 16:25 4,6 °C 4,6 °C 80 % 1023,8 hPa 0,0 mm 3,7 km/h (1 Bft) W 268 ° 0 min 0,000 mm 0,0 UV-I 0 W/m² 1,5 °C 6,4 km/h (2 Bft)
11.12.2016 16:26 4,6 °C 4,6 °C 80 % 1023,8 hPa 0,0 mm 3,6 km/h (1 Bft) W 259 ° 0 min 0,000 mm 0,0 UV-I 0 W/m² 1,5 °C 4,8 km/h (1 Bft)
11.12.2016 16:27 4,6 °C 4,6 °C 81 % 1023,9 hPa 0,0 mm 7,8 km/h (2 Bft) W-NW 293 ° 0 min 0,000 mm 0,0 UV-I 0 W/m² 1,6 °C 11,3 km/h (2 Bft)
11.12.2016 16:28 4,5 °C 4,6 °C 81 % 1023,9 hPa 0,0 mm 5,8 km/h (2 Bft) W-NW 287 ° 0 min 0,000 mm 0,0 UV-I 0 W/m² 1,5 °C 6,4 km/h (2 Bft)
11.12.2016 16:29 4,5 °C 4,5 °C 81 % 1023,9 hPa 0,0 mm 4,4 km/h (1 Bft) W 267 ° 0 min 0,000 mm 0,0 UV-I 0 W/m² 1,5 °C 4,8 km/h (1 Bft)
11.12.2016 16:30 4,4 °C 4,5 °C 81 % 1023,9 hPa 0,0 mm 4,2 km/h (1 Bft) W 261 ° 0 min 0,000 mm 0,0 UV-I 0 W/m² 1,4 °C 6,4 km/h (2 Bft)
11.12.2016 16:31 4,4 °C 4,5 °C 81 % 1023,9 hPa 0,0 mm 3,9 km/h (1 Bft) W 261 ° 0 min 0,000 mm 0,0 UV-I 0 W/m² 1,4 °C 4,8 km/h (1 Bft)
11.12.2016 16:32 4,4 °C 4,4 °C 82 % 1023,9 hPa 0,0 mm 3,1 km/h (1 Bft) W 272 ° 0 min 0,000 mm 0,0 UV-I 0 W/m² 1,6 °C 9,7 km/h (2 Bft)
11.12.2016 16:33 4,4 °C 4,4 °C 82 % 1023,9 hPa 0,0 mm 5,0 km/h (1 Bft) W-NW 294 ° 0 min 0,000 mm 0,0 UV-I 0 W/m² 1,6 °C 9,7 km/h (2 Bft)
11.12.2016 16:34 4,4 °C 4,4 °C 82 % 1023,9 hPa 0,0 mm 6,2 km/h (2 Bft) SW 231 ° 0 min 0,000 mm 0,0 UV-I 0 W/m² 1,6 °C 8,0 km/h (2 Bft)
11.12.2016 16:35 4,3 °C 4,4 °C 82 % 1024,0 hPa 0,0 mm 4,9 km/h (1 Bft) W-SW 250 ° 0 min 0,000 mm 0,0 UV-I 0 W/m² 1,5 °C 6,4 km/h (2 Bft)
11.12.2016 16:36 4,3 °C 4,3 °C 83 % 1023,9 hPa 0,0 mm 6,2 km/h (2 Bft) W-SW 256 ° 0 min 0,000 mm 0,0 UV-I 0 W/m² 1,7 °C 14,5 km/h (3 Bft)
11.12.2016 16:37 4,3 °C 4,3 °C 83 % 1024,0 hPa 0,0 mm 9,9 km/h (2 Bft) W-NW 284 ° 0 min 0,000 mm 0,0 UV-I 0 W/m² 1,7 °C 11,3 km/h (2 Bft)
11.12.2016 16:38 4,3 °C 4,3 °C 83 % 1024,0 hPa 0,0 mm 5,8 km/h (2 Bft) SW 220 ° 0 min 0,000 mm 0,0 UV-I 0 W/m² 1,7 °C 11,3 km/h (2 Bft)
11.12.2016 16:39 4,3 °C 4,3 °C 83 % 1024,0 hPa 0,0 mm 7,7 km/h (2 Bft) W 272 ° 0 min 0,000 mm 0,0 UV-I 0 W/m² 1,7 °C 14,5 km/h (3 Bft)
11.12.2016 16:40 4,3 °C 4,3 °C 84 % 1024,0 hPa 0,0 mm 10,1 km/h (2 Bft) W-SW 242 ° 0 min 0,000 mm 0,0 UV-I 0 W/m² 1,8 °C 17,7 km/h (3 Bft)
11.12.2016 16:41 4,2 °C 4,3 °C 84 % 1024,0 hPa 0,0 mm 10,2 km/h (2 Bft) W-SW 252 ° 0 min 0,000 mm 0,0 UV-I 0 W/m² 1,7 °C 17,7 km/h (3 Bft)
11.12.2016 16:42 4,2 °C 4,2 °C 84 % 1024,0 hPa 0,0 mm 7,2 km/h (2 Bft) W 261 ° 0 min 0,000 mm 0,0 UV-I 0 W/m² 1,7 °C 12,9 km/h (3 Bft)
11.12.2016 16:43 4,2 °C 4,2 °C 85 % 1024,0 hPa 0,0 mm 9,1 km/h (2 Bft) W-SW 251 ° 0 min 0,000 mm 0,0 UV-I 0 W/m² 1,9 °C 12,9 km/h (3 Bft)
11.12.2016 16:44 4,2 °C 4,2 °C 85 % 1024,1 hPa 0,0 mm 7,2 km/h (2 Bft) W-NW 293 ° 0 min 0,000 mm 0,0 UV-I 0 W/m² 1,9 °C 11,3 km/h (2 Bft)
11.12.2016 16:45 4,1 °C 4,2 °C 85 % 1024,1 hPa 0,0 mm 11,8 km/h (2 Bft) W-SW 242 ° 0 min 0,000 mm 0,0 UV-I 0 W/m² 1,8 °C 16,1 km/h (3 Bft)
11.12.2016 16:46 4,1 °C 4,1 °C 85 % 1024,1 hPa 0,0 mm 7,8 km/h (2 Bft) W-SW 250 ° 0 min 0,000 mm 0,0 UV-I 0 W/m² 1,8 °C 12,9 km/h (3 Bft)
11.12.2016 16:47 4,1 °C 4,1 °C 86 % 1024,1 hPa 0,0 mm 6,0 km/h (2 Bft) SW 227 ° 0 min 0,000 mm 0,0 UV-I 0 W/m² 2,0 °C 8,0 km/h (2 Bft)
11.12.2016 16:48 4,1 °C 4,1 °C 86 % 1024,1 hPa 0,0 mm 2,6 km/h (1 Bft) W-SW 257 ° 0 min 0,000 mm 0,0 UV-I 0 W/m² 2,0 °C 4,8 km/h (1 Bft)
11.12.2016 16:49 4,1 °C 4,1 °C 86 % 1024,2 hPa 0,0 mm 9,1 km/h (2 Bft) W 268 ° 0 min 0,000 mm 0,0 UV-I 0 W/m² 2,0 °C 12,9 km/h (3 Bft)
11.12.2016 16:50 4,0 °C 4,1 °C 86 % 1024,2 hPa 0,0 mm 4,8 km/h (1 Bft) W-NW 286 ° 0 min 0,000 mm 0,0 UV-I 0 W/m² 1,9 °C 9,7 km/h (2 Bft)
11.12.2016 16:51 4,0 °C 4,0 °C 86 % 1024,2 hPa 0,0 mm 8,0 km/h (2 Bft) W 261 ° 0 min 0,000 mm 0,0 UV-I 0 W/m² 1,9 °C 11,3 km/h (2 Bft)
11.12.2016 16:52 4,0 °C 4,0 °C 87 % 1024,2 hPa 0,0 mm 8,1 km/h (2 Bft) W-SW 243 ° 0 min 0,000 mm 0,0 UV-I 0 W/m² 2,0 °C 12,9 km/h (3 Bft)
11.12.2016 16:53 3,9 °C 4,0 °C 87 % 1024,2 hPa 0,0 mm 9,6 km/h (2 Bft) W 259 ° 0 min 0,000 mm 0,0 UV-I 0 W/m² 1,9 °C 14,5 km/h (3 Bft)
11.12.2016 16:54 3,9 °C 3,9 °C 87 % 1024,2 hPa 0,0 mm 3,4 km/h (1 Bft) W 259 ° 0 min 0,000 mm 0,0 UV-I 0 W/m² 1,9 °C 6,4 km/h (2 Bft)
11.12.2016 16:55 3,9 °C 3,9 °C 87 % 1024,2 hPa 0,0 mm 4,4 km/h (1 Bft) W 261 ° 0 min 0,000 mm 0,0 UV-I 0 W/m² 1,9 °C 6,4 km/h (2 Bft)
11.12.2016 16:56 3,9 °C 3,9 °C 87 % 1024,3 hPa 0,0 mm 3,6 km/h (1 Bft) W-SW 244 ° 0 min 0,000 mm 0,0 UV-I 0 W/m² 1,9 °C 6,4 km/h (2 Bft)
11.12.2016 16:57 3,9 °C 3,9 °C 87 % 1024,2 hPa 0,0 mm 4,4 km/h (1 Bft) W 277 ° 0 min 0,000 mm 0,0 UV-I 0 W/m² 1,9 °C 6,4 km/h (2 Bft)
11.12.2016 16:58 3,8 °C 3,9 °C 87 % 1024,3 hPa 0,0 mm 3,0 km/h (1 Bft) W 260 ° 0 min 0,000 mm 0,0 UV-I 0 W/m² 1,8 °C 4,8 km/h (1 Bft)
11.12.2016 16:59 3,8 °C 3,8 °C 87 % 1024,3 hPa 0,0 mm 4,6 km/h (1 Bft) W 275 ° 0 min 0,000 mm 0,0 UV-I 0 W/m² 1,8 °C 8,0 km/h (2 Bft)
11.12.2016 17:00 3,8 °C 3,8 °C 87 % 1024,3 hPa 0,0 mm 4,5 km/h (1 Bft) W 259 ° 0 min 0,025 mm 0,0 UV-I 0 W/m² 1,8 °C 6,4 km/h (2 Bft)
11.12.2016 17:01 3,8 °C 3,8 °C 87 % 1024,4 hPa 0,0 mm 3,9 km/h (1 Bft) W 275 ° 0 min 0,000 mm 0,0 UV-I 0 W/m² 1,8 °C 4,8 km/h (1 Bft)
11.12.2016 17:02 3,8 °C 3,8 °C 87 % 1024,4 hPa 0,0 mm 4,7 km/h (1 Bft) W 273 ° 0 min 0,000 mm 0,0 UV-I 0 W/m² 1,8 °C 6,4 km/h (2 Bft)
11.12.2016 17:03 3,8 °C 3,8 °C 88 % 1024,4 hPa 0,2 mm 6,8 km/h (2 Bft) W-SW 257 ° 0 min 0,000 mm 0,0 UV-I 0 W/m² 2,0 °C 9,7 km/h (2 Bft)
11.12.2016 17:04 3,8 °C 3,8 °C 88 % 1024,4 hPa 0,0 mm 3,2 km/h (1 Bft) W-SW 254 ° 0 min 0,000 mm 0,0 UV-I 0 W/m² 2,0 °C 6,4 km/h (2 Bft)
11.12.2016 17:05 3,7 °C 3,8 °C 88 % 1024,4 hPa 0,0 mm 6,4 km/h (2 Bft) W-SW 252 ° 0 min 0,000 mm 0,0 UV-I 0 W/m² 1,9 °C 11,3 km/h (2 Bft)
11.12.2016 17:06 3,7 °C 3,7 °C 88 % 1024,4 hPa 0,0 mm 5,8 km/h (2 Bft) W 274 ° 0 min 0,000 mm 0,0 UV-I 0 W/m² 1,9 °C 6,4 km/h (2 Bft)
11.12.2016 17:07 3,7 °C 3,7 °C 88 % 1024,5 hPa 0,0 mm 5,2 km/h (1 Bft) W 278 ° 0 min 0,000 mm 0,0 UV-I 0 W/m² 1,9 °C 6,4 km/h (2 Bft)
11.12.2016 17:08 3,7 °C 3,7 °C 88 % 1024,4 hPa 0,0 mm 5,9 km/h (2 Bft) W 274 ° 0 min 0,000 mm 0,0 UV-I 0 W/m² 1,9 °C 9,7 km/h (2 Bft)
11.12.2016 17:09 3,7 °C 3,7 °C 88 % 1024,6 hPa 0,0 mm 7,7 km/h (2 Bft) W-NW 290 ° 0 min 0,000 mm 0,0 UV-I 0 W/m² 1,9 °C 12,9 km/h (3 Bft)
11.12.2016 17:10 3,6 °C 3,7 °C 88 % 1024,6 hPa 0,0 mm 6,1 km/h (2 Bft) W 279 ° 0 min 0,000 mm 0,0 UV-I 0 W/m² 1,8 °C 11,3 km/h (2 Bft)
11.12.2016 17:11 3,6 °C 3,6 °C 89 % 1024,6 hPa 0,0 mm 6,1 km/h (2 Bft) W-NW 290 ° 0 min 0,000 mm 0,0 UV-I 0 W/m² 2,0 °C 11,3 km/h (2 Bft)
11.12.2016 17:12 3,6 °C 3,6 °C 89 % 1024,6 hPa 0,0 mm 3,5 km/h (1 Bft) W 273 ° 0 min 0,000 mm 0,0 UV-I 0 W/m² 2,0 °C 4,8 km/h (1 Bft)
11.12.2016 17:13 3,6 °C 3,6 °C 89 % 1024,6 hPa 0,0 mm 6,5 km/h (2 Bft) W-NW 296 ° 0 min 0,000 mm 0,0 UV-I 0 W/m² 2,0 °C 9,7 km/h (2 Bft)
11.12.2016 17:14 3,6 °C 3,6 °C 89 % 1024,6 hPa 0,0 mm 5,1 km/h (1 Bft) W 261 ° 0 min 0,000 mm 0,0 UV-I 0 W/m² 2,0 °C 9,7 km/h (2 Bft)
11.12.2016 17:15 3,6 °C 3,6 °C 89 % 1024,6 hPa 0,0 mm 6,8 km/h (2 Bft) W 272 ° 0 min 0,000 mm 0,0 UV-I 0 W/m² 2,0 °C 9,7 km/h (2 Bft)
11.12.2016 17:16 3,5 °C 3,6 °C 89 % 1024,5 hPa 0,0 mm 8,0 km/h (2 Bft) W 277 ° 0 min 0,000 mm 0,0 UV-I 0 W/m² 1,9 °C 11,3 km/h (2 Bft)
11.12.2016 17:17 3,5 °C 3,5 °C 89 % 1024,6 hPa 0,0 mm 4,8 km/h (1 Bft) W-NW 284 ° 0 min 0,000 mm 0,0 UV-I 0 W/m² 1,9 °C 9,7 km/h (2 Bft)
11.12.2016 17:18 3,5 °C 3,5 °C 89 % 1024,6 hPa 0,0 mm 6,3 km/h (2 Bft) W 281 ° 0 min 0,000 mm 0,0 UV-I 0 W/m² 1,9 °C 11,3 km/h (2 Bft)
11.12.2016 17:19 3,5 °C 3,5 °C 89 % 1024,6 hPa 0,0 mm 5,6 km/h (1 Bft) W-SW 244 ° 0 min 0,000 mm 0,0 UV-I 0 W/m² 1,9 °C 8,0 km/h (2 Bft)
11.12.2016 17:20 3,5 °C 3,5 °C 89 % 1024,6 hPa 0,0 mm 7,8 km/h (2 Bft) W 269 ° 0 min 0,000 mm 0,0 UV-I 0 W/m² 1,9 °C 11,3 km/h (2 Bft)
11.12.2016 17:21 3,5 °C 3,5 °C 89 % 1024,7 hPa 0,0 mm 5,2 km/h (1 Bft) W-NW 283 ° 0 min 0,000 mm 0,0 UV-I 0 W/m² 1,9 °C 9,7 km/h (2 Bft)
11.12.2016 17:22 3,4 °C 3,5 °C 90 % 1024,7 hPa 0,0 mm 4,3 km/h (1 Bft) W 263 ° 0 min 0,000 mm 0,0 UV-I 0 W/m² 1,9 °C 6,4 km/h (2 Bft)
11.12.2016 17:23 3,4 °C 3,4 °C 90 % 1024,7 hPa 0,0 mm 7,0 km/h (2 Bft) W-SW 246 ° 0 min 0,000 mm 0,0 UV-I 0 W/m² 1,9 °C 12,9 km/h (3 Bft)
11.12.2016 17:24 3,4 °C 3,4 °C 90 % 1024,7 hPa 0,0 mm 6,8 km/h (2 Bft) W-SW 238 ° 0 min 0,000 mm 0,0 UV-I 0 W/m² 1,9 °C 11,3 km/h (2 Bft)
11.12.2016 17:25 3,4 °C 3,4 °C 90 % 1024,6 hPa 0,0 mm 12,3 km/h (3 Bft) W 265 ° 0 min 0,000 mm 0,0 UV-I 0 W/m² 1,9 °C 22,5 km/h (4 Bft)
11.12.2016 17:26 3,4 °C 3,4 °C 90 % 1024,7 hPa 0,0 mm 10,6 km/h (2 Bft) W-NW 283 ° 0 min 0,000 mm 0,0 UV-I 0 W/m² 1,9 °C 14,5 km/h (3 Bft)
11.12.2016 17:27 3,4 °C 3,4 °C 90 % 1024,6 hPa 0,0 mm 8,4 km/h (2 Bft) W 264 ° 0 min 0,000 mm 0,0 UV-I 0 W/m² 1,9 °C 12,9 km/h (3 Bft)
11.12.2016 17:28 3,4 °C 3,4 °C 90 % 1024,7 hPa 0,0 mm 9,8 km/h (2 Bft) SW 226 ° 0 min 0,000 mm 0,0 UV-I 0 W/m² 1,9 °C 12,9 km/h (3 Bft)
11.12.2016 17:29 3,3 °C 3,4 °C 90 % 1024,7 hPa 0,0 mm 8,4 km/h (2 Bft) W-SW 244 ° 0 min 0,000 mm 0,0 UV-I 0 W/m² 1,8 °C 17,7 km/h (3 Bft)
11.12.2016 17:30 3,3 °C 3,4 °C 90 % 1024,7 hPa 0,0 mm 8,9 km/h (2 Bft) W-SW 250 ° 0 min 0,000 mm 0,0 UV-I 0 W/m² 1,8 °C 16,1 km/h (3 Bft)
11.12.2016 17:31 3,3 °C 3,3 °C 90 % 1024,7 hPa 0,0 mm 9,5 km/h (2 Bft) W 259 ° 0 min 0,000 mm 0,0 UV-I 0 W/m² 1,8 °C 17,7 km/h (3 Bft)
11.12.2016 17:32 3,3 °C 3,3 °C 90 % 1024,7 hPa 0,0 mm 10,7 km/h (2 Bft) SW 236 ° 0 min 0,000 mm 0,0 UV-I 0 W/m² 1,8 °C 14,5 km/h (3 Bft)
11.12.2016 17:33 3,3 °C 3,3 °C 90 % 1024,7 hPa 0,0 mm 9,5 km/h (2 Bft) W 278 ° 0 min 0,000 mm 0,0 UV-I 0 W/m² 1,8 °C 14,5 km/h (3 Bft)
11.12.2016 17:34 3,3 °C 3,3 °C 90 % 1024,7 hPa 0,0 mm 11,9 km/h (2 Bft) W 261 ° 0 min 0,000 mm 0,0 UV-I 0 W/m² 1,8 °C 17,7 km/h (3 Bft)
11.12.2016 17:35 3,3 °C 3,3 °C 90 % 1024,7 hPa 0,0 mm 9,7 km/h (2 Bft) W 260 ° 0 min 0,000 mm 0,0 UV-I 0 W/m² 1,8 °C 14,5 km/h (3 Bft)
11.12.2016 17:36 3,3 °C 3,3 °C 90 % 1024,7 hPa 0,0 mm 6,2 km/h (2 Bft) W-SW 238 ° 0 min 0,000 mm 0,0 UV-I 0 W/m² 1,8 °C 11,3 km/h (2 Bft)
11.12.2016 17:37 3,3 °C 3,3 °C 90 % 1024,7 hPa 0,0 mm 6,2 km/h (2 Bft) SW 220 ° 0 min 0,000 mm 0,0 UV-I 0 W/m² 1,8 °C 8,0 km/h (2 Bft)
11.12.2016 17:38 3,3 °C 3,3 °C 90 % 1024,7 hPa 0,2 mm 10,2 km/h (2 Bft) W-NW 284 ° 0 min 0,000 mm 0,0 UV-I 0 W/m² 1,8 °C 16,1 km/h (3 Bft)
11.12.2016 17:39 3,3 °C 3,3 °C 90 % 1024,7 hPa 0,0 mm 5,0 km/h (1 Bft) W 266 ° 0 min 0,000 mm 0,0 UV-I 0 W/m² 1,8 °C 9,7 km/h (2 Bft)
11.12.2016 17:40 3,3 °C 3,3 °C 90 % 1024,7 hPa 0,0 mm 11,7 km/h (2 Bft) W 267 ° 0 min 0,000 mm 0,0 UV-I 0 W/m² 1,8 °C 16,1 km/h (3 Bft)
11.12.2016 17:41 3,3 °C 3,3 °C 90 % 1024,6 hPa 0,0 mm 9,7 km/h (2 Bft) W-SW 254 ° 0 min 0,000 mm 0,0 UV-I 0 W/m² 1,8 °C 16,1 km/h (3 Bft)
11.12.2016 17:42 3,3 °C 3,3 °C 90 % 1024,7 hPa 0,0 mm 5,5 km/h (1 Bft) SW 233 ° 0 min 0,000 mm 0,0 UV-I 0 W/m² 1,8 °C 9,7 km/h (2 Bft)
11.12.2016 17:43 3,3 °C 3,3 °C 90 % 1024,6 hPa 0,0 mm 4,1 km/h (1 Bft) W-SW 245 ° 0 min 0,000 mm 0,0 UV-I 0 W/m² 1,8 °C 11,3 km/h (2 Bft)
11.12.2016 17:44 3,3 °C 3,3 °C 90 % 1024,6 hPa 0,0 mm 8,7 km/h (2 Bft) W-SW 244 ° 0 min 0,000 mm 0,0 UV-I 0 W/m² 1,8 °C 14,5 km/h (3 Bft)
11.12.2016 17:45 3,3 °C 3,3 °C 91 % 1024,6 hPa 0,0 mm 9,4 km/h (2 Bft) SW 224 ° 0 min 0,000 mm 0,0 UV-I 0 W/m² 2,0 °C 14,5 km/h (3 Bft)
11.12.2016 17:46 3,3 °C 3,3 °C 91 % 1024,6 hPa 0,0 mm 7,2 km/h (2 Bft) SW 217 ° 0 min 0,000 mm 0,0 UV-I 0 W/m² 2,0 °C 14,5 km/h (3 Bft)
11.12.2016 17:47 3,3 °C 3,3 °C 91 % 1024,5 hPa 0,0 mm 10,7 km/h (2 Bft) SW 222 ° 0 min 0,000 mm 0,0 UV-I 0 W/m² 2,0 °C 17,7 km/h (3 Bft)
11.12.2016 17:48 3,3 °C 3,3 °C 91 % 1024,6 hPa 0,0 mm 10,4 km/h (2 Bft) W-SW 248 ° 0 min 0,000 mm 0,0 UV-I 0 W/m² 2,0 °C 12,9 km/h (3 Bft)
11.12.2016 17:49 3,3 °C 3,3 °C 91 % 1024,4 hPa 0,0 mm 9,1 km/h (2 Bft) W-SW 240 ° 0 min 0,000 mm 0,0 UV-I 0 W/m² 2,0 °C 12,9 km/h (3 Bft)
11.12.2016 17:50 3,3 °C 3,3 °C 91 % 1024,4 hPa 0,0 mm 14,3 km/h (3 Bft) W 273 ° 0 min 0,000 mm 0,0 UV-I 0 W/m² 2,0 °C 20,9 km/h (4 Bft)
11.12.2016 17:51 3,3 °C 3,3 °C 91 % 1024,4 hPa 0,0 mm 7,8 km/h (2 Bft) SW 234 ° 0 min 0,000 mm 0,0 UV-I 0 W/m² 2,0 °C 9,7 km/h (2 Bft)
11.12.2016 17:52 3,3 °C 3,3 °C 91 % 1024,4 hPa 0,0 mm 7,8 km/h (2 Bft) W-SW 257 ° 0 min 0,000 mm 0,0 UV-I 0 W/m² 2,0 °C 12,9 km/h (3 Bft)
11.12.2016 17:53 3,3 °C 3,3 °C 91 % 1024,5 hPa 0,0 mm 11,3 km/h (2 Bft) W 273 ° 0 min 0,000 mm 0,0 UV-I 0 W/m² 2,0 °C 16,1 km/h (3 Bft)
11.12.2016 17:54 3,3 °C 3,3 °C 91 % 1024,4 hPa 0,0 mm 10,3 km/h (2 Bft) SW 234 ° 0 min 0,000 mm 0,0 UV-I 0 W/m² 2,0 °C 14,5 km/h (3 Bft)
11.12.2016 17:55 3,3 °C 3,3 °C 91 % 1024,4 hPa 0,0 mm 7,9 km/h (2 Bft) W 259 ° 0 min 0,000 mm 0,0 UV-I 0 W/m² 2,0 °C 11,3 km/h (2 Bft)
11.12.2016 17:56 3,3 °C 3,3 °C 91 % 1024,4 hPa 0,0 mm 7,3 km/h (2 Bft) W-SW 245 ° 0 min 0,000 mm 0,0 UV-I 0 W/m² 2,0 °C 12,9 km/h (3 Bft)
11.12.2016 17:57 3,3 °C 3,3 °C 91 % 1024,3 hPa 0,0 mm 8,2 km/h (2 Bft) W-SW 253 ° 0 min 0,000 mm 0,0 UV-I 0 W/m² 2,0 °C 14,5 km/h (3 Bft)
11.12.2016 17:58 3,3 °C 3,3 °C 91 % 1024,4 hPa 0,0 mm 5,2 km/h (1 Bft) W 274 ° 0 min 0,000 mm 0,0 UV-I 0 W/m² 2,0 °C 8,0 km/h (2 Bft)
11.12.2016 17:59 3,3 °C 3,3 °C 91 % 1024,4 hPa 0,0 mm 5,4 km/h (1 Bft) W-NW 288 ° 0 min 0,000 mm 0,0 UV-I 0 W/m² 2,0 °C 9,7 km/h (2 Bft)
11.12.2016 18:00 3,3 °C 3,3 °C 91 % 1024,4 hPa 0,0 mm 6,6 km/h (2 Bft) W-SW 253 ° 0 min 0,000 mm 0,0 UV-I 0 W/m² 2,0 °C 14,5 km/h (3 Bft)
11.12.2016 18:01 3,3 °C 3,3 °C 91 % 1024,4 hPa 0,0 mm 5,5 km/h (1 Bft) W-SW 247 ° 0 min 0,000 mm 0,0 UV-I 0 W/m² 2,0 °C 8,0 km/h (2 Bft)
11.12.2016 18:02 3,3 °C 3,3 °C 91 % 1024,5 hPa 0,0 mm 9,8 km/h (2 Bft) W 272 ° 0 min 0,000 mm 0,0 UV-I 0 W/m² 2,0 °C 14,5 km/h (3 Bft)
11.12.2016 18:03 3,3 °C 3,3 °C 91 % 1024,4 hPa 0,0 mm 6,5 km/h (2 Bft) W-SW 257 ° 0 min 0,000 mm 0,0 UV-I 0 W/m² 2,0 °C 14,5 km/h (3 Bft)
11.12.2016 18:04 3,3 °C 3,3 °C 91 % 1024,4 hPa 0,0 mm 11,5 km/h (2 Bft) W 280 ° 0 min 0,000 mm 0,0 UV-I 0 W/m² 2,0 °C 16,1 km/h (3 Bft)
11.12.2016 18:05 3,3 °C 3,3 °C 91 % 1024,5 hPa 0,0 mm 8,7 km/h (2 Bft) W-NW 296 ° 0 min 0,000 mm 0,0 UV-I 0 W/m² 2,0 °C 12,9 km/h (3 Bft)
11.12.2016 18:06 3,3 °C 3,3 °C 91 % 1024,4 hPa 0,0 mm 5,4 km/h (1 Bft) W 263 ° 0 min 0,000 mm 0,0 UV-I 0 W/m² 2,0 °C 9,7 km/h (2 Bft)
11.12.2016 18:07 3,3 °C 3,3 °C 91 % 1024,4 hPa 0,0 mm 6,2 km/h (2 Bft) W 262 ° 0 min 0,000 mm 0,0 UV-I 0 W/m² 2,0 °C 9,7 km/h (2 Bft)
11.12.2016 18:08 3,3 °C 3,3 °C 91 % 1024,5 hPa 0,0 mm 9,9 km/h (2 Bft) W 276 ° 0 min 0,000 mm 0,0 UV-I 0 W/m² 2,0 °C 12,9 km/h (3 Bft)
11.12.2016 18:09 3,3 °C 3,3 °C 92 % 1024,4 hPa 0,0 mm 7,8 km/h (2 Bft) W-SW 250 ° 0 min 0,000 mm 0,0 UV-I 0 W/m² 2,1 °C 12,9 km/h (3 Bft)
11.12.2016 18:10 3,3 °C 3,3 °C 92 % 1024,5 hPa 0,0 mm 10,3 km/h (2 Bft) W 274 ° 0 min 0,000 mm 0,0 UV-I 0 W/m² 2,1 °C 16,1 km/h (3 Bft)
11.12.2016 18:11 3,3 °C 3,3 °C 92 % 1024,4 hPa 0,0 mm 7,0 km/h (2 Bft) W 276 ° 0 min 0,000 mm 0,0 UV-I 0 W/m² 2,1 °C 11,3 km/h (2 Bft)
11.12.2016 18:12 3,3 °C 3,3 °C 92 % 1024,5 hPa 0,0 mm 9,7 km/h (2 Bft) W 270 ° 0 min 0,000 mm 0,0 UV-I 0 W/m² 2,1 °C 12,9 km/h (3 Bft)
11.12.2016 18:13 3,3 °C 3,3 °C 92 % 1024,4 hPa 0,0 mm 4,6 km/h (1 Bft) W 269 ° 0 min 0,000 mm 0,0 UV-I 0 W/m² 2,1 °C 6,4 km/h (2 Bft)
11.12.2016 18:14 3,3 °C 3,3 °C 92 % 1024,4 hPa 0,0 mm 11,6 km/h (2 Bft) W 262 ° 0 min 0,000 mm 0,0 UV-I 0 W/m² 2,1 °C 16,1 km/h (3 Bft)
11.12.2016 18:15 3,3 °C 3,3 °C 92 % 1024,4 hPa 0,0 mm 7,5 km/h (2 Bft) W 259 ° 0 min 0,000 mm 0,0 UV-I 0 W/m² 2,1 °C 12,9 km/h (3 Bft)
11.12.2016 18:16 3,3 °C 3,3 °C 92 % 1024,4 hPa 0,0 mm 8,0 km/h (2 Bft) W 270 ° 0 min 0,000 mm 0,0 UV-I 0 W/m² 2,1 °C 11,3 km/h (2 Bft)
11.12.2016 18:17 3,3 °C 3,3 °C 92 % 1024,4 hPa 0,0 mm 9,3 km/h (2 Bft) W 259 ° 0 min 0,000 mm 0,0 UV-I 0 W/m² 2,1 °C 22,5 km/h (4 Bft)
11.12.2016 18:18 3,3 °C 3,3 °C 92 % 1024,5 hPa 0,0 mm 7,2 km/h (2 Bft) W 271 ° 0 min 0,000 mm 0,0 UV-I 0 W/m² 2,1 °C 12,9 km/h (3 Bft)
11.12.2016 18:19 3,3 °C 3,3 °C 92 % 1024,5 hPa 0,0 mm 7,6 km/h (2 Bft) W-SW 253 ° 0 min 0,000 mm 0,0 UV-I 0 W/m² 2,1 °C 16,1 km/h (3 Bft)
11.12.2016 18:20 3,3 °C 3,3 °C 92 % 1024,4 hPa 0,0 mm 13,9 km/h (3 Bft) W 265 ° 0 min 0,000 mm 0,0 UV-I 0 W/m² 2,1 °C 20,9 km/h (4 Bft)
11.12.2016 18:21 3,3 °C 3,3 °C 92 % 1024,4 hPa 0,0 mm 10,3 km/h (2 Bft) W 270 ° 0 min 0,000 mm 0,0 UV-I 0 W/m² 2,1 °C 16,1 km/h (3 Bft)
11.12.2016 18:22 3,3 °C 3,3 °C 92 % 1024,4 hPa 0,0 mm 10,7 km/h (2 Bft) W 267 ° 0 min 0,000 mm 0,0 UV-I 0 W/m² 2,1 °C 16,1 km/h (3 Bft)
11.12.2016 18:23 3,3 °C 3,3 °C 92 % 1024,5 hPa 0,0 mm 9,3 km/h (2 Bft) W 275 ° 0 min 0,000 mm 0,0 UV-I 0 W/m² 2,1 °C 16,1 km/h (3 Bft)
11.12.2016 18:24 3,3 °C 3,3 °C 92 % 1024,5 hPa 0,0 mm 11,8 km/h (2 Bft) W 275 ° 0 min 0,000 mm 0,0 UV-I 0 W/m² 2,1 °C 17,7 km/h (3 Bft)
11.12.2016 18:25 3,4 °C 3,4 °C 92 % 1024,5 hPa 0,0 mm 11,2 km/h (2 Bft) W 271 ° 0 min 0,000 mm 0,0 UV-I 0 W/m² 2,2 °C 16,1 km/h (3 Bft)
11.12.2016 18:26 3,3 °C 3,4 °C 92 % 1024,5 hPa 0,0 mm 7,9 km/h (2 Bft) W-NW 296 ° 0 min 0,000 mm 0,0 UV-I 0 W/m² 2,1 °C 14,5 km/h (3 Bft)
11.12.2016 18:27 3,3 °C 3,3 °C 92 % 1024,5 hPa 0,0 mm 8,7 km/h (2 Bft) W-SW 257 ° 0 min 0,000 mm 0,0 UV-I 0 W/m² 2,1 °C 17,7 km/h (3 Bft)
11.12.2016 18:28 3,4 °C 3,4 °C 92 % 1024,4 hPa 0,0 mm 7,6 km/h (2 Bft) W-SW 252 ° 0 min 0,000 mm 0,0 UV-I 0 W/m² 2,2 °C 12,9 km/h (3 Bft)
11.12.2016 18:29 3,3 °C 3,4 °C 92 % 1024,4 hPa 0,0 mm 6,9 km/h (2 Bft) W-SW 247 ° 0 min 0,000 mm 0,0 UV-I 0 W/m² 2,1 °C 12,9 km/h (3 Bft)
11.12.2016 18:30 3,4 °C 3,4 °C 92 % 1024,5 hPa 0,0 mm 4,0 km/h (1 Bft) W 261 ° 0 min 0,000 mm 0,0 UV-I 0 W/m² 2,2 °C 4,8 km/h (1 Bft)
11.12.2016 18:31 3,3 °C 3,4 °C 92 % 1024,4 hPa 0,0 mm 4,4 km/h (1 Bft) W-SW 255 ° 0 min 0,000 mm 0,0 UV-I 0 W/m² 2,1 °C 8,0 km/h (2 Bft)
11.12.2016 18:32 3,4 °C 3,4 °C 92 % 1024,4 hPa 0,0 mm 6,7 km/h (2 Bft) W 273 ° 0 min 0,000 mm 0,0 UV-I 0 W/m² 2,2 °C 14,5 km/h (3 Bft)
11.12.2016 18:33 3,3 °C 3,4 °C 92 % 1024,4 hPa 0,0 mm 8,6 km/h (2 Bft) W 259 ° 0 min 0,000 mm 0,0 UV-I 0 W/m² 2,1 °C 14,5 km/h (3 Bft)
11.12.2016 18:34 3,4 °C 3,4 °C 92 % 1024,4 hPa 0,0 mm 3,6 km/h (1 Bft) W 265 ° 0 min 0,000 mm 0,0 UV-I 0 W/m² 2,2 °C 6,4 km/h (2 Bft)
11.12.2016 18:35 3,4 °C 3,4 °C 92 % 1024,4 hPa 0,0 mm 4,7 km/h (1 Bft) W-SW 257 ° 0 min 0,000 mm 0,0 UV-I 0 W/m² 2,2 °C 4,8 km/h (1 Bft)
11.12.2016 18:36 3,4 °C 3,4 °C 92 % 1024,4 hPa 0,0 mm 9,0 km/h (2 Bft) W-NW 292 ° 0 min 0,000 mm 0,0 UV-I 0 W/m² 2,2 °C 12,9 km/h (3 Bft)
11.12.2016 18:37 3,4 °C 3,4 °C 92 % 1024,4 hPa 0,0 mm 4,4 km/h (1 Bft) W 261 ° 0 min 0,000 mm 0,0 UV-I 0 W/m² 2,2 °C 6,4 km/h (2 Bft)
11.12.2016 18:38 3,4 °C 3,4 °C 92 % 1024,4 hPa 0,0 mm 4,4 km/h (1 Bft) W-SW 248 ° 0 min 0,000 mm 0,0 UV-I 0 W/m² 2,2 °C 6,4 km/h (2 Bft)
11.12.2016 18:39 3,4 °C 3,4 °C 92 % 1024,4 hPa 0,0 mm 5,9 km/h (2 Bft) W 274 ° 0 min 0,000 mm 0,0 UV-I 0 W/m² 2,2 °C 8,0 km/h (2 Bft)
11.12.2016 18:40 3,4 °C 3,4 °C 92 % 1024,4 hPa 0,2 mm 4,8 km/h (1 Bft) W 275 ° 0 min 0,000 mm 0,0 UV-I 0 W/m² 2,2 °C 6,4 km/h (2 Bft)
11.12.2016 18:41 3,4 °C 3,4 °C 92 % 1024,4 hPa 0,0 mm 3,8 km/h (1 Bft) W 267 ° 0 min 0,000 mm 0,0 UV-I 0 W/m² 2,2 °C 4,8 km/h (1 Bft)
11.12.2016 18:42 3,3 °C 3,4 °C 92 % 1024,4 hPa 0,0 mm 3,4 km/h (1 Bft) W 262 ° 0 min 0,000 mm 0,0 UV-I 0 W/m² 2,1 °C 4,8 km/h (1 Bft)
11.12.2016 18:43 3,4 °C 3,4 °C 92 % 1024,4 hPa 0,0 mm 8,6 km/h (2 Bft) W 268 ° 0 min 0,000 mm 0,0 UV-I 0 W/m² 2,2 °C 14,5 km/h (3 Bft)
11.12.2016 18:44 3,4 °C 3,4 °C 92 % 1024,3 hPa 0,0 mm 11,5 km/h (2 Bft) W 261 ° 0 min 0,000 mm 0,0 UV-I 0 W/m² 2,2 °C 16,1 km/h (3 Bft)
11.12.2016 18:45 3,4 °C 3,4 °C 92 % 1024,3 hPa 0,0 mm 7,2 km/h (2 Bft) W-NW 282 ° 0 min 0,000 mm 0,0 UV-I 0 W/m² 2,2 °C 12,9 km/h (3 Bft)
11.12.2016 18:46 3,4 °C 3,4 °C 92 % 1024,3 hPa 0,0 mm 6,0 km/h (2 Bft) W 259 ° 0 min 0,000 mm 0,0 UV-I 0 W/m² 2,2 °C 11,3 km/h (2 Bft)
11.12.2016 18:47 3,4 °C 3,4 °C 92 % 1024,3 hPa 0,0 mm 6,2 km/h (2 Bft) W 280 ° 0 min 0,000 mm 0,0 UV-I 0 W/m² 2,2 °C 11,3 km/h (2 Bft)
11.12.2016 18:48 3,4 °C 3,4 °C 92 % 1024,3 hPa 0,0 mm 5,4 km/h (1 Bft) W-SW 256 ° 0 min 0,000 mm 0,0 UV-I 0 W/m² 2,2 °C 11,3 km/h (2 Bft)
11.12.2016 18:49 3,4 °C 3,4 °C 92 % 1024,3 hPa 0,0 mm 3,2 km/h (1 Bft) W 265 ° 0 min 0,000 mm 0,0 UV-I 0 W/m² 2,2 °C 4,8 km/h (1 Bft)
11.12.2016 18:50 3,4 °C 3,4 °C 92 % 1024,2 hPa 0,0 mm 6,9 km/h (2 Bft) W-NW 287 ° 0 min 0,000 mm 0,0 UV-I 0 W/m² 2,2 °C 9,7 km/h (2 Bft)
11.12.2016 18:51 3,4 °C 3,4 °C 92 % 1024,2 hPa 0,0 mm 7,4 km/h (2 Bft) SW 215 ° 0 min 0,000 mm 0,0 UV-I 0 W/m² 2,2 °C 11,3 km/h (2 Bft)
11.12.2016 18:52 3,4 °C 3,4 °C 92 % 1024,2 hPa 0,0 mm 5,5 km/h (1 Bft) SW 221 ° 0 min 0,000 mm 0,0 UV-I 0 W/m² 2,2 °C 9,7 km/h (2 Bft)
11.12.2016 18:53 3,4 °C 3,4 °C 92 % 1024,2 hPa 0,0 mm 7,0 km/h (2 Bft) W-NW 283 ° 0 min 0,000 mm 0,0 UV-I 0 W/m² 2,2 °C 12,9 km/h (3 Bft)
11.12.2016 18:54 3,3 °C 3,4 °C 92 % 1024,3 hPa 0,0 mm 8,2 km/h (2 Bft) W-SW 245 ° 0 min 0,000 mm 0,0 UV-I 0 W/m² 2,1 °C 12,9 km/h (3 Bft)
11.12.2016 18:55 3,4 °C 3,4 °C 92 % 1024,3 hPa 0,0 mm 7,4 km/h (2 Bft) W-SW 250 ° 0 min 0,000 mm 0,0 UV-I 0 W/m² 2,2 °C 11,3 km/h (2 Bft)
11.12.2016 18:56 3,4 °C 3,4 °C 92 % 1024,3 hPa 0,0 mm 4,2 km/h (1 Bft) W 260 ° 0 min 0,000 mm 0,0 UV-I 0 W/m² 2,2 °C 6,4 km/h (2 Bft)
11.12.2016 18:57 3,3 °C 3,4 °C 92 % 1024,3 hPa 0,0 mm 5,4 km/h (1 Bft) W-SW 242 ° 0 min 0,000 mm 0,0 UV-I 0 W/m² 2,1 °C 8,0 km/h (2 Bft)
11.12.2016 18:58 3,4 °C 3,4 °C 92 % 1024,3 hPa 0,0 mm 8,2 km/h (2 Bft) S-SW 197 ° 0 min 0,000 mm 0,0 UV-I 0 W/m² 2,2 °C 11,3 km/h (2 Bft)
11.12.2016 18:59 3,3 °C 3,4 °C 92 % 1024,3 hPa 0,0 mm 6,1 km/h (2 Bft) SW 234 ° 0 min 0,000 mm 0,0 UV-I 0 W/m² 2,1 °C 11,3 km/h (2 Bft)
11.12.2016 19:00 3,4 °C 3,4 °C 92 % 1024,3 hPa 0,0 mm 8,3 km/h (2 Bft) W-SW 257 ° 0 min 0,000 mm 0,0 UV-I 0 W/m² 2,2 °C 12,9 km/h (3 Bft)
11.12.2016 19:01 3,4 °C 3,4 °C 92 % 1024,4 hPa 0,0 mm 6,7 km/h (2 Bft) W-NW 286 ° 0 min 0,000 mm 0,0 UV-I 0 W/m² 2,2 °C 9,7 km/h (2 Bft)
11.12.2016 19:02 3,4 °C 3,4 °C 92 % 1024,3 hPa 0,0 mm 4,7 km/h (1 Bft) W-SW 255 ° 0 min 0,000 mm 0,0 UV-I 0 W/m² 2,2 °C 6,4 km/h (2 Bft)
11.12.2016 19:03 3,4 °C 3,4 °C 92 % 1024,4 hPa 0,0 mm 6,3 km/h (2 Bft) W-SW 242 ° 0 min 0,000 mm 0,0 UV-I 0 W/m² 2,2 °C 11,3 km/h (2 Bft)
11.12.2016 19:04 3,4 °C 3,4 °C 92 % 1024,3 hPa 0,0 mm 9,3 km/h (2 Bft) W-SW 254 ° 0 min 0,000 mm 0,0 UV-I 0 W/m² 2,2 °C 16,1 km/h (3 Bft)
11.12.2016 19:05 3,3 °C 3,4 °C 92 % 1024,3 hPa 0,0 mm 7,8 km/h (2 Bft) W 260 ° 0 min 0,000 mm 0,0 UV-I 0 W/m² 2,1 °C 11,3 km/h (2 Bft)
11.12.2016 19:06 3,4 °C 3,4 °C 92 % 1024,2 hPa 0,0 mm 7,5 km/h (2 Bft) W 259 ° 0 min 0,000 mm 0,0 UV-I 0 W/m² 2,2 °C 11,3 km/h (2 Bft)
11.12.2016 19:07 3,3 °C 3,4 °C 92 % 1024,3 hPa 0,0 mm 5,9 km/h (2 Bft) W 275 ° 0 min 0,000 mm 0,0 UV-I 0 W/m² 2,1 °C 9,7 km/h (2 Bft)
11.12.2016 19:08 3,4 °C 3,4 °C 92 % 1024,3 hPa 0,0 mm 8,9 km/h (2 Bft) W-SW 246 ° 0 min 0,000 mm 0,0 UV-I 0 W/m² 2,2 °C 16,1 km/h (3 Bft)
11.12.2016 19:09 3,4 °C 3,4 °C 92 % 1024,3 hPa 0,0 mm 13,7 km/h (3 Bft) W-SW 248 ° 0 min 0,000 mm 0,0 UV-I 0 W/m² 2,2 °C 16,1 km/h (3 Bft)
11.12.2016 19:10 3,4 °C 3,4 °C 92 % 1024,3 hPa 0,0 mm 10,9 km/h (2 Bft) W-SW 255 ° 0 min 0,000 mm 0,0 UV-I 0 W/m² 2,2 °C 14,5 km/h (3 Bft)
11.12.2016 19:11 3,3 °C 3,4 °C 92 % 1024,2 hPa 0,0 mm 7,3 km/h (2 Bft) SW 225 ° 0 min 0,000 mm 0,0 UV-I 0 W/m² 2,1 °C 11,3 km/h (2 Bft)
11.12.2016 19:12 3,3 °C 3,3 °C 92 % 1024,3 hPa 0,0 mm 7,4 km/h (2 Bft) W-SW 249 ° 0 min 0,000 mm 0,0 UV-I 0 W/m² 2,1 °C 9,7 km/h (2 Bft)
11.12.2016 19:13 3,3 °C 3,4 °C 92 % 1024,2 hPa 0,0 mm 7,3 km/h (2 Bft) W-SW 258 ° 0 min 0,000 mm 0,0 UV-I 0 W/m² 2,1 °C 11,3 km/h (2 Bft)
11.12.2016 19:14 3,4 °C 3,4 °C 92 % 1024,2 hPa 0,0 mm 8,9 km/h (2 Bft) W-SW 238 ° 0 min 0,000 mm 0,0 UV-I 0 W/m² 2,2 °C 14,5 km/h (3 Bft)
11.12.2016 19:15 3,3 °C 3,4 °C 92 % 1024,2 hPa 0,0 mm 10,8 km/h (2 Bft) W 259 ° 0 min 0,000 mm 0,0 UV-I 0 W/m² 2,1 °C 12,9 km/h (3 Bft)
11.12.2016 19:16 3,3 °C 3,4 °C 92 % 1024,2 hPa 0,0 mm 7,2 km/h (2 Bft) W 268 ° 0 min 0,000 mm 0,0 UV-I 0 W/m² 2,1 °C 11,3 km/h (2 Bft)
11.12.2016 19:17 3,3 °C 3,4 °C 92 % 1024,3 hPa 0,0 mm 4,3 km/h (1 Bft) SW 214 ° 0 min 0,000 mm 0,0 UV-I 0 W/m² 2,1 °C 6,4 km/h (2 Bft)
11.12.2016 19:18 3,3 °C 3,3 °C 92 % 1024,2 hPa 0,0 mm 10,0 km/h (2 Bft) W 265 ° 0 min 0,000 mm 0,0 UV-I 0 W/m² 2,1 °C 12,9 km/h (3 Bft)
11.12.2016 19:19 3,3 °C 3,4 °C 92 % 1024,2 hPa 0,0 mm 7,2 km/h (2 Bft) W-SW 247 ° 0 min 0,000 mm 0,0 UV-I 0 W/m² 2,1 °C 11,3 km/h (2 Bft)
11.12.2016 19:20 3,4 °C 3,4 °C 92 % 1024,2 hPa 0,0 mm 6,8 km/h (2 Bft) W-SW 256 ° 0 min 0,000 mm 0,0 UV-I 0 W/m² 2,2 °C 11,3 km/h (2 Bft)
11.12.2016 19:21 3,3 °C 3,4 °C 92 % 1024,2 hPa 0,0 mm 7,6 km/h (2 Bft) W 270 ° 0 min 0,000 mm 0,0 UV-I 0 W/m² 2,1 °C 11,3 km/h (2 Bft)
11.12.2016 19:22 3,3 °C 3,4 °C 92 % 1024,2 hPa 0,0 mm 15,2 km/h (3 Bft) W 261 ° 0 min 0,000 mm 0,0 UV-I 0 W/m² 2,1 °C 20,9 km/h (4 Bft)
11.12.2016 19:23 3,3 °C 3,4 °C 92 % 1024,2 hPa 0,0 mm 5,2 km/h (1 Bft) W-SW 237 ° 0 min 0,000 mm 0,0 UV-I 0 W/m² 2,1 °C 8,0 km/h (2 Bft)
11.12.2016 19:24 3,3 °C 3,4 °C 92 % 1024,2 hPa 0,0 mm 8,2 km/h (2 Bft) W 263 ° 0 min 0,000 mm 0,0 UV-I 0 W/m² 2,1 °C 12,9 km/h (3 Bft)
11.12.2016 19:25 3,3 °C 3,3 °C 92 % 1024,2 hPa 0,0 mm 5,7 km/h (1 Bft) W 261 ° 0 min 0,000 mm 0,0 UV-I 0 W/m² 2,1 °C 9,7 km/h (2 Bft)
11.12.2016 19:26 3,3 °C 3,3 °C 92 % 1024,1 hPa 0,0 mm 8,2 km/h (2 Bft) W-SW 254 ° 0 min 0,000 mm 0,0 UV-I 0 W/m² 2,1 °C 12,9 km/h (3 Bft)
11.12.2016 19:27 3,3 °C 3,3 °C 92 % 1024,0 hPa 0,0 mm 10,8 km/h (2 Bft) W 276 ° 0 min 0,000 mm 0,0 UV-I 0 W/m² 2,1 °C 16,1 km/h (3 Bft)
11.12.2016 19:28 3,3 °C 3,4 °C 92 % 1024,0 hPa 0,0 mm 9,6 km/h (2 Bft) W-SW 240 ° 0 min 0,000 mm 0,0 UV-I 0 W/m² 2,1 °C 16,1 km/h (3 Bft)
11.12.2016 19:29 3,3 °C 3,3 °C 92 % 1024,0 hPa 0,0 mm 5,7 km/h (1 Bft) W 265 ° 0 min 0,000 mm 0,0 UV-I 0 W/m² 2,1 °C 11,3 km/h (2 Bft)
11.12.2016 19:30 3,3 °C 3,4 °C 92 % 1024,0 hPa 0,0 mm 11,0 km/h (2 Bft) W 263 ° 0 min 0,000 mm 0,0 UV-I 0 W/m² 2,1 °C 19,3 km/h (3 Bft)
11.12.2016 19:31 3,3 °C 3,3 °C 92 % 1024,0 hPa 0,0 mm 9,7 km/h (2 Bft) W-SW 252 ° 0 min 0,000 mm 0,0 UV-I 0 W/m² 2,1 °C 16,1 km/h (3 Bft)
11.12.2016 19:32 3,3 °C 3,3 °C 92 % 1024,0 hPa 0,0 mm 7,8 km/h (2 Bft) SW 214 ° 0 min 0,000 mm 0,0 UV-I 0 W/m² 2,1 °C 12,9 km/h (3 Bft)
11.12.2016 19:33 3,3 °C 3,3 °C 92 % 1024,0 hPa 0,0 mm 6,5 km/h (2 Bft) W-SW 254 ° 0 min 0,000 mm 0,0 UV-I 0 W/m² 2,1 °C 16,1 km/h (3 Bft)
11.12.2016 19:34 3,3 °C 3,3 °C 92 % 1024,0 hPa 0,0 mm 11,7 km/h (2 Bft) W-SW 252 ° 0 min 0,000 mm 0,0 UV-I 0 W/m² 2,1 °C 14,5 km/h (3 Bft)
11.12.2016 19:35 3,3 °C 3,3 °C 92 % 1024,0 hPa 0,0 mm 5,1 km/h (1 Bft) W-SW 243 ° 0 min 0,000 mm 0,0 UV-I 0 W/m² 2,1 °C 9,7 km/h (2 Bft)
11.12.2016 19:36 3,3 °C 3,4 °C 92 % 1024,1 hPa 0,0 mm 10,2 km/h (2 Bft) W 267 ° 0 min 0,000 mm 0,0 UV-I 0 W/m² 2,1 °C 17,7 km/h (3 Bft)
11.12.2016 19:37 3,3 °C 3,4 °C 92 % 1024,0 hPa 0,0 mm 12,6 km/h (3 Bft) W 281 ° 0 min 0,000 mm 0,0 UV-I 0 W/m² 2,1 °C 17,7 km/h (3 Bft)
11.12.2016 19:38 3,3 °C 3,4 °C 92 % 1024,0 hPa 0,0 mm 12,9 km/h (3 Bft) W 264 ° 0 min 0,000 mm 0,0 UV-I 0 W/m² 2,1 °C 17,7 km/h (3 Bft)
11.12.2016 19:39 3,4 °C 3,4 °C 92 % 1024,0 hPa 0,0 mm 6,8 km/h (2 Bft) W-NW 285 ° 0 min 0,000 mm 0,0 UV-I 0 W/m² 2,2 °C 12,9 km/h (3 Bft)
11.12.2016 19:40 3,4 °C 3,4 °C 92 % 1024,0 hPa 0,0 mm 5,7 km/h (1 Bft) SW 224 ° 0 min 0,000 mm 0,0 UV-I 0 W/m² 2,2 °C 9,7 km/h (2 Bft)
11.12.2016 19:41 3,4 °C 3,4 °C 92 % 1024,0 hPa 0,0 mm 5,2 km/h (1 Bft) W 274 ° 0 min 0,000 mm 0,0 UV-I 0 W/m² 2,2 °C 11,3 km/h (2 Bft)
11.12.2016 19:42 3,4 °C 3,4 °C 92 % 1024,0 hPa 0,0 mm 5,5 km/h (1 Bft) W-SW 243 ° 0 min 0,000 mm 0,0 UV-I 0 W/m² 2,2 °C 6,4 km/h (2 Bft)
11.12.2016 19:43 3,4 °C 3,4 °C 92 % 1024,0 hPa 0,0 mm 3,8 km/h (1 Bft) W-SW 255 ° 0 min 0,000 mm 0,0 UV-I 0 W/m² 2,2 °C 4,8 km/h (1 Bft)
11.12.2016 19:44 3,3 °C 3,4 °C 92 % 1024,0 hPa 0,0 mm 6,2 km/h (2 Bft) W-SW 254 ° 0 min 0,000 mm 0,0 UV-I 0 W/m² 2,1 °C 12,9 km/h (3 Bft)
11.12.2016 19:45 3,4 °C 3,4 °C 92 % 1023,9 hPa 0,0 mm 9,5 km/h (2 Bft) W 276 ° 0 min 0,000 mm 0,0 UV-I 0 W/m² 2,2 °C 12,9 km/h (3 Bft)
11.12.2016 19:46 3,4 °C 3,4 °C 92 % 1024,0 hPa 0,0 mm 6,1 km/h (2 Bft) W 276 ° 0 min 0,000 mm 0,0 UV-I 0 W/m² 2,2 °C 12,9 km/h (3 Bft)
11.12.2016 19:47 3,3 °C 3,4 °C 92 % 1024,0 hPa 0,0 mm 7,4 km/h (2 Bft) W-SW 257 ° 0 min 0,000 mm 0,0 UV-I 0 W/m² 2,1 °C 12,9 km/h (3 Bft)
11.12.2016 19:48 3,4 °C 3,4 °C 92 % 1023,9 hPa 0,0 mm 5,2 km/h (1 Bft) W 269 ° 0 min 0,000 mm 0,0 UV-I 0 W/m² 2,2 °C 11,3 km/h (2 Bft)
11.12.2016 19:49 3,4 °C 3,4 °C 92 % 1024,0 hPa 0,0 mm 5,2 km/h (1 Bft) W-NW 288 ° 0 min 0,000 mm 0,0 UV-I 0 W/m² 2,2 °C 9,7 km/h (2 Bft)
11.12.2016 19:50 3,4 °C 3,4 °C 92 % 1023,9 hPa 0,0 mm 9,6 km/h (2 Bft) W-SW 246 ° 0 min 0,000 mm 0,0 UV-I 0 W/m² 2,2 °C 14,5 km/h (3 Bft)
11.12.2016 19:51 3,4 °C 3,4 °C 92 % 1024,0 hPa 0,0 mm 6,6 km/h (2 Bft) W-SW 257 ° 0 min 0,000 mm 0,0 UV-I 0 W/m² 2,2 °C 11,3 km/h (2 Bft)
11.12.2016 19:52 3,4 °C 3,4 °C 92 % 1024,0 hPa 0,0 mm 12,2 km/h (2 Bft) W 277 ° 0 min 0,000 mm 0,0 UV-I 0 W/m² 2,2 °C 19,3 km/h (3 Bft)
11.12.2016 19:53 3,4 °C 3,4 °C 92 % 1024,0 hPa 0,0 mm 9,9 km/h (2 Bft) W-NW 300 ° 0 min 0,000 mm 0,0 UV-I 0 W/m² 2,2 °C 14,5 km/h (3 Bft)
11.12.2016 19:54 3,4 °C 3,4 °C 92 % 1024,0 hPa 0,0 mm 8,5 km/h (2 Bft) W 277 ° 0 min 0,000 mm 0,0 UV-I 0 W/m² 2,2 °C 14,5 km/h (3 Bft)
11.12.2016 19:55 3,4 °C 3,4 °C 92 % 1024,0 hPa 0,0 mm 6,2 km/h (2 Bft) W-NW 292 ° 0 min 0,000 mm 0,0 UV-I 0 W/m² 2,2 °C 11,3 km/h (2 Bft)
11.12.2016 19:56 3,4 °C 3,4 °C 92 % 1024,0 hPa 0,0 mm 9,9 km/h (2 Bft) W 281 ° 0 min 0,000 mm 0,0 UV-I 0 W/m² 2,2 °C 17,7 km/h (3 Bft)
11.12.2016 19:57 3,4 °C 3,4 °C 92 % 1024,0 hPa 0,0 mm 10,4 km/h (2 Bft) W 277 ° 0 min 0,000 mm 0,0 UV-I 0 W/m² 2,2 °C 14,5 km/h (3 Bft)
11.12.2016 19:58 3,4 °C 3,4 °C 92 % 1024,0 hPa 0,0 mm 9,0 km/h (2 Bft) W-NW 290 ° 0 min 0,000 mm 0,0 UV-I 0 W/m² 2,2 °C 12,9 km/h (3 Bft)
11.12.2016 19:59 3,4 °C 3,4 °C 92 % 1024,0 hPa 0,0 mm 8,2 km/h (2 Bft) W 261 ° 0 min 0,000 mm 0,0 UV-I 0 W/m² 2,2 °C 14,5 km/h (3 Bft)
11.12.2016 20:00 3,4 °C 3,4 °C 92 % 1024,1 hPa 0,0 mm 10,9 km/h (2 Bft) W-NW 287 ° 0 min 0,000 mm 0,0 UV-I 0 W/m² 2,2 °C 14,5 km/h (3 Bft)
11.12.2016 20:01 3,4 °C 3,4 °C 93 % 1024,1 hPa 0,0 mm 7,3 km/h (2 Bft) W 273 ° 0 min 0,000 mm 0,0 UV-I 0 W/m² 2,4 °C 11,3 km/h (2 Bft)
11.12.2016 20:02 3,4 °C 3,4 °C 92 % 1024,2 hPa 0,0 mm 7,1 km/h (2 Bft) W-NW 283 ° 0 min 0,000 mm 0,0 UV-I 0 W/m² 2,2 °C 11,3 km/h (2 Bft)
11.12.2016 20:03 3,4 °C 3,4 °C 93 % 1024,2 hPa 0,0 mm 6,1 km/h (2 Bft) W-NW 288 ° 0 min 0,000 mm 0,0 UV-I 0 W/m² 2,4 °C 11,3 km/h (2 Bft)
11.12.2016 20:04 3,4 °C 3,4 °C 93 % 1024,2 hPa 0,0 mm 11,4 km/h (2 Bft) W 279 ° 0 min 0,000 mm 0,0 UV-I 0 W/m² 2,4 °C 16,1 km/h (3 Bft)
11.12.2016 20:05 3,4 °C 3,4 °C 93 % 1024,2 hPa 0,0 mm 6,1 km/h (2 Bft) W-NW 301 ° 0 min 0,000 mm 0,0 UV-I 0 W/m² 2,4 °C 9,7 km/h (2 Bft)
11.12.2016 20:06 3,4 °C 3,4 °C 92 % 1024,3 hPa 0,0 mm 7,4 km/h (2 Bft) W-NW 284 ° 0 min 0,000 mm 0,0 UV-I 0 W/m² 2,2 °C 11,3 km/h (2 Bft)
11.12.2016 20:07 3,4 °C 3,4 °C 92 % 1024,3 hPa 0,0 mm 6,8 km/h (2 Bft) W 269 ° 0 min 0,000 mm 0,0 UV-I 0 W/m² 2,2 °C 9,7 km/h (2 Bft)
11.12.2016 20:08 3,4 °C 3,4 °C 92 % 1024,2 hPa 0,0 mm 8,4 km/h (2 Bft) W-NW 296 ° 0 min 0,000 mm 0,0 UV-I 0 W/m² 2,2 °C 11,3 km/h (2 Bft)
11.12.2016 20:09 3,4 °C 3,4 °C 92 % 1024,3 hPa 0,0 mm 7,6 km/h (2 Bft) W-SW 254 ° 0 min 0,000 mm 0,0 UV-I 0 W/m² 2,2 °C 11,3 km/h (2 Bft)
11.12.2016 20:10 3,4 °C 3,4 °C 92 % 1024,2 hPa 0,0 mm 8,9 km/h (2 Bft) W 281 ° 0 min 0,000 mm 0,0 UV-I 0 W/m² 2,2 °C 17,7 km/h (3 Bft)
11.12.2016 20:11 3,4 °C 3,4 °C 92 % 1024,2 hPa 0,0 mm 6,6 km/h (2 Bft) N-NW 340 ° 0 min 0,000 mm 0,0 UV-I 0 W/m² 2,2 °C 11,3 km/h (2 Bft)
11.12.2016 20:12 3,3 °C 3,4 °C 92 % 1024,2 hPa 0,0 mm 5,0 km/h (1 Bft) W-SW 243 ° 0 min 0,000 mm 0,0 UV-I 0 W/m² 2,1 °C 6,4 km/h (2 Bft)
11.12.2016 20:13 3,3 °C 3,4 °C 92 % 1024,3 hPa 0,0 mm 8,6 km/h (2 Bft) W-SW 248 ° 0 min 0,000 mm 0,0 UV-I 0 W/m² 2,1 °C 11,3 km/h (2 Bft)
11.12.2016 20:14 3,3 °C 3,4 °C 92 % 1024,3 hPa 0,0 mm 9,5 km/h (2 Bft) W 275 ° 0 min 0,000 mm 0,0 UV-I 0 W/m² 2,1 °C 14,5 km/h (3 Bft)
11.12.2016 20:15 3,3 °C 3,4 °C 92 % 1024,3 hPa 0,0 mm 10,0 km/h (2 Bft) W-NW 289 ° 0 min 0,000 mm 0,0 UV-I 0 W/m² 2,1 °C 14,5 km/h (3 Bft)
11.12.2016 20:16 3,3 °C 3,3 °C 92 % 1024,2 hPa 0,0 mm 8,0 km/h (2 Bft) W-NW 286 ° 0 min 0,000 mm 0,0 UV-I 0 W/m² 2,1 °C 12,9 km/h (3 Bft)
11.12.2016 20:17 3,3 °C 3,3 °C 92 % 1024,2 hPa 0,0 mm 9,2 km/h (2 Bft) W 262 ° 0 min 0,000 mm 0,0 UV-I 0 W/m² 2,1 °C 14,5 km/h (3 Bft)
11.12.2016 20:18 3,3 °C 3,3 °C 92 % 1024,2 hPa 0,0 mm 12,6 km/h (3 Bft) W 272 ° 0 min 0,000 mm 0,0 UV-I 0 W/m² 2,1 °C 16,1 km/h (3 Bft)
11.12.2016 20:19 3,3 °C 3,3 °C 92 % 1024,2 hPa 0,0 mm 12,5 km/h (3 Bft) W 271 ° 0 min 0,000 mm 0,0 UV-I 0 W/m² 2,1 °C 20,9 km/h (4 Bft)
11.12.2016 20:20 3,3 °C 3,3 °C 92 % 1024,2 hPa 0,0 mm 15,6 km/h (3 Bft) W 275 ° 0 min 0,000 mm 0,0 UV-I 0 W/m² 2,1 °C 20,9 km/h (4 Bft)
11.12.2016 20:21 3,3 °C 3,3 °C 92 % 1024,2 hPa 0,0 mm 12,7 km/h (3 Bft) W-SW 243 ° 0 min 0,000 mm 0,0 UV-I 0 W/m² 2,1 °C 16,1 km/h (3 Bft)
11.12.2016 20:22 3,3 °C 3,3 °C 92 % 1024,2 hPa 0,0 mm 9,6 km/h (2 Bft) W-NW 292 ° 0 min 0,000 mm 0,0 UV-I 0 W/m² 2,1 °C 14,5 km/h (3 Bft)
11.12.2016 20:23 3,3 °C 3,3 °C 92 % 1024,2 hPa 0,0 mm 7,8 km/h (2 Bft) W 265 ° 0 min 0,000 mm 0,0 UV-I 0 W/m² 2,1 °C 12,9 km/h (3 Bft)
11.12.2016 20:24 3,3 °C 3,3 °C 92 % 1024,1 hPa 0,0 mm 6,7 km/h (2 Bft) W 275 ° 0 min 0,000 mm 0,0 UV-I 0 W/m² 2,1 °C 12,9 km/h (3 Bft)
11.12.2016 20:25 3,3 °C 3,3 °C 92 % 1024,1 hPa 0,0 mm 4,8 km/h (1 Bft) W 275 ° 0 min 0,000 mm 0,0 UV-I 0 W/m² 2,1 °C 6,4 km/h (2 Bft)
11.12.2016 20:26 3,3 °C 3,3 °C 92 % 1024,2 hPa 0,0 mm 10,3 km/h (2 Bft) W 267 ° 0 min 0,000 mm 0,0 UV-I 0 W/m² 2,1 °C 17,7 km/h (3 Bft)
11.12.2016 20:27 3,3 °C 3,3 °C 92 % 1024,1 hPa 0,0 mm 8,5 km/h (2 Bft) W-NW 299 ° 0 min 0,000 mm 0,0 UV-I 0 W/m² 2,1 °C 14,5 km/h (3 Bft)
11.12.2016 20:28 3,3 °C 3,3 °C 92 % 1024,1 hPa 0,0 mm 7,1 km/h (2 Bft) W 265 ° 0 min 0,000 mm 0,0 UV-I 0 W/m² 2,1 °C 9,7 km/h (2 Bft)
11.12.2016 20:29 3,3 °C 3,3 °C 92 % 1024,2 hPa 0,0 mm 8,2 km/h (2 Bft) NW 311 ° 0 min 0,000 mm 0,0 UV-I 0 W/m² 2,1 °C 11,3 km/h (2 Bft)
11.12.2016 20:30 3,2 °C 3,3 °C 92 % 1024,1 hPa 0,0 mm 7,4 km/h (2 Bft) W-SW 252 ° 0 min 0,000 mm 0,0 UV-I 0 W/m² 2,0 °C 12,9 km/h (3 Bft)
11.12.2016 20:31 3,3 °C 3,3 °C 92 % 1024,1 hPa 0,0 mm 9,6 km/h (2 Bft) W 276 ° 0 min 0,000 mm 0,0 UV-I 0 W/m² 2,1 °C 12,9 km/h (3 Bft)
11.12.2016 20:32 3,2 °C 3,3 °C 92 % 1024,0 hPa 0,0 mm 5,4 km/h (1 Bft) W-NW 289 ° 0 min 0,000 mm 0,0 UV-I 0 W/m² 2,0 °C 9,7 km/h (2 Bft)
11.12.2016 20:33 3,2 °C 3,2 °C 92 % 1024,1 hPa 0,0 mm 9,1 km/h (2 Bft) W 268 ° 0 min 0,000 mm 0,0 UV-I 0 W/m² 2,0 °C 14,5 km/h (3 Bft)
11.12.2016 20:34 3,2 °C 3,2 °C 92 % 1024,1 hPa 0,0 mm 5,0 km/h (1 Bft) W-SW 239 ° 0 min 0,000 mm 0,0 UV-I 0 W/m² 2,0 °C 6,4 km/h (2 Bft)
11.12.2016 20:35 3,2 °C 3,3 °C 92 % 1024,1 hPa 0,0 mm 5,1 km/h (1 Bft) W 265 ° 0 min 0,000 mm 0,0 UV-I 0 W/m² 2,0 °C 9,7 km/h (2 Bft)
11.12.2016 20:36 3,2 °C 3,2 °C 92 % 1024,0 hPa 0,0 mm 6,0 km/h (2 Bft) W 261 ° 0 min 0,000 mm 0,0 UV-I 0 W/m² 2,0 °C 11,3 km/h (2 Bft)
11.12.2016 20:37 3,2 °C 3,2 °C 92 % 1024,1 hPa 0,0 mm 7,4 km/h (2 Bft) W-NW 288 ° 0 min 0,000 mm 0,0 UV-I 0 W/m² 2,0 °C 12,9 km/h (3 Bft)
11.12.2016 20:38 3,2 °C 3,2 °C 92 % 1024,2 hPa 0,0 mm 5,1 km/h (1 Bft) W-NW 294 ° 0 min 0,000 mm 0,0 UV-I 0 W/m² 2,0 °C 6,4 km/h (2 Bft)
11.12.2016 20:39 3,2 °C 3,2 °C 92 % 1024,2 hPa 0,0 mm 5,9 km/h (2 Bft) W 278 ° 0 min 0,000 mm 0,0 UV-I 0 W/m² 2,0 °C 12,9 km/h (3 Bft)
11.12.2016 20:40 3,2 °C 3,2 °C 92 % 1024,2 hPa 0,0 mm 4,3 km/h (1 Bft) W-SW 256 ° 0 min 0,000 mm 0,0 UV-I 0 W/m² 2,0 °C 6,4 km/h (2 Bft)
11.12.2016 20:41 3,2 °C 3,2 °C 92 % 1024,2 hPa 0,0 mm 6,0 km/h (2 Bft) W 273 ° 0 min 0,000 mm 0,0 UV-I 0 W/m² 2,0 °C 9,7 km/h (2 Bft)
11.12.2016 20:42 3,2 °C 3,2 °C 92 % 1024,2 hPa 0,0 mm 6,9 km/h (2 Bft) N-NW 328 ° 0 min 0,000 mm 0,0 UV-I 0 W/m² 2,0 °C 17,7 km/h (3 Bft)
11.12.2016 20:43 3,2 °C 3,2 °C 92 % 1024,1 hPa 0,0 mm 9,7 km/h (2 Bft) W 274 ° 0 min 0,000 mm 0,0 UV-I 0 W/m² 2,0 °C 19,3 km/h (3 Bft)
11.12.2016 20:44 3,2 °C 3,2 °C 92 % 1024,2 hPa 0,0 mm 8,8 km/h (2 Bft) W 278 ° 0 min 0,000 mm 0,0 UV-I 0 W/m² 2,0 °C 12,9 km/h (3 Bft)
11.12.2016 20:45 3,2 °C 3,2 °C 92 % 1024,1 hPa 0,0 mm 8,6 km/h (2 Bft) W 267 ° 0 min 0,000 mm 0,0 UV-I 0 W/m² 2,0 °C 11,3 km/h (2 Bft)
11.12.2016 20:46 3,1 °C 3,2 °C 92 % 1024,1 hPa 0,0 mm 7,2 km/h (2 Bft) W 278 ° 0 min 0,000 mm 0,0 UV-I 0 W/m² 1,9 °C 11,3 km/h (2 Bft)
11.12.2016 20:47 3,1 °C 3,2 °C 92 % 1024,2 hPa 0,0 mm 8,6 km/h (2 Bft) W 260 ° 0 min 0,000 mm 0,0 UV-I 0 W/m² 1,9 °C 12,9 km/h (3 Bft)
11.12.2016 20:48 3,1 °C 3,2 °C 92 % 1024,2 hPa 0,0 mm 3,9 km/h (1 Bft) W-NW 300 ° 0 min 0,000 mm 0,0 UV-I 0 W/m² 1,9 °C 6,4 km/h (2 Bft)
11.12.2016 20:49 3,1 °C 3,2 °C 92 % 1024,1 hPa 0,0 mm 3,2 km/h (1 Bft) W-SW 251 ° 0 min 0,000 mm 0,0 UV-I 0 W/m² 1,9 °C 4,8 km/h (1 Bft)
11.12.2016 20:50 3,1 °C 3,2 °C 91 % 1024,1 hPa 0,0 mm 5,0 km/h (1 Bft) W 279 ° 0 min 0,000 mm 0,0 UV-I 0 W/m² 1,8 °C 6,4 km/h (2 Bft)
11.12.2016 20:51 3,1 °C 3,2 °C 92 % 1024,1 hPa 0,0 mm 7,6 km/h (2 Bft) W-NW 302 ° 0 min 0,000 mm 0,0 UV-I 0 W/m² 1,9 °C 11,3 km/h (2 Bft)
11.12.2016 20:52 3,1 °C 3,1 °C 92 % 1024,1 hPa 0,0 mm 4,3 km/h (1 Bft) W 272 ° 0 min 0,000 mm 0,0 UV-I 0 W/m² 1,9 °C 6,4 km/h (2 Bft)
11.12.2016 20:53 3,1 °C 3,1 °C 92 % 1024,2 hPa 0,0 mm 6,9 km/h (2 Bft) W-SW 252 ° 0 min 0,000 mm 0,0 UV-I 0 W/m² 1,9 °C 11,3 km/h (2 Bft)
11.12.2016 20:54 3,1 °C 3,1 °C 91 % 1024,1 hPa 0,0 mm 7,7 km/h (2 Bft) W 269 ° 0 min 0,000 mm 0,0 UV-I 0 W/m² 1,8 °C 9,7 km/h (2 Bft)
11.12.2016 20:55 3,1 °C 3,1 °C 91 % 1024,1 hPa 0,0 mm 7,7 km/h (2 Bft) W-SW 251 ° 0 min 0,000 mm 0,0 UV-I 0 W/m² 1,8 °C 12,9 km/h (3 Bft)
11.12.2016 20:56 3,1 °C 3,1 °C 91 % 1024,1 hPa 0,0 mm 5,4 km/h (1 Bft) W 265 ° 0 min 0,000 mm 0,0 UV-I 0 W/m² 1,8 °C 9,7 km/h (2 Bft)
11.12.2016 20:57 3,1 °C 3,1 °C 91 % 1024,1 hPa 0,0 mm 6,6 km/h (2 Bft) W-NW 286 ° 0 min 0,000 mm 0,0 UV-I 0 W/m² 1,8 °C 11,3 km/h (2 Bft)
11.12.2016 20:58 3,1 °C 3,1 °C 91 % 1024,1 hPa 0,0 mm 5,8 km/h (2 Bft) W-NW 302 ° 0 min 0,000 mm 0,0 UV-I 0 W/m² 1,8 °C 9,7 km/h (2 Bft)
11.12.2016 20:59 3,1 °C 3,1 °C 91 % 1024,1 hPa 0,0 mm 4,1 km/h (1 Bft) W 269 ° 0 min 0,000 mm 0,0 UV-I 0 W/m² 1,8 °C 6,4 km/h (2 Bft)
11.12.2016 21:00 3,1 °C 3,1 °C 91 % 1024,2 hPa 0,0 mm 3,4 km/h (1 Bft) W 267 ° 0 min 0,000 mm 0,0 UV-I 0 W/m² 1,8 °C 6,4 km/h (2 Bft)
11.12.2016 21:01 3,1 °C 3,1 °C 91 % 1024,1 hPa 0,0 mm 9,0 km/h (2 Bft) W-SW 250 ° 0 min 0,000 mm 0,0 UV-I 0 W/m² 1,8 °C 17,7 km/h (3 Bft)
11.12.2016 21:02 3,0 °C 3,1 °C 91 % 1024,2 hPa 0,0 mm 10,4 km/h (2 Bft) W-NW 292 ° 0 min 0,000 mm 0,0 UV-I 0 W/m² 1,7 °C 12,9 km/h (3 Bft)
11.12.2016 21:03 3,1 °C 3,1 °C 91 % 1024,2 hPa 0,0 mm 6,6 km/h (2 Bft) W-NW 290 ° 0 min 0,000 mm 0,0 UV-I 0 W/m² 1,8 °C 11,3 km/h (2 Bft)
11.12.2016 21:04 3,0 °C 3,1 °C 91 % 1024,2 hPa 0,0 mm 9,3 km/h (2 Bft) W-SW 246 ° 0 min 0,000 mm 0,0 UV-I 0 W/m² 1,7 °C 12,9 km/h (3 Bft)
11.12.2016 21:05 3,0 °C 3,1 °C 91 % 1024,2 hPa 0,0 mm 13,9 km/h (3 Bft) W-SW 257 ° 0 min 0,000 mm 0,0 UV-I 0 W/m² 1,7 °C 17,7 km/h (3 Bft)
11.12.2016 21:06 3,0 °C 3,0 °C 91 % 1024,2 hPa 0,0 mm 8,0 km/h (2 Bft) W 264 ° 0 min 0,000 mm 0,0 UV-I 0 W/m² 1,7 °C 14,5 km/h (3 Bft)
11.12.2016 21:07 3,0 °C 3,1 °C 91 % 1024,2 hPa 0,0 mm 4,3 km/h (1 Bft) W 263 ° 0 min 0,000 mm 0,0 UV-I 0 W/m² 1,7 °C 9,7 km/h (2 Bft)
11.12.2016 21:08 3,0 °C 3,0 °C 91 % 1024,2 hPa 0,0 mm 5,7 km/h (1 Bft) W-SW 254 ° 0 min 0,000 mm 0,0 UV-I 0 W/m² 1,7 °C 8,0 km/h (2 Bft)
11.12.2016 21:09 3,0 °C 3,0 °C 91 % 1024,2 hPa 0,0 mm 12,4 km/h (3 Bft) W-NW 283 ° 0 min 0,000 mm 0,0 UV-I 0 W/m² 1,7 °C 16,1 km/h (3 Bft)
11.12.2016 21:10 3,0 °C 3,0 °C 91 % 1024,2 hPa 0,0 mm 9,6 km/h (2 Bft) W-SW 238 ° 0 min 0,000 mm 0,0 UV-I 0 W/m² 1,7 °C 14,5 km/h (3 Bft)
11.12.2016 21:11 3,0 °C 3,0 °C 91 % 1024,1 hPa 0,0 mm 6,5 km/h (2 Bft) W-SW 256 ° 0 min 0,000 mm 0,0 UV-I 0 W/m² 1,7 °C 8,0 km/h (2 Bft)
11.12.2016 21:12 3,0 °C 3,0 °C 91 % 1024,2 hPa 0,0 mm 6,0 km/h (2 Bft) W-NW 299 ° 0 min 0,000 mm 0,0 UV-I 0 W/m² 1,7 °C 9,7 km/h (2 Bft)
11.12.2016 21:13 3,0 °C 3,0 °C 91 % 1024,2 hPa 0,0 mm 4,7 km/h (1 Bft) W-SW 239 ° 0 min 0,000 mm 0,0 UV-I 0 W/m² 1,7 °C 9,7 km/h (2 Bft)
11.12.2016 21:14 2,9 °C 3,0 °C 91 % 1024,2 hPa 0,0 mm 6,0 km/h (2 Bft) W-SW 240 ° 0 min 0,000 mm 0,0 UV-I 0 W/m² 1,6 °C 11,3 km/h (2 Bft)
11.12.2016 21:15 2,9 °C 3,0 °C 91 % 1024,1 hPa 0,0 mm 7,6 km/h (2 Bft) W 277 ° 0 min 0,000 mm 0,0 UV-I 0 W/m² 1,6 °C 11,3 km/h (2 Bft)
11.12.2016 21:16 3,0 °C 3,0 °C 91 % 1024,1 hPa 0,0 mm 4,6 km/h (1 Bft) W 259 ° 0 min 0,000 mm 0,0 UV-I 0 W/m² 1,7 °C 6,4 km/h (2 Bft)
11.12.2016 21:17 2,9 °C 3,0 °C 91 % 1024,2 hPa 0,0 mm 6,0 km/h (2 Bft) W 263 ° 0 min 0,000 mm 0,0 UV-I 0 W/m² 1,6 °C 9,7 km/h (2 Bft)
11.12.2016 21:18 2,9 °C 2,9 °C 91 % 1024,2 hPa 0,0 mm 5,6 km/h (1 Bft) W-SW 238 ° 0 min 0,000 mm 0,0 UV-I 0 W/m² 1,6 °C 8,0 km/h (2 Bft)
11.12.2016 21:19 2,9 °C 3,0 °C 91 % 1024,2 hPa 0,0 mm 9,1 km/h (2 Bft) W-SW 249 ° 0 min 0,000 mm 0,0 UV-I 0 W/m² 1,6 °C 14,5 km/h (3 Bft)
11.12.2016 21:20 2,9 °C 2,9 °C 91 % 1024,2 hPa 0,0 mm 9,6 km/h (2 Bft) W 272 ° 0 min 0,000 mm 0,0 UV-I 0 W/m² 1,6 °C 12,9 km/h (3 Bft)
11.12.2016 21:21 2,9 °C 2,9 °C 91 % 1024,2 hPa 0,0 mm 6,0 km/h (2 Bft) W-SW 255 ° 0 min 0,000 mm 0,0 UV-I 0 W/m² 1,6 °C 8,0 km/h (2 Bft)
11.12.2016 21:22 2,9 °C 2,9 °C 91 % 1024,2 hPa 0,0 mm 3,8 km/h (1 Bft) SW 227 ° 0 min 0,000 mm 0,0 UV-I 0 W/m² 1,6 °C 6,4 km/h (2 Bft)
11.12.2016 21:23 2,9 °C 2,9 °C 91 % 1024,2 hPa 0,0 mm 5,8 km/h (2 Bft) W 265 ° 0 min 0,000 mm 0,0 UV-I 0 W/m² 1,6 °C 9,7 km/h (2 Bft)
11.12.2016 21:24 2,9 °C 2,9 °C 91 % 1024,2 hPa 0,0 mm 5,4 km/h (1 Bft) W 275 ° 0 min 0,000 mm 0,0 UV-I 0 W/m² 1,6 °C 6,4 km/h (2 Bft)
11.12.2016 21:25 2,9 °C 2,9 °C 91 % 1024,3 hPa 0,0 mm 3,8 km/h (1 Bft) W 269 ° 0 min 0,000 mm 0,0 UV-I 0 W/m² 1,6 °C 4,8 km/h (1 Bft)
11.12.2016 21:26 2,9 °C 2,9 °C 91 % 1024,3 hPa 0,0 mm 1,5 km/h (1 Bft) W 269 ° 0 min 0,000 mm 0,0 UV-I 0 W/m² 1,6 °C 3,2 km/h (1 Bft)
11.12.2016 21:27 2,9 °C 2,9 °C 91 % 1024,4 hPa 0,2 mm 5,5 km/h (1 Bft) W-SW 242 ° 0 min 0,000 mm 0,0 UV-I 0 W/m² 1,6 °C 9,7 km/h (2 Bft)
11.12.2016 21:28 2,9 °C 2,9 °C 91 % 1024,3 hPa 0,0 mm 5,8 km/h (2 Bft) W-SW 253 ° 0 min 0,000 mm 0,0 UV-I 0 W/m² 1,6 °C 11,3 km/h (2 Bft)
11.12.2016 21:29 2,9 °C 2,9 °C 91 % 1024,3 hPa 0,0 mm 6,9 km/h (2 Bft) SW 227 ° 0 min 0,000 mm 0,0 UV-I 0 W/m² 1,6 °C 11,3 km/h (2 Bft)
11.12.2016 21:30 2,9 °C 2,9 °C 91 % 1024,3 hPa 0,0 mm 3,4 km/h (1 Bft) W-SW 256 ° 0 min 0,000 mm 0,0 UV-I 0 W/m² 1,6 °C 6,4 km/h (2 Bft)
11.12.2016 21:31 2,9 °C 2,9 °C 91 % 1024,3 hPa 0,0 mm 4,6 km/h (1 Bft) W-SW 258 ° 0 min 0,000 mm 0,0 UV-I 0 W/m² 1,6 °C 6,4 km/h (2 Bft)
11.12.2016 21:32 2,9 °C 2,9 °C 91 % 1024,2 hPa 0,0 mm 3,4 km/h (1 Bft) SW 226 ° 0 min 0,000 mm 0,0 UV-I 0 W/m² 1,6 °C 4,8 km/h (1 Bft)
11.12.2016 21:33 2,8 °C 2,9 °C 91 % 1024,2 hPa 0,0 mm 2,9 km/h (1 Bft) S-SW 213 ° 0 min 0,000 mm 0,0 UV-I 0 W/m² 1,5 °C 3,2 km/h (1 Bft)
11.12.2016 21:34 2,8 °C 2,9 °C 91 % 1024,1 hPa 0,0 mm 3,6 km/h (1 Bft) S-SW 205 ° 0 min 0,000 mm 0,0 UV-I 0 W/m² 1,5 °C 4,8 km/h (1 Bft)
11.12.2016 21:35 2,8 °C 2,9 °C 91 % 1024,1 hPa 0,0 mm 4,4 km/h (1 Bft) SW 221 ° 0 min 0,000 mm 0,0 UV-I 0 W/m² 1,5 °C 6,4 km/h (2 Bft)
11.12.2016 21:36 2,8 °C 2,9 °C 91 % 1024,1 hPa 0,0 mm 5,0 km/h (1 Bft) W-SW 254 ° 0 min 0,000 mm 0,0 UV-I 0 W/m² 1,5 °C 8,0 km/h (2 Bft)
11.12.2016 21:37 2,9 °C 2,9 °C 91 % 1024,2 hPa 0,0 mm 4,7 km/h (1 Bft) SW 232 ° 0 min 0,000 mm 0,0 UV-I 0 W/m² 1,6 °C 9,7 km/h (2 Bft)
11.12.2016 21:38 2,8 °C 2,9 °C 91 % 1024,1 hPa 0,0 mm 7,3 km/h (2 Bft) W 281 ° 0 min 0,000 mm 0,0 UV-I 0 W/m² 1,5 °C 12,9 km/h (3 Bft)
11.12.2016 21:39 2,8 °C 2,9 °C 91 % 1024,1 hPa 0,0 mm 5,8 km/h (2 Bft) S 190 ° 0 min 0,000 mm 0,0 UV-I 0 W/m² 1,5 °C 9,7 km/h (2 Bft)
11.12.2016 21:40 2,8 °C 2,8 °C 91 % 1024,1 hPa 0,0 mm 5,5 km/h (1 Bft) W-SW 242 ° 0 min 0,000 mm 0,0 UV-I 0 W/m² 1,5 °C 8,0 km/h (2 Bft)
11.12.2016 21:41 2,8 °C 2,8 °C 91 % 1024,1 hPa 0,0 mm 10,7 km/h (2 Bft) W 263 ° 0 min 0,000 mm 0,0 UV-I 0 W/m² 1,5 °C 14,5 km/h (3 Bft)
11.12.2016 21:42 2,8 °C 2,8 °C 91 % 1024,0 hPa 0,0 mm 10,3 km/h (2 Bft) W-SW 240 ° 0 min 0,000 mm 0,0 UV-I 0 W/m² 1,5 °C 16,1 km/h (3 Bft)
11.12.2016 21:43 2,8 °C 2,8 °C 91 % 1024,0 hPa 0,0 mm 7,5 km/h (2 Bft) W-SW 251 ° 0 min 0,000 mm 0,0 UV-I 0 W/m² 1,5 °C 11,3 km/h (2 Bft)
11.12.2016 21:44 2,8 °C 2,8 °C 91 % 1024,1 hPa 0,0 mm 5,4 km/h (1 Bft) W-SW 249 ° 0 min 0,000 mm 0,0 UV-I 0 W/m² 1,5 °C 6,4 km/h (2 Bft)
11.12.2016 21:45 2,8 °C 2,8 °C 91 % 1024,1 hPa 0,0 mm 3,2 km/h (1 Bft) W-SW 250 ° 0 min 0,000 mm 0,0 UV-I 0 W/m² 1,5 °C 4,8 km/h (1 Bft)
11.12.2016 21:46 2,8 °C 2,8 °C 91 % 1024,1 hPa 0,0 mm 3,3 km/h (1 Bft) SW 222 ° 0 min 0,000 mm 0,0 UV-I 0 W/m² 1,5 °C 4,8 km/h (1 Bft)
11.12.2016 21:47 2,8 °C 2,8 °C 91 % 1024,2 hPa 0,0 mm 3,0 km/h (1 Bft) S 184 ° 0 min 0,000 mm 0,0 UV-I 0 W/m² 1,5 °C 4,8 km/h (1 Bft)
11.12.2016 21:48 2,8 °C 2,8 °C 91 % 1024,3 hPa 0,0 mm 5,0 km/h (1 Bft) SW 229 ° 0 min 0,000 mm 0,0 UV-I 0 W/m² 1,5 °C 8,0 km/h (2 Bft)
11.12.2016 21:49 2,8 °C 2,8 °C 91 % 1024,3 hPa 0,0 mm 4,4 km/h (1 Bft) W-SW 244 ° 0 min 0,000 mm 0,0 UV-I 0 W/m² 1,5 °C 6,4 km/h (2 Bft)
11.12.2016 21:50 2,8 °C 2,8 °C 91 % 1024,3 hPa 0,0 mm 8,6 km/h (2 Bft) W 265 ° 0 min 0,000 mm 0,0 UV-I 0 W/m² 1,5 °C 12,9 km/h (3 Bft)
11.12.2016 21:51 2,8 °C 2,8 °C 91 % 1024,3 hPa 0,0 mm 6,0 km/h (2 Bft) W 260 ° 0 min 0,000 mm 0,0 UV-I 0 W/m² 1,5 °C 11,3 km/h (2 Bft)
11.12.2016 21:52 2,8 °C 2,8 °C 91 % 1024,4 hPa 0,0 mm 3,1 km/h (1 Bft) W 260 ° 0 min 0,000 mm 0,0 UV-I 0 W/m² 1,5 °C 4,8 km/h (1 Bft)
11.12.2016 21:53 2,8 °C 2,8 °C 91 % 1024,4 hPa 0,0 mm 2,7 km/h (1 Bft) W 260 ° 0 min 0,000 mm 0,0 UV-I 0 W/m² 1,5 °C 3,2 km/h (1 Bft)
11.12.2016 21:54 2,7 °C 2,8 °C 91 % 1024,3 hPa 0,0 mm 4,7 km/h (1 Bft) S-SW 198 ° 0 min 0,000 mm 0,0 UV-I 0 W/m² 1,4 °C 6,4 km/h (2 Bft)
11.12.2016 21:55 2,8 °C 2,8 °C 91 % 1024,5 hPa 0,0 mm 3,2 km/h (1 Bft) S-SW 198 ° 0 min 0,000 mm 0,0 UV-I 0 W/m² 1,5 °C 4,8 km/h (1 Bft)
11.12.2016 21:56 2,8 °C 2,8 °C 91 % 1024,5 hPa 0,0 mm 2,0 km/h (1 Bft) S 189 ° 0 min 0,000 mm 0,0 UV-I 0 W/m² 1,5 °C 4,8 km/h (1 Bft)
11.12.2016 21:57 2,8 °C 2,8 °C 90 % 1024,5 hPa 0,0 mm 3,2 km/h (1 Bft) S 189 ° 0 min 0,000 mm 0,0 UV-I 0 W/m² 1,3 °C 4,8 km/h (1 Bft)
11.12.2016 21:58 2,7 °C 2,8 °C 91 % 1024,6 hPa 0,0 mm 5,0 km/h (1 Bft) SW 221 ° 0 min 0,000 mm 0,0 UV-I 0 W/m² 1,4 °C 8,0 km/h (2 Bft)
11.12.2016 21:59 2,7 °C 2,7 °C 91 % 1024,6 hPa 0,0 mm 4,3 km/h (1 Bft) W-SW 248 ° 0 min 0,000 mm 0,0 UV-I 0 W/m² 1,4 °C 8,0 km/h (2 Bft)
11.12.2016 22:00 2,7 °C 2,7 °C 91 % 1024,6 hPa 0,0 mm 4,3 km/h (1 Bft) W-SW 257 ° 0 min 0,000 mm 0,0 UV-I 0 W/m² 1,4 °C 6,4 km/h (2 Bft)
11.12.2016 22:01 2,7 °C 2,7 °C 91 % 1024,6 hPa 0,0 mm 4,0 km/h (1 Bft) S-SW 194 ° 0 min 0,000 mm 0,0 UV-I 0 W/m² 1,4 °C 8,0 km/h (2 Bft)
11.12.2016 22:02 2,7 °C 2,7 °C 91 % 1024,6 hPa 0,0 mm 4,4 km/h (1 Bft) W-SW 244 ° 0 min 0,000 mm 0,0 UV-I 0 W/m² 1,4 °C 6,4 km/h (2 Bft)
11.12.2016 22:03 2,7 °C 2,7 °C 91 % 1024,5 hPa 0,0 mm 2,5 km/h (1 Bft) S-SW 205 ° 0 min 0,000 mm 0,0 UV-I 0 W/m² 1,4 °C 4,8 km/h (1 Bft)
11.12.2016 22:04 2,7 °C 2,7 °C 91 % 1024,6 hPa 0,0 mm 4,4 km/h (1 Bft) S-SW 199 ° 0 min 0,000 mm 0,0 UV-I 0 W/m² 1,4 °C 6,4 km/h (2 Bft)
11.12.2016 22:05 2,7 °C 2,7 °C 91 % 1024,6 hPa 0,0 mm 2,7 km/h (1 Bft) S-SW 195 ° 0 min 0,000 mm 0,0 UV-I 0 W/m² 1,4 °C 4,8 km/h (1 Bft)
11.12.2016 22:06 2,7 °C 2,7 °C 91 % 1024,5 hPa 0,0 mm 3,8 km/h (1 Bft) SW 233 ° 0 min 0,000 mm 0,0 UV-I 0 W/m² 1,4 °C 4,8 km/h (1 Bft)
11.12.2016 22:07 2,7 °C 2,7 °C 91 % 1024,5 hPa 0,0 mm 5,1 km/h (1 Bft) W-SW 246 ° 0 min 0,000 mm 0,0 UV-I 0 W/m² 1,4 °C 8,0 km/h (2 Bft)
11.12.2016 22:08 2,7 °C 2,7 °C 90 % 1024,4 hPa 0,0 mm 5,8 km/h (2 Bft) W-SW 253 ° 0 min 0,000 mm 0,0 UV-I 0 W/m² 1,2 °C 11,3 km/h (2 Bft)
11.12.2016 22:09 2,7 °C 2,7 °C 91 % 1024,5 hPa 0,0 mm 9,5 km/h (2 Bft) W-SW 242 ° 0 min 0,000 mm 0,0 UV-I 0 W/m² 1,4 °C 12,9 km/h (3 Bft)
11.12.2016 22:10 2,7 °C 2,7 °C 91 % 1024,5 hPa 0,0 mm 3,5 km/h (1 Bft) S-SW 197 ° 0 min 0,000 mm 0,0 UV-I 0 W/m² 1,4 °C 4,8 km/h (1 Bft)
11.12.2016 22:11 2,7 °C 2,7 °C 91 % 1024,5 hPa 0,0 mm 3,2 km/h (1 Bft) SW 236 ° 0 min 0,000 mm 0,0 UV-I 0 W/m² 1,4 °C 6,4 km/h (2 Bft)
11.12.2016 22:12 2,6 °C 2,7 °C 91 % 1024,6 hPa 0,0 mm 5,1 km/h (1 Bft) S 191 ° 0 min 0,000 mm 0,0 UV-I 0 W/m² 1,3 °C 8,0 km/h (2 Bft)
11.12.2016 22:13 2,6 °C 2,7 °C 90 % 1024,4 hPa 0,0 mm 7,6 km/h (2 Bft) S-SW 192 ° 0 min 0,000 mm 0,0 UV-I 0 W/m² 1,1 °C 11,3 km/h (2 Bft)
11.12.2016 22:14 2,6 °C 2,6 °C 90 % 1024,4 hPa 0,0 mm 5,8 km/h (2 Bft) W-SW 244 ° 0 min 0,000 mm 0,0 UV-I 0 W/m² 1,1 °C 8,0 km/h (2 Bft)
11.12.2016 22:15 2,6 °C 2,7 °C 90 % 1024,4 hPa 0,0 mm 7,8 km/h (2 Bft) SW 228 ° 0 min 0,000 mm 0,0 UV-I 0 W/m² 1,1 °C 11,3 km/h (2 Bft)
11.12.2016 22:16 2,6 °C 2,6 °C 90 % 1024,4 hPa 0,0 mm 10,2 km/h (2 Bft) W-SW 252 ° 0 min 0,000 mm 0,0 UV-I 0 W/m² 1,1 °C 14,5 km/h (3 Bft)
11.12.2016 22:17 2,6 °C 2,6 °C 90 % 1024,4 hPa 0,0 mm 3,4 km/h (1 Bft) S-SW 197 ° 0 min 0,000 mm 0,0 UV-I 0 W/m² 1,1 °C 8,0 km/h (2 Bft)
11.12.2016 22:18 2,6 °C 2,6 °C 90 % 1024,4 hPa 0,0 mm 5,1 km/h (1 Bft) W-SW 245 ° 0 min 0,000 mm 0,0 UV-I 0 W/m² 1,1 °C 6,4 km/h (2 Bft)
11.12.2016 22:19 2,6 °C 2,6 °C 90 % 1024,4 hPa 0,0 mm 7,1 km/h (2 Bft) S-SW 200 ° 0 min 0,000 mm 0,0 UV-I 0 W/m² 1,1 °C 11,3 km/h (2 Bft)
11.12.2016 22:20 2,6 °C 2,6 °C 90 % 1024,4 hPa 0,0 mm 6,1 km/h (2 Bft) S-SW 205 ° 0 min 0,000 mm 0,0 UV-I 0 W/m² 1,1 °C 9,7 km/h (2 Bft)
11.12.2016 22:21 2,6 °C 2,6 °C 90 % 1024,3 hPa 0,0 mm 4,8 km/h (1 Bft) S 184 ° 0 min 0,000 mm 0,0 UV-I 0 W/m² 1,1 °C 6,4 km/h (2 Bft)
11.12.2016 22:22 2,6 °C 2,6 °C 90 % 1024,3 hPa 0,0 mm 3,1 km/h (1 Bft) S 172 ° 0 min 0,000 mm 0,0 UV-I 0 W/m² 1,1 °C 6,4 km/h (2 Bft)
11.12.2016 22:23 2,6 °C 2,6 °C 90 % 1024,3 hPa 0,0 mm 3,7 km/h (1 Bft) S-SW 213 ° 0 min 0,000 mm 0,0 UV-I 0 W/m² 1,1 °C 4,8 km/h (1 Bft)
11.12.2016 22:24 2,6 °C 2,6 °C 90 % 1024,3 hPa 0,0 mm 5,5 km/h (1 Bft) S 187 ° 0 min 0,000 mm 0,0 UV-I 0 W/m² 1,1 °C 8,0 km/h (2 Bft)
11.12.2016 22:25 2,6 °C 2,6 °C 91 % 1024,3 hPa 0,0 mm 4,5 km/h (1 Bft) S-SW 194 ° 0 min 0,000 mm 0,0 UV-I 0 W/m² 1,3 °C 6,4 km/h (2 Bft)
11.12.2016 22:26 2,6 °C 2,6 °C 91 % 1024,3 hPa 0,0 mm 4,0 km/h (1 Bft) S-SW 194 ° 0 min 0,000 mm 0,0 UV-I 0 W/m² 1,3 °C 6,4 km/h (2 Bft)
11.12.2016 22:27 2,6 °C 2,6 °C 91 % 1024,4 hPa 0,0 mm 6,9 km/h (2 Bft) S-SW 210 ° 0 min 0,000 mm 0,0 UV-I 0 W/m² 1,3 °C 9,7 km/h (2 Bft)
11.12.2016 22:28 2,6 °C 2,6 °C 91 % 1024,4 hPa 0,0 mm 5,8 km/h (2 Bft) SW 217 ° 0 min 0,000 mm 0,0 UV-I 0 W/m² 1,3 °C 11,3 km/h (2 Bft)
11.12.2016 22:29 2,5 °C 2,6 °C 91 % 1024,4 hPa 0,0 mm 3,7 km/h (1 Bft) S-SW 209 ° 0 min 0,000 mm 0,0 UV-I 0 W/m² 1,2 °C 6,4 km/h (2 Bft)
11.12.2016 22:30 2,5 °C 2,6 °C 91 % 1024,4 hPa 0,0 mm 4,3 km/h (1 Bft) S-SW 195 ° 0 min 0,000 mm 0,0 UV-I 0 W/m² 1,2 °C 6,4 km/h (2 Bft)
11.12.2016 22:31 2,5 °C 2,5 °C 91 % 1024,4 hPa 0,0 mm 5,7 km/h (1 Bft) S-SW 200 ° 0 min 0,000 mm 0,0 UV-I 0 W/m² 1,2 °C 8,0 km/h (2 Bft)
11.12.2016 22:32 2,5 °C 2,5 °C 91 % 1024,4 hPa 0,0 mm 5,6 km/h (1 Bft) W-SW 252 ° 0 min 0,000 mm 0,0 UV-I 0 W/m² 1,2 °C 9,7 km/h (2 Bft)
11.12.2016 22:33 2,5 °C 2,5 °C 91 % 1024,4 hPa 0,0 mm 3,2 km/h (1 Bft) S 191 ° 0 min 0,000 mm 0,0 UV-I 0 W/m² 1,2 °C 4,8 km/h (1 Bft)
11.12.2016 22:34 2,5 °C 2,5 °C 91 % 1024,4 hPa 0,0 mm 3,7 km/h (1 Bft) S 188 ° 0 min 0,000 mm 0,0 UV-I 0 W/m² 1,2 °C 4,8 km/h (1 Bft)
11.12.2016 22:35 2,5 °C 2,5 °C 91 % 1024,3 hPa 0,0 mm 6,1 km/h (2 Bft) S 188 ° 0 min 0,000 mm 0,0 UV-I 0 W/m² 1,2 °C 9,7 km/h (2 Bft)
11.12.2016 22:36 2,5 °C 2,5 °C 91 % 1024,3 hPa 0,2 mm 5,8 km/h (2 Bft) SW 226 ° 0 min 0,000 mm 0,0 UV-I 0 W/m² 1,2 °C 8,0 km/h (2 Bft)
11.12.2016 22:37 2,4 °C 2,5 °C 91 % 1024,4 hPa 0,0 mm 5,5 km/h (1 Bft) S-SW 207 ° 0 min 0,000 mm 0,0 UV-I 0 W/m² 1,1 °C 6,4 km/h (2 Bft)
11.12.2016 22:38 2,4 °C 2,5 °C 91 % 1024,4 hPa 0,0 mm 4,5 km/h (1 Bft) S-SW 196 ° 0 min 0,000 mm 0,0 UV-I 0 W/m² 1,1 °C 8,0 km/h (2 Bft)
11.12.2016 22:39 2,4 °C 2,4 °C 91 % 1024,4 hPa 0,0 mm 2,7 km/h (1 Bft) S-SW 196 ° 0 min 0,000 mm 0,0 UV-I 0 W/m² 1,1 °C 3,2 km/h (1 Bft)
11.12.2016 22:40 2,4 °C 2,4 °C 91 % 1024,5 hPa 0,0 mm 2,7 km/h (1 Bft) S-SW 196 ° 0 min 0,000 mm 0,0 UV-I 0 W/m² 1,1 °C 4,8 km/h (1 Bft)
11.12.2016 22:41 2,4 °C 2,4 °C 91 % 1024,5 hPa 0,0 mm 6,0 km/h (2 Bft) SW 226 ° 0 min 0,000 mm 0,0 UV-I 0 W/m² 1,1 °C 8,0 km/h (2 Bft)
11.12.2016 22:42 2,4 °C 2,4 °C 91 % 1024,4 hPa 0,0 mm 8,7 km/h (2 Bft) W 267 ° 0 min 0,000 mm 0,0 UV-I 0 W/m² 1,1 °C 12,9 km/h (3 Bft)
11.12.2016 22:43 2,4 °C 2,4 °C 91 % 1024,4 hPa 0,0 mm 7,4 km/h (2 Bft) SW 228 ° 0 min 0,000 mm 0,0 UV-I 0 W/m² 1,1 °C 11,3 km/h (2 Bft)
11.12.2016 22:44 2,4 °C 2,4 °C 91 % 1024,4 hPa 0,0 mm 2,5 km/h (1 Bft) SW 227 ° 0 min 0,000 mm 0,0 UV-I 0 W/m² 1,1 °C 4,8 km/h (1 Bft)
11.12.2016 22:45 2,4 °C 2,4 °C 91 % 1024,4 hPa 0,0 mm 3,2 km/h (1 Bft) SW 229 ° 0 min 0,000 mm 0,0 UV-I 0 W/m² 1,1 °C 4,8 km/h (1 Bft)
11.12.2016 22:46 2,4 °C 2,4 °C 91 % 1024,4 hPa 0,0 mm 3,3 km/h (1 Bft) SW 229 ° 0 min 0,000 mm 0,0 UV-I 0 W/m² 1,1 °C 4,8 km/h (1 Bft)
11.12.2016 22:47 2,4 °C 2,4 °C 91 % 1024,5 hPa 0,0 mm 2,7 km/h (1 Bft) S-SW 203 ° 0 min 0,000 mm 0,0 UV-I 0 W/m² 1,1 °C 6,4 km/h (2 Bft)
11.12.2016 22:48 2,4 °C 2,4 °C 91 % 1024,4 hPa 0,0 mm 3,5 km/h (1 Bft) SW 216 ° 0 min 0,000 mm 0,0 UV-I 0 W/m² 1,1 °C 4,8 km/h (1 Bft)
11.12.2016 22:49 2,4 °C 2,4 °C 91 % 1024,5 hPa 0,0 mm 4,3 km/h (1 Bft) S-SW 211 ° 0 min 0,000 mm 0,0 UV-I 0 W/m² 1,1 °C 6,4 km/h (2 Bft)
11.12.2016 22:50 2,4 °C 2,4 °C 91 % 1024,5 hPa 0,0 mm 4,2 km/h (1 Bft) S-SW 192 ° 0 min 0,000 mm 0,0 UV-I 0 W/m² 1,1 °C 6,4 km/h (2 Bft)
11.12.2016 22:51 2,4 °C 2,4 °C 91 % 1024,5 hPa 0,0 mm 2,9 km/h (1 Bft) S-SW 193 ° 0 min 0,000 mm 0,0 UV-I 0 W/m² 1,1 °C 4,8 km/h (1 Bft)
11.12.2016 22:52 2,4 °C 2,4 °C 91 % 1024,6 hPa 0,0 mm 6,1 km/h (2 Bft) SW 219 ° 0 min 0,000 mm 0,0 UV-I 0 W/m² 1,1 °C 12,9 km/h (3 Bft)
11.12.2016 22:53 2,4 °C 2,4 °C 91 % 1024,6 hPa 0,0 mm 3,3 km/h (1 Bft) W-SW 244 ° 0 min 0,000 mm 0,0 UV-I 0 W/m² 1,1 °C 4,8 km/h (1 Bft)
11.12.2016 22:54 2,4 °C 2,4 °C 91 % 1024,5 hPa 0,0 mm 4,0 km/h (1 Bft) S-SW 197 ° 0 min 0,000 mm 0,0 UV-I 0 W/m² 1,1 °C 8,0 km/h (2 Bft)
11.12.2016 22:55 2,4 °C 2,4 °C 91 % 1024,4 hPa 0,0 mm 4,8 km/h (1 Bft) S-SW 192 ° 0 min 0,000 mm 0,0 UV-I 0 W/m² 1,1 °C 6,4 km/h (2 Bft)
11.12.2016 22:56 2,4 °C 2,4 °C 91 % 1024,4 hPa 0,0 mm 1,9 km/h (1 Bft) S-SW 192 ° 0 min 0,000 mm 0,0 UV-I 0 W/m² 1,1 °C 4,8 km/h (1 Bft)
11.12.2016 22:57 2,4 °C 2,4 °C 91 % 1024,5 hPa 0,0 mm 2,7 km/h (1 Bft) S-SW 200 ° 0 min 0,000 mm 0,0 UV-I 0 W/m² 1,1 °C 4,8 km/h (1 Bft)
11.12.2016 22:58 2,4 °C 2,4 °C 91 % 1024,6 hPa 0,0 mm 3,8 km/h (1 Bft) S-SW 212 ° 0 min 0,000 mm 0,0 UV-I 0 W/m² 1,1 °C 6,4 km/h (2 Bft)
11.12.2016 22:59 2,4 °C 2,4 °C 91 % 1024,6 hPa 0,0 mm 7,3 km/h (2 Bft) W-SW 238 ° 0 min 0,000 mm 0,0 UV-I 0 W/m² 1,1 °C 14,5 km/h (3 Bft)
11.12.2016 23:00 2,4 °C 2,4 °C 91 % 1024,6 hPa 0,0 mm 6,1 km/h (2 Bft) SW 221 ° 0 min 0,000 mm 0,0 UV-I 0 W/m² 1,1 °C 11,3 km/h (2 Bft)
11.12.2016 23:01 2,4 °C 2,4 °C 91 % 1024,6 hPa 0,0 mm 3,7 km/h (1 Bft) S-SW 209 ° 0 min 0,000 mm 0,0 UV-I 0 W/m² 1,1 °C 4,8 km/h (1 Bft)
11.12.2016 23:02 2,4 °C 2,4 °C 91 % 1024,6 hPa 0,0 mm 4,0 km/h (1 Bft) W-SW 257 ° 0 min 0,000 mm 0,0 UV-I 0 W/m² 1,1 °C 6,4 km/h (2 Bft)
11.12.2016 23:03 2,4 °C 2,4 °C 91 % 1024,6 hPa 0,0 mm 4,2 km/h (1 Bft) W 265 ° 0 min 0,000 mm 0,0 UV-I 0 W/m² 1,1 °C 4,8 km/h (1 Bft)
11.12.2016 23:04 2,4 °C 2,4 °C 91 % 1024,6 hPa 0,0 mm 3,5 km/h (1 Bft) S-SW 213 ° 0 min 0,000 mm 0,0 UV-I 0 W/m² 1,1 °C 4,8 km/h (1 Bft)
11.12.2016 23:05 2,4 °C 2,4 °C 91 % 1024,5 hPa 0,0 mm 5,5 km/h (1 Bft) S-SW 199 ° 0 min 0,000 mm 0,0 UV-I 0 W/m² 1,1 °C 9,7 km/h (2 Bft)
11.12.2016 23:06 2,4 °C 2,4 °C 91 % 1024,5 hPa 0,0 mm 4,4 km/h (1 Bft) S-SW 192 ° 0 min 0,000 mm 0,0 UV-I 0 W/m² 1,1 °C 9,7 km/h (2 Bft)
11.12.2016 23:07 2,4 °C 2,4 °C 91 % 1024,5 hPa 0,0 mm 7,2 km/h (2 Bft) S 189 ° 0 min 0,000 mm 0,0 UV-I 0 W/m² 1,1 °C 12,9 km/h (3 Bft)
11.12.2016 23:08 2,4 °C 2,4 °C 91 % 1024,5 hPa 0,0 mm 5,1 km/h (1 Bft) S-SW 194 ° 0 min 0,000 mm 0,0 UV-I 0 W/m² 1,1 °C 8,0 km/h (2 Bft)
11.12.2016 23:09 2,4 °C 2,4 °C 91 % 1024,5 hPa 0,0 mm 5,0 km/h (1 Bft) S-SW 196 ° 0 min 0,000 mm 0,0 UV-I 0 W/m² 1,1 °C 6,4 km/h (2 Bft)
11.12.2016 23:10 2,4 °C 2,4 °C 91 % 1024,5 hPa 0,0 mm 5,3 km/h (1 Bft) SW 215 ° 0 min 0,000 mm 0,0 UV-I 0 W/m² 1,1 °C 9,7 km/h (2 Bft)
11.12.2016 23:11 2,4 °C 2,4 °C 91 % 1024,5 hPa 0,0 mm 6,6 km/h (2 Bft) S-SW 196 ° 0 min 0,000 mm 0,0 UV-I 0 W/m² 1,1 °C 9,7 km/h (2 Bft)
11.12.2016 23:12 2,4 °C 2,4 °C 91 % 1024,5 hPa 0,0 mm 4,6 km/h (1 Bft) S-SW 197 ° 0 min 0,000 mm 0,0 UV-I 0 W/m² 1,1 °C 8,0 km/h (2 Bft)
11.12.2016 23:13 2,4 °C 2,4 °C 91 % 1024,5 hPa 0,0 mm 8,9 km/h (2 Bft) S-SW 200 ° 0 min 0,000 mm 0,0 UV-I 0 W/m² 1,1 °C 12,9 km/h (3 Bft)
11.12.2016 23:14 2,4 °C 2,4 °C 91 % 1024,5 hPa 0,0 mm 5,8 km/h (2 Bft) SW 225 ° 0 min 0,000 mm 0,0 UV-I 0 W/m² 1,1 °C 14,5 km/h (3 Bft)
11.12.2016 23:15 2,4 °C 2,4 °C 91 % 1024,5 hPa 0,0 mm 4,8 km/h (1 Bft) W 271 ° 0 min 0,000 mm 0,0 UV-I 0 W/m² 1,1 °C 6,4 km/h (2 Bft)
11.12.2016 23:16 2,4 °C 2,4 °C 91 % 1024,6 hPa 0,0 mm 5,2 km/h (1 Bft) S-SO 158 ° 0 min 0,000 mm 0,0 UV-I 0 W/m² 1,1 °C 9,7 km/h (2 Bft)
11.12.2016 23:17 2,4 °C 2,4 °C 91 % 1024,6 hPa 0,0 mm 9,9 km/h (2 Bft) W 263 ° 0 min 0,000 mm 0,0 UV-I 0 W/m² 1,1 °C 12,9 km/h (3 Bft)
11.12.2016 23:18 2,4 °C 2,4 °C 91 % 1024,6 hPa 0,0 mm 5,5 km/h (1 Bft) W-SW 253 ° 0 min 0,000 mm 0,0 UV-I 0 W/m² 1,1 °C 9,7 km/h (2 Bft)
11.12.2016 23:19 2,4 °C 2,4 °C 91 % 1024,6 hPa 0,0 mm 5,2 km/h (1 Bft) S-SW 211 ° 0 min 0,000 mm 0,0 UV-I 0 W/m² 1,1 °C 9,7 km/h (2 Bft)
11.12.2016 23:20 2,4 °C 2,4 °C 91 % 1024,6 hPa 0,0 mm 4,2 km/h (1 Bft) S-SW 211 ° 0 min 0,000 mm 0,0 UV-I 0 W/m² 1,1 °C 4,8 km/h (1 Bft)
11.12.2016 23:21 2,4 °C 2,4 °C 91 % 1024,5 hPa 0,0 mm 4,1 km/h (1 Bft) S-SW 211 ° 0 min 0,000 mm 0,0 UV-I 0 W/m² 1,1 °C 4,8 km/h (1 Bft)
11.12.2016 23:22 2,4 °C 2,4 °C 91 % 1024,5 hPa 0,0 mm 3,2 km/h (1 Bft) W-SW 243 ° 0 min 0,000 mm 0,0 UV-I 0 W/m² 1,1 °C 6,4 km/h (2 Bft)
11.12.2016 23:23 2,4 °C 2,4 °C 91 % 1024,5 hPa 0,0 mm 7,3 km/h (2 Bft) S-SW 194 ° 0 min 0,000 mm 0,0 UV-I 0 W/m² 1,1 °C 14,5 km/h (3 Bft)
11.12.2016 23:24 2,4 °C 2,4 °C 91 % 1024,4 hPa 0,0 mm 5,8 km/h (2 Bft) S 180 ° 0 min 0,000 mm 0,0 UV-I 0 W/m² 1,1 °C 12,9 km/h (3 Bft)
11.12.2016 23:25 2,4 °C 2,4 °C 91 % 1024,4 hPa 0,0 mm 5,6 km/h (1 Bft) S-SW 205 ° 0 min 0,000 mm 0,0 UV-I 0 W/m² 1,1 °C 8,0 km/h (2 Bft)
11.12.2016 23:26 2,4 °C 2,4 °C 91 % 1024,4 hPa 0,0 mm 6,6 km/h (2 Bft) S 190 ° 0 min 0,000 mm 0,0 UV-I 0 W/m² 1,1 °C 9,7 km/h (2 Bft)
11.12.2016 23:27 2,4 °C 2,4 °C 91 % 1024,4 hPa 0,0 mm 6,5 km/h (2 Bft) S-SW 201 ° 0 min 0,000 mm 0,0 UV-I 0 W/m² 1,1 °C 9,7 km/h (2 Bft)
11.12.2016 23:28 2,4 °C 2,4 °C 91 % 1024,4 hPa 0,0 mm 3,6 km/h (1 Bft) S-SW 202 ° 0 min 0,000 mm 0,0 UV-I 0 W/m² 1,1 °C 6,4 km/h (2 Bft)
11.12.2016 23:29 2,4 °C 2,4 °C 91 % 1024,3 hPa 0,0 mm 4,0 km/h (1 Bft) SW 229 ° 0 min 0,000 mm 0,0 UV-I 0 W/m² 1,1 °C 8,0 km/h (2 Bft)
11.12.2016 23:30 2,4 °C 2,4 °C 91 % 1024,3 hPa 0,0 mm 5,0 km/h (1 Bft) W-SW 237 ° 0 min 0,000 mm 0,0 UV-I 0 W/m² 1,1 °C 8,0 km/h (2 Bft)
11.12.2016 23:31 2,4 °C 2,4 °C 91 % 1024,3 hPa 0,0 mm 5,6 km/h (1 Bft) SW 217 ° 0 min 0,000 mm 0,0 UV-I 0 W/m² 1,1 °C 8,0 km/h (2 Bft)
11.12.2016 23:32 2,4 °C 2,4 °C 91 % 1024,4 hPa 0,0 mm 2,2 km/h (1 Bft) S-SW 209 ° 0 min 0,000 mm 0,0 UV-I 0 W/m² 1,1 °C 8,0 km/h (2 Bft)
11.12.2016 23:33 2,4 °C 2,4 °C 91 % 1024,3 hPa 0,0 mm 4,8 km/h (1 Bft) W-SW 243 ° 0 min 0,000 mm 0,0 UV-I 0 W/m² 1,1 °C 6,4 km/h (2 Bft)
11.12.2016 23:34 2,4 °C 2,4 °C 91 % 1024,4 hPa 0,0 mm 5,0 km/h (1 Bft) SW 227 ° 0 min 0,000 mm 0,0 UV-I 0 W/m² 1,1 °C 9,7 km/h (2 Bft)
11.12.2016 23:35 2,4 °C 2,4 °C 91 % 1024,3 hPa 0,0 mm 7,4 km/h (2 Bft) W-SW 245 ° 0 min 0,000 mm 0,0 UV-I 0 W/m² 1,1 °C 12,9 km/h (3 Bft)
11.12.2016 23:36 2,4 °C 2,4 °C 91 % 1024,4 hPa 0,0 mm 11,5 km/h (2 Bft) W 276 ° 0 min 0,000 mm 0,0 UV-I 0 W/m² 1,1 °C 16,1 km/h (3 Bft)
11.12.2016 23:37 2,4 °C 2,4 °C 91 % 1024,4 hPa 0,0 mm 11,7 km/h (2 Bft) W-SW 247 ° 0 min 0,000 mm 0,0 UV-I 0 W/m² 1,1 °C 19,3 km/h (3 Bft)
11.12.2016 23:38 2,3 °C 2,4 °C 91 % 1024,4 hPa 0,0 mm 10,0 km/h (2 Bft) W-SW 249 ° 0 min 0,000 mm 0,0 UV-I 0 W/m² 1,0 °C 12,9 km/h (3 Bft)
11.12.2016 23:39 2,4 °C 2,4 °C 91 % 1024,4 hPa 0,0 mm 6,2 km/h (2 Bft) W 260 ° 0 min 0,000 mm 0,0 UV-I 0 W/m² 1,1 °C 11,3 km/h (2 Bft)
11.12.2016 23:40 2,4 °C 2,4 °C 91 % 1024,4 hPa 0,0 mm 5,0 km/h (1 Bft) W-SW 246 ° 0 min 0,000 mm 0,0 UV-I 0 W/m² 1,1 °C 8,0 km/h (2 Bft)
11.12.2016 23:41 2,3 °C 2,4 °C 91 % 1024,4 hPa 0,0 mm 6,0 km/h (2 Bft) W-SW 242 ° 0 min 0,000 mm 0,0 UV-I 0 W/m² 1,0 °C 11,3 km/h (2 Bft)
11.12.2016 23:42 2,4 °C 2,4 °C 91 % 1024,4 hPa 0,0 mm 5,5 km/h (1 Bft) SW 222 ° 0 min 0,000 mm 0,0 UV-I 0 W/m² 1,1 °C 11,3 km/h (2 Bft)
11.12.2016 23:43 2,4 °C 2,4 °C 90 % 1024,3 hPa 0,0 mm 6,5 km/h (2 Bft) S-SW 200 ° 0 min 0,000 mm 0,0 UV-I 0 W/m² 0,9 °C 9,7 km/h (2 Bft)
11.12.2016 23:44 2,3 °C 2,4 °C 90 % 1024,3 hPa 0,0 mm 10,3 km/h (2 Bft) S-SW 193 ° 0 min 0,000 mm 0,0 UV-I 0 W/m² 0,8 °C 16,1 km/h (3 Bft)
11.12.2016 23:45 2,3 °C 2,4 °C 90 % 1024,3 hPa 0,0 mm 8,2 km/h (2 Bft) W-SW 244 ° 0 min 0,000 mm 0,0 UV-I 0 W/m² 0,8 °C 12,9 km/h (3 Bft)
11.12.2016 23:46 2,3 °C 2,3 °C 90 % 1024,3 hPa 0,0 mm 11,5 km/h (2 Bft) S-SW 192 ° 0 min 0,000 mm 0,0 UV-I 0 W/m² 0,8 °C 16,1 km/h (3 Bft)
11.12.2016 23:47 2,3 °C 2,4 °C 90 % 1024,4 hPa 0,0 mm 5,9 km/h (2 Bft) S-SW 203 ° 0 min 0,000 mm 0,0 UV-I 0 W/m² 0,8 °C 11,3 km/h (2 Bft)
11.12.2016 23:48 2,3 °C 2,4 °C 90 % 1024,3 hPa 0,0 mm 2,6 km/h (1 Bft) SW 235 ° 0 min 0,000 mm 0,0 UV-I 0 W/m² 0,8 °C 4,8 km/h (1 Bft)
11.12.2016 23:49 2,3 °C 2,3 °C 90 % 1024,3 hPa 0,0 mm 7,8 km/h (2 Bft) W-SW 238 ° 0 min 0,000 mm 0,0 UV-I 0 W/m² 0,8 °C 11,3 km/h (2 Bft)
11.12.2016 23:50 2,3 °C 2,3 °C 90 % 1024,3 hPa 0,0 mm 7,0 km/h (2 Bft) S-SW 193 ° 0 min 0,000 mm 0,0 UV-I 0 W/m² 0,8 °C 11,3 km/h (2 Bft)
11.12.2016 23:51 2,3 °C 2,3 °C 90 % 1024,3 hPa 0,0 mm 6,4 km/h (2 Bft) SW 222 ° 0 min 0,000 mm 0,0 UV-I 0 W/m² 0,8 °C 11,3 km/h (2 Bft)
11.12.2016 23:52 2,3 °C 2,3 °C 90 % 1024,3 hPa 0,0 mm 8,6 km/h (2 Bft) W-SW 252 ° 0 min 0,000 mm 0,0 UV-I 0 W/m² 0,8 °C 14,5 km/h (3 Bft)
11.12.2016 23:53 2,3 °C 2,3 °C 90 % 1024,3 hPa 0,0 mm 8,9 km/h (2 Bft) W-SW 242 ° 0 min 0,000 mm 0,0 UV-I 0 W/m² 0,8 °C 11,3 km/h (2 Bft)
11.12.2016 23:54 2,3 °C 2,3 °C 90 % 1024,3 hPa 0,0 mm 6,5 km/h (2 Bft) S-SO 156 ° 0 min 0,000 mm 0,0 UV-I 0 W/m² 0,8 °C 9,7 km/h (2 Bft)
11.12.2016 23:55 2,3 °C 2,3 °C 90 % 1024,3 hPa 0,0 mm 7,1 km/h (2 Bft) W-SW 247 ° 0 min 0,000 mm 0,0 UV-I 0 W/m² 0,8 °C 12,9 km/h (3 Bft)
11.12.2016 23:56 2,3 °C 2,3 °C 90 % 1024,3 hPa 0,0 mm 8,7 km/h (2 Bft) S-SW 213 ° 0 min 0,000 mm 0,0 UV-I 0 W/m² 0,8 °C 12,9 km/h (3 Bft)
11.12.2016 23:57 2,3 °C 2,3 °C 90 % 1024,3 hPa 0,0 mm 5,6 km/h (1 Bft) W-SW 243 ° 0 min 0,000 mm 0,0 UV-I 0 W/m² 0,8 °C 8,0 km/h (2 Bft)
11.12.2016 23:58 2,3 °C 2,3 °C 90 % 1024,3 hPa 0,0 mm 6,5 km/h (2 Bft) SW 229 ° 0 min 0,000 mm 0,0 UV-I 0 W/m² 0,8 °C 9,7 km/h (2 Bft)
11.12.2016 23:59 2,3 °C 2,3 °C 90 % 1024,3 hPa 0,0 mm 4,4 km/h (1 Bft) W 259 ° 0 min 0,000 mm 0,0 UV-I 0 W/m² 0,8 °C 6,4 km/h (2 Bft)
_ Min-Zeit 05:35 05:35 11:41 13:17 - 04:54 - - - - - - 05:27 04:54
Minimum _ -3,3 °C -3,3 °C 50 % 1021,8 hPa - 0,0 km/h (0 Bft) - - - - - - -6,2 °C 0,0 km/h (0 Bft)
_ Max-Zeit 11:39 11:41 20:05 17:42 22:36 12:37 - - 23:59 12:01 13:13 13:22 13:02 12:37
Maximum _ 9,1 °C 9,1 °C 93 % 1024,7 hPa 0,2 mm 23,6 km/h
W (4 Bft)
- - 0 min 0,102 mm 0,9 UV-I 151 W/m² 2,8 °C 35,4 km/h
W-NW (5 Bft)
Durchschnitt _ 2,9 °C 3,0 °C 76 % 1023,6 hPa #1,0 mm 7,3 km/h (2 Bft) W - #0 min. #0,584 mm 0,7 UV-I 14 W/m² -1,1 °C 11,3 km/h (2 Bft)